<?xml version="1.0" encoding="UTF-8" standalone="no" ?>
<gpx xmlns="http://www.topografix.com/GPX/1/1" xmlns:xsi="http://www.w3.org/2001/XMLSchema-instance" xsi:schemaLocation="http://www.topografix.com/GPX/1/1 http://www.topografix.com/GPX/1/1/gpx.xsd" version="1.1" creator="VisuGPX - https://www.visugpx.com">
  <metadata>
    <name>Combe de Font Jouvale</name>
    <desc><![CDATA[Balade dans la combe de Font Jouvale au départ du hameau des Cordiers]]></desc>
  </metadata>
  <trk>
    <name><![CDATA[2017-11-13 14:00:50]]></name>
    <trkseg>
      <trkpt lat="43.92892" lon="5.34327">
        <ele>237.1</ele>
        <time>2017-11-13T08:44:26Z</time>
      </trkpt>
      <trkpt lat="43.92892" lon="5.34327">
        <ele>237.1</ele>
        <time>2017-11-13T08:44:27Z</time>
      </trkpt>
      <trkpt lat="43.92891" lon="5.34327">
        <ele>274.59</ele>
        <time>2017-11-13T08:44:30Z</time>
      </trkpt>
      <trkpt lat="43.92891" lon="5.34327">
        <ele>274.59</ele>
        <time>2017-11-13T08:44:31Z</time>
      </trkpt>
      <trkpt lat="43.92891" lon="5.34326">
        <ele>276.04</ele>
        <time>2017-11-13T08:44:38Z</time>
      </trkpt>
      <trkpt lat="43.92892" lon="5.34326">
        <ele>274.59</ele>
        <time>2017-11-13T08:44:43Z</time>
      </trkpt>
      <trkpt lat="43.92891" lon="5.34325">
        <ele>271.23</ele>
        <time>2017-11-13T08:45:00Z</time>
      </trkpt>
      <trkpt lat="43.92894" lon="5.34327">
        <ele>274.59</ele>
        <time>2017-11-13T08:45:19Z</time>
      </trkpt>
      <trkpt lat="43.92892" lon="5.34327">
        <ele>272.19</ele>
        <time>2017-11-13T08:45:41Z</time>
      </trkpt>
      <trkpt lat="43.92892" lon="5.34326">
        <ele>274.11</ele>
        <time>2017-11-13T08:45:44Z</time>
      </trkpt>
      <trkpt lat="43.92891" lon="5.34327">
        <ele>273.15</ele>
        <time>2017-11-13T08:46:05Z</time>
      </trkpt>
      <trkpt lat="43.92891" lon="5.34326">
        <ele>273.15</ele>
        <time>2017-11-13T08:46:06Z</time>
      </trkpt>
      <trkpt lat="43.92891" lon="5.34327">
        <ele>271.23</ele>
        <time>2017-11-13T08:46:09Z</time>
      </trkpt>
      <trkpt lat="43.92891" lon="5.34328">
        <ele>274.11</ele>
        <time>2017-11-13T08:46:11Z</time>
      </trkpt>
      <trkpt lat="43.92892" lon="5.34328">
        <ele>271.23</ele>
        <time>2017-11-13T08:46:15Z</time>
      </trkpt>
      <trkpt lat="43.92894" lon="5.34327">
        <ele>274.11</ele>
        <time>2017-11-13T08:46:17Z</time>
      </trkpt>
      <trkpt lat="43.92897" lon="5.34327">
        <ele>272.67</ele>
        <time>2017-11-13T08:46:24Z</time>
      </trkpt>
      <trkpt lat="43.92897" lon="5.34326">
        <ele>273.15</ele>
        <time>2017-11-13T08:46:44Z</time>
      </trkpt>
      <trkpt lat="43.92899" lon="5.34329">
        <ele>273.63</ele>
        <time>2017-11-13T08:47:04Z</time>
      </trkpt>
      <trkpt lat="43.92898" lon="5.34327">
        <ele>273.15</ele>
        <time>2017-11-13T08:47:28Z</time>
      </trkpt>
      <trkpt lat="43.92899" lon="5.34328">
        <ele>274.11</ele>
        <time>2017-11-13T08:47:36Z</time>
      </trkpt>
      <trkpt lat="43.92899" lon="5.34327">
        <ele>272.67</ele>
        <time>2017-11-13T08:47:38Z</time>
      </trkpt>
      <trkpt lat="43.929" lon="5.34328">
        <ele>275.56</ele>
        <time>2017-11-13T08:48:00Z</time>
      </trkpt>
      <trkpt lat="43.929" lon="5.34327">
        <ele>272.67</ele>
        <time>2017-11-13T08:48:08Z</time>
      </trkpt>
      <trkpt lat="43.929" lon="5.34327">
        <ele>274.11</ele>
        <time>2017-11-13T08:48:28Z</time>
      </trkpt>
      <trkpt lat="43.92903" lon="5.34328">
        <ele>271.71</ele>
        <time>2017-11-13T08:48:33Z</time>
      </trkpt>
      <trkpt lat="43.92907" lon="5.34326">
        <ele>273.15</ele>
        <time>2017-11-13T08:48:39Z</time>
      </trkpt>
      <trkpt lat="43.92905" lon="5.34318">
        <ele>273.63</ele>
        <time>2017-11-13T08:48:58Z</time>
      </trkpt>
      <trkpt lat="43.92903" lon="5.34324">
        <ele>273.63</ele>
        <time>2017-11-13T08:49:12Z</time>
      </trkpt>
      <trkpt lat="43.92902" lon="5.34325">
        <ele>272.67</ele>
        <time>2017-11-13T08:49:15Z</time>
      </trkpt>
      <trkpt lat="43.92903" lon="5.34326">
        <ele>274.11</ele>
        <time>2017-11-13T08:49:23Z</time>
      </trkpt>
      <trkpt lat="43.92908" lon="5.34316">
        <ele>274.11</ele>
        <time>2017-11-13T08:49:40Z</time>
      </trkpt>
      <trkpt lat="43.9291" lon="5.34302">
        <ele>272.67</ele>
        <time>2017-11-13T08:49:57Z</time>
      </trkpt>
      <trkpt lat="43.92915" lon="5.3429">
        <ele>273.63</ele>
        <time>2017-11-13T08:50:10Z</time>
      </trkpt>
      <trkpt lat="43.92915" lon="5.34289">
        <ele>272.19</ele>
        <time>2017-11-13T08:50:12Z</time>
      </trkpt>
      <trkpt lat="43.92922" lon="5.34271">
        <ele>274.11</ele>
        <time>2017-11-13T08:50:29Z</time>
      </trkpt>
      <trkpt lat="43.92929" lon="5.34243">
        <ele>276.04</ele>
        <time>2017-11-13T08:50:50Z</time>
      </trkpt>
      <trkpt lat="43.92934" lon="5.34227">
        <ele>275.07</ele>
        <time>2017-11-13T08:51:04Z</time>
      </trkpt>
      <trkpt lat="43.92935" lon="5.34216">
        <ele>277.96</ele>
        <time>2017-11-13T08:51:14Z</time>
      </trkpt>
      <trkpt lat="43.92941" lon="5.34188">
        <ele>277.96</ele>
        <time>2017-11-13T08:51:34Z</time>
      </trkpt>
      <trkpt lat="43.92942" lon="5.34179">
        <ele>276.52</ele>
        <time>2017-11-13T08:51:41Z</time>
      </trkpt>
      <trkpt lat="43.92942" lon="5.34173">
        <ele>277.96</ele>
        <time>2017-11-13T08:51:45Z</time>
      </trkpt>
      <trkpt lat="43.92949" lon="5.34157">
        <ele>280.84</ele>
        <time>2017-11-13T08:52:01Z</time>
      </trkpt>
      <trkpt lat="43.92957" lon="5.34151">
        <ele>282.28</ele>
        <time>2017-11-13T08:52:16Z</time>
      </trkpt>
      <trkpt lat="43.92957" lon="5.3415">
        <ele>283.25</ele>
        <time>2017-11-13T08:52:26Z</time>
      </trkpt>
      <trkpt lat="43.92955" lon="5.34145">
        <ele>282.28</ele>
        <time>2017-11-13T08:52:35Z</time>
      </trkpt>
      <trkpt lat="43.92951" lon="5.34131">
        <ele>283.25</ele>
        <time>2017-11-13T08:52:46Z</time>
      </trkpt>
      <trkpt lat="43.9295" lon="5.34128">
        <ele>283.25</ele>
        <time>2017-11-13T08:52:48Z</time>
      </trkpt>
      <trkpt lat="43.92946" lon="5.3412">
        <ele>283.25</ele>
        <time>2017-11-13T08:52:57Z</time>
      </trkpt>
      <trkpt lat="43.9295" lon="5.34133">
        <ele>283.73</ele>
        <time>2017-11-13T08:53:10Z</time>
      </trkpt>
      <trkpt lat="43.92955" lon="5.34143">
        <ele>281.8</ele>
        <time>2017-11-13T08:53:21Z</time>
      </trkpt>
      <trkpt lat="43.92964" lon="5.34151">
        <ele>281.8</ele>
        <time>2017-11-13T08:53:32Z</time>
      </trkpt>
      <trkpt lat="43.9297" lon="5.34145">
        <ele>281.8</ele>
        <time>2017-11-13T08:53:40Z</time>
      </trkpt>
      <trkpt lat="43.92974" lon="5.34136">
        <ele>284.69</ele>
        <time>2017-11-13T08:53:48Z</time>
      </trkpt>
      <trkpt lat="43.92977" lon="5.34129">
        <ele>285.17</ele>
        <time>2017-11-13T08:53:55Z</time>
      </trkpt>
      <trkpt lat="43.92982" lon="5.34109">
        <ele>286.61</ele>
        <time>2017-11-13T08:54:11Z</time>
      </trkpt>
      <trkpt lat="43.92983" lon="5.34104">
        <ele>288.05</ele>
        <time>2017-11-13T08:54:15Z</time>
      </trkpt>
      <trkpt lat="43.92989" lon="5.34085">
        <ele>289.97</ele>
        <time>2017-11-13T08:54:32Z</time>
      </trkpt>
      <trkpt lat="43.92994" lon="5.34064">
        <ele>290.46</ele>
        <time>2017-11-13T08:54:50Z</time>
      </trkpt>
      <trkpt lat="43.93003" lon="5.34053">
        <ele>290.46</ele>
        <time>2017-11-13T08:55:04Z</time>
      </trkpt>
      <trkpt lat="43.93004" lon="5.3405">
        <ele>292.86</ele>
        <time>2017-11-13T08:55:07Z</time>
      </trkpt>
      <trkpt lat="43.93006" lon="5.34047">
        <ele>293.82</ele>
        <time>2017-11-13T08:55:11Z</time>
      </trkpt>
      <trkpt lat="43.93014" lon="5.34042">
        <ele>294.78</ele>
        <time>2017-11-13T08:55:21Z</time>
      </trkpt>
      <trkpt lat="43.9302" lon="5.34043">
        <ele>297.18</ele>
        <time>2017-11-13T08:55:27Z</time>
      </trkpt>
      <trkpt lat="43.93023" lon="5.34041">
        <ele>298.63</ele>
        <time>2017-11-13T08:55:32Z</time>
      </trkpt>
      <trkpt lat="43.93023" lon="5.34041">
        <ele>296.7</ele>
        <time>2017-11-13T08:55:33Z</time>
      </trkpt>
      <trkpt lat="43.93024" lon="5.3404">
        <ele>296.22</ele>
        <time>2017-11-13T08:55:35Z</time>
      </trkpt>
      <trkpt lat="43.93027" lon="5.34037">
        <ele>289.49</ele>
        <time>2017-11-13T08:55:38Z</time>
      </trkpt>
      <trkpt lat="43.93029" lon="5.34035">
        <ele>305.36</ele>
        <time>2017-11-13T08:55:39Z</time>
      </trkpt>
      <trkpt lat="43.9303" lon="5.34034">
        <ele>297.67</ele>
        <time>2017-11-13T08:55:40Z</time>
      </trkpt>
      <trkpt lat="43.93034" lon="5.34035">
        <ele>299.11</ele>
        <time>2017-11-13T08:55:45Z</time>
      </trkpt>
      <trkpt lat="43.93045" lon="5.3403">
        <ele>302.47</ele>
        <time>2017-11-13T08:56:02Z</time>
      </trkpt>
      <trkpt lat="43.93058" lon="5.34022">
        <ele>304.39</ele>
        <time>2017-11-13T08:56:19Z</time>
      </trkpt>
      <trkpt lat="43.93066" lon="5.34018">
        <ele>307.28</ele>
        <time>2017-11-13T08:56:30Z</time>
      </trkpt>
      <trkpt lat="43.93074" lon="5.34009">
        <ele>310.64</ele>
        <time>2017-11-13T08:56:43Z</time>
      </trkpt>
      <trkpt lat="43.9309" lon="5.34">
        <ele>312.09</ele>
        <time>2017-11-13T08:57:03Z</time>
      </trkpt>
      <trkpt lat="43.93107" lon="5.34002">
        <ele>314.01</ele>
        <time>2017-11-13T08:57:21Z</time>
      </trkpt>
      <trkpt lat="43.93129" lon="5.34005">
        <ele>314.97</ele>
        <time>2017-11-13T08:57:43Z</time>
      </trkpt>
      <trkpt lat="43.93148" lon="5.34012">
        <ele>316.41</ele>
        <time>2017-11-13T08:58:03Z</time>
      </trkpt>
      <trkpt lat="43.93149" lon="5.34013">
        <ele>315.45</ele>
        <time>2017-11-13T08:58:05Z</time>
      </trkpt>
      <trkpt lat="43.9316" lon="5.34018">
        <ele>315.45</ele>
        <time>2017-11-13T08:58:16Z</time>
      </trkpt>
      <trkpt lat="43.93185" lon="5.34026">
        <ele>316.41</ele>
        <time>2017-11-13T08:58:39Z</time>
      </trkpt>
      <trkpt lat="43.93202" lon="5.3403">
        <ele>316.89</ele>
        <time>2017-11-13T08:58:55Z</time>
      </trkpt>
      <trkpt lat="43.93221" lon="5.34036">
        <ele>317.85</ele>
        <time>2017-11-13T08:59:14Z</time>
      </trkpt>
      <trkpt lat="43.93239" lon="5.34046">
        <ele>317.37</ele>
        <time>2017-11-13T08:59:32Z</time>
      </trkpt>
      <trkpt lat="43.93256" lon="5.34054">
        <ele>318.33</ele>
        <time>2017-11-13T08:59:48Z</time>
      </trkpt>
      <trkpt lat="43.93264" lon="5.34058">
        <ele>316.41</ele>
        <time>2017-11-13T08:59:56Z</time>
      </trkpt>
      <trkpt lat="43.93284" lon="5.34063">
        <ele>320.74</ele>
        <time>2017-11-13T09:00:13Z</time>
      </trkpt>
      <trkpt lat="43.93285" lon="5.34063">
        <ele>320.74</ele>
        <time>2017-11-13T09:00:14Z</time>
      </trkpt>
      <trkpt lat="43.93288" lon="5.34063">
        <ele>319.3</ele>
        <time>2017-11-13T09:00:17Z</time>
      </trkpt>
      <trkpt lat="43.93294" lon="5.34062">
        <ele>318.81</ele>
        <time>2017-11-13T09:00:36Z</time>
      </trkpt>
      <trkpt lat="43.93294" lon="5.34062">
        <ele>316.41</ele>
        <time>2017-11-13T09:00:43Z</time>
      </trkpt>
      <trkpt lat="43.93294" lon="5.34062">
        <ele>318.33</ele>
        <time>2017-11-13T09:00:45Z</time>
      </trkpt>
      <trkpt lat="43.93293" lon="5.34061">
        <ele>319.78</ele>
        <time>2017-11-13T09:00:48Z</time>
      </trkpt>
      <trkpt lat="43.93293" lon="5.34061">
        <ele>316.41</ele>
        <time>2017-11-13T09:00:51Z</time>
      </trkpt>
      <trkpt lat="43.93294" lon="5.34061">
        <ele>319.78</ele>
        <time>2017-11-13T09:00:53Z</time>
      </trkpt>
      <trkpt lat="43.93294" lon="5.34061">
        <ele>319.78</ele>
        <time>2017-11-13T09:00:54Z</time>
      </trkpt>
      <trkpt lat="43.93294" lon="5.34061">
        <ele>317.85</ele>
        <time>2017-11-13T09:00:56Z</time>
      </trkpt>
      <trkpt lat="43.93303" lon="5.34064">
        <ele>319.78</ele>
        <time>2017-11-13T09:01:05Z</time>
      </trkpt>
      <trkpt lat="43.93311" lon="5.34066">
        <ele>316.89</ele>
        <time>2017-11-13T09:01:13Z</time>
      </trkpt>
      <trkpt lat="43.93314" lon="5.34067">
        <ele>319.78</ele>
        <time>2017-11-13T09:01:16Z</time>
      </trkpt>
      <trkpt lat="43.93317" lon="5.34067">
        <ele>317.85</ele>
        <time>2017-11-13T09:01:19Z</time>
      </trkpt>
      <trkpt lat="43.9332" lon="5.34068">
        <ele>320.26</ele>
        <time>2017-11-13T09:01:22Z</time>
      </trkpt>
      <trkpt lat="43.93322" lon="5.34068">
        <ele>318.81</ele>
        <time>2017-11-13T09:01:24Z</time>
      </trkpt>
      <trkpt lat="43.93334" lon="5.34068">
        <ele>320.26</ele>
        <time>2017-11-13T09:01:35Z</time>
      </trkpt>
      <trkpt lat="43.93346" lon="5.34067">
        <ele>318.33</ele>
        <time>2017-11-13T09:01:46Z</time>
      </trkpt>
      <trkpt lat="43.93359" lon="5.34068">
        <ele>318.33</ele>
        <time>2017-11-13T09:01:59Z</time>
      </trkpt>
      <trkpt lat="43.93381" lon="5.34072">
        <ele>317.85</ele>
        <time>2017-11-13T09:02:19Z</time>
      </trkpt>
      <trkpt lat="43.93394" lon="5.34075">
        <ele>317.37</ele>
        <time>2017-11-13T09:02:30Z</time>
      </trkpt>
      <trkpt lat="43.93402" lon="5.34076">
        <ele>318.81</ele>
        <time>2017-11-13T09:02:37Z</time>
      </trkpt>
      <trkpt lat="43.93413" lon="5.34076">
        <ele>316.89</ele>
        <time>2017-11-13T09:02:50Z</time>
      </trkpt>
      <trkpt lat="43.93413" lon="5.34076">
        <ele>318.33</ele>
        <time>2017-11-13T09:02:53Z</time>
      </trkpt>
      <trkpt lat="43.93421" lon="5.34076">
        <ele>318.33</ele>
        <time>2017-11-13T09:03:08Z</time>
      </trkpt>
      <trkpt lat="43.93429" lon="5.34076">
        <ele>317.37</ele>
        <time>2017-11-13T09:03:15Z</time>
      </trkpt>
      <trkpt lat="43.93433" lon="5.34076">
        <ele>318.81</ele>
        <time>2017-11-13T09:03:19Z</time>
      </trkpt>
      <trkpt lat="43.93436" lon="5.34076">
        <ele>316.89</ele>
        <time>2017-11-13T09:03:21Z</time>
      </trkpt>
      <trkpt lat="43.9344" lon="5.34076">
        <ele>319.3</ele>
        <time>2017-11-13T09:03:25Z</time>
      </trkpt>
      <trkpt lat="43.93449" lon="5.34076">
        <ele>316.89</ele>
        <time>2017-11-13T09:03:33Z</time>
      </trkpt>
      <trkpt lat="43.93453" lon="5.34076">
        <ele>319.78</ele>
        <time>2017-11-13T09:03:36Z</time>
      </trkpt>
      <trkpt lat="43.93454" lon="5.34076">
        <ele>318.33</ele>
        <time>2017-11-13T09:03:37Z</time>
      </trkpt>
      <trkpt lat="43.93463" lon="5.34076">
        <ele>318.81</ele>
        <time>2017-11-13T09:03:45Z</time>
      </trkpt>
      <trkpt lat="43.93469" lon="5.34076">
        <ele>319.78</ele>
        <time>2017-11-13T09:03:51Z</time>
      </trkpt>
      <trkpt lat="43.93475" lon="5.34076">
        <ele>319.3</ele>
        <time>2017-11-13T09:03:57Z</time>
      </trkpt>
      <trkpt lat="43.93487" lon="5.34076">
        <ele>317.85</ele>
        <time>2017-11-13T09:04:07Z</time>
      </trkpt>
      <trkpt lat="43.93504" lon="5.34077">
        <ele>324.58</ele>
        <time>2017-11-13T09:04:25Z</time>
      </trkpt>
      <trkpt lat="43.93505" lon="5.34077">
        <ele>324.58</ele>
        <time>2017-11-13T09:04:26Z</time>
      </trkpt>
      <trkpt lat="43.93506" lon="5.34077">
        <ele>321.22</ele>
        <time>2017-11-13T09:04:27Z</time>
      </trkpt>
      <trkpt lat="43.93509" lon="5.34078">
        <ele>319.3</ele>
        <time>2017-11-13T09:04:30Z</time>
      </trkpt>
      <trkpt lat="43.93519" lon="5.3408">
        <ele>320.26</ele>
        <time>2017-11-13T09:04:39Z</time>
      </trkpt>
      <trkpt lat="43.93542" lon="5.34086">
        <ele>320.26</ele>
        <time>2017-11-13T09:05:00Z</time>
      </trkpt>
      <trkpt lat="43.93544" lon="5.34086">
        <ele>321.7</ele>
        <time>2017-11-13T09:05:02Z</time>
      </trkpt>
      <trkpt lat="43.93551" lon="5.34087">
        <ele>321.22</ele>
        <time>2017-11-13T09:05:09Z</time>
      </trkpt>
      <trkpt lat="43.93558" lon="5.34087">
        <ele>323.14</ele>
        <time>2017-11-13T09:05:18Z</time>
      </trkpt>
      <trkpt lat="43.9356" lon="5.34087">
        <ele>321.7</ele>
        <time>2017-11-13T09:05:20Z</time>
      </trkpt>
      <trkpt lat="43.93561" lon="5.34088">
        <ele>321.7</ele>
        <time>2017-11-13T09:05:21Z</time>
      </trkpt>
      <trkpt lat="43.93577" lon="5.34097">
        <ele>323.62</ele>
        <time>2017-11-13T09:05:37Z</time>
      </trkpt>
      <trkpt lat="43.93578" lon="5.34099">
        <ele>322.18</ele>
        <time>2017-11-13T09:05:39Z</time>
      </trkpt>
      <trkpt lat="43.93584" lon="5.34121">
        <ele>321.22</ele>
        <time>2017-11-13T09:05:55Z</time>
      </trkpt>
      <trkpt lat="43.93594" lon="5.34137">
        <ele>320.74</ele>
        <time>2017-11-13T09:06:08Z</time>
      </trkpt>
      <trkpt lat="43.93597" lon="5.34141">
        <ele>323.14</ele>
        <time>2017-11-13T09:06:11Z</time>
      </trkpt>
      <trkpt lat="43.93608" lon="5.3415">
        <ele>325.06</ele>
        <time>2017-11-13T09:06:22Z</time>
      </trkpt>
      <trkpt lat="43.93611" lon="5.34151">
        <ele>322.18</ele>
        <time>2017-11-13T09:06:25Z</time>
      </trkpt>
      <trkpt lat="43.93615" lon="5.34154">
        <ele>323.14</ele>
        <time>2017-11-13T09:06:29Z</time>
      </trkpt>
      <trkpt lat="43.9363" lon="5.34163">
        <ele>322.66</ele>
        <time>2017-11-13T09:06:44Z</time>
      </trkpt>
      <trkpt lat="43.93632" lon="5.34165">
        <ele>325.54</ele>
        <time>2017-11-13T09:06:46Z</time>
      </trkpt>
      <trkpt lat="43.93634" lon="5.34166">
        <ele>324.1</ele>
        <time>2017-11-13T09:06:48Z</time>
      </trkpt>
      <trkpt lat="43.93658" lon="5.34175">
        <ele>323.62</ele>
        <time>2017-11-13T09:07:09Z</time>
      </trkpt>
      <trkpt lat="43.93675" lon="5.34177">
        <ele>325.06</ele>
        <time>2017-11-13T09:07:24Z</time>
      </trkpt>
      <trkpt lat="43.93699" lon="5.34185">
        <ele>323.62</ele>
        <time>2017-11-13T09:07:46Z</time>
      </trkpt>
      <trkpt lat="43.93714" lon="5.34186">
        <ele>325.06</ele>
        <time>2017-11-13T09:08:03Z</time>
      </trkpt>
      <trkpt lat="43.93716" lon="5.34179">
        <ele>325.06</ele>
        <time>2017-11-13T09:08:16Z</time>
      </trkpt>
      <trkpt lat="43.93716" lon="5.34178">
        <ele>324.1</ele>
        <time>2017-11-13T09:08:20Z</time>
      </trkpt>
      <trkpt lat="43.93716" lon="5.34178">
        <ele>323.62</ele>
        <time>2017-11-13T09:08:43Z</time>
      </trkpt>
      <trkpt lat="43.93715" lon="5.34179">
        <ele>322.66</ele>
        <time>2017-11-13T09:09:07Z</time>
      </trkpt>
      <trkpt lat="43.93714" lon="5.3418">
        <ele>322.66</ele>
        <time>2017-11-13T09:09:24Z</time>
      </trkpt>
      <trkpt lat="43.93714" lon="5.34183">
        <ele>322.18</ele>
        <time>2017-11-13T09:09:56Z</time>
      </trkpt>
      <trkpt lat="43.93712" lon="5.34179">
        <ele>322.18</ele>
        <time>2017-11-13T09:10:31Z</time>
      </trkpt>
      <trkpt lat="43.93712" lon="5.34179">
        <ele>323.62</ele>
        <time>2017-11-13T09:10:33Z</time>
      </trkpt>
      <trkpt lat="43.93712" lon="5.34178">
        <ele>322.18</ele>
        <time>2017-11-13T09:10:40Z</time>
      </trkpt>
      <trkpt lat="43.93711" lon="5.34179">
        <ele>321.7</ele>
        <time>2017-11-13T09:11:08Z</time>
      </trkpt>
      <trkpt lat="43.93711" lon="5.34179">
        <ele>323.62</ele>
        <time>2017-11-13T09:11:14Z</time>
      </trkpt>
      <trkpt lat="43.9371" lon="5.34179">
        <ele>322.18</ele>
        <time>2017-11-13T09:11:22Z</time>
      </trkpt>
      <trkpt lat="43.9371" lon="5.34179">
        <ele>322.66</ele>
        <time>2017-11-13T09:11:34Z</time>
      </trkpt>
      <trkpt lat="43.9371" lon="5.3418">
        <ele>322.18</ele>
        <time>2017-11-13T09:12:14Z</time>
      </trkpt>
      <trkpt lat="43.93712" lon="5.34179">
        <ele>323.14</ele>
        <time>2017-11-13T09:12:47Z</time>
      </trkpt>
      <trkpt lat="43.93711" lon="5.3418">
        <ele>322.66</ele>
        <time>2017-11-13T09:13:07Z</time>
      </trkpt>
      <trkpt lat="43.93711" lon="5.34182">
        <ele>321.22</ele>
        <time>2017-11-13T09:13:37Z</time>
      </trkpt>
      <trkpt lat="43.9371" lon="5.34181">
        <ele>321.7</ele>
        <time>2017-11-13T09:14:11Z</time>
      </trkpt>
      <trkpt lat="43.9371" lon="5.34179">
        <ele>319.3</ele>
        <time>2017-11-13T09:14:41Z</time>
      </trkpt>
      <trkpt lat="43.9371" lon="5.34179">
        <ele>320.74</ele>
        <time>2017-11-13T09:14:43Z</time>
      </trkpt>
      <trkpt lat="43.93709" lon="5.34182">
        <ele>321.7</ele>
        <time>2017-11-13T09:15:12Z</time>
      </trkpt>
      <trkpt lat="43.93709" lon="5.34183">
        <ele>321.7</ele>
        <time>2017-11-13T09:15:45Z</time>
      </trkpt>
      <trkpt lat="43.93709" lon="5.34182">
        <ele>321.22</ele>
        <time>2017-11-13T09:16:07Z</time>
      </trkpt>
      <trkpt lat="43.9371" lon="5.3418">
        <ele>319.78</ele>
        <time>2017-11-13T09:16:40Z</time>
      </trkpt>
      <trkpt lat="43.9371" lon="5.3418">
        <ele>321.22</ele>
        <time>2017-11-13T09:16:43Z</time>
      </trkpt>
      <trkpt lat="43.9371" lon="5.3418">
        <ele>320.74</ele>
        <time>2017-11-13T09:16:53Z</time>
      </trkpt>
      <trkpt lat="43.9371" lon="5.3418">
        <ele>322.18</ele>
        <time>2017-11-13T09:17:27Z</time>
      </trkpt>
      <trkpt lat="43.9371" lon="5.34179">
        <ele>321.22</ele>
        <time>2017-11-13T09:17:32Z</time>
      </trkpt>
      <trkpt lat="43.9371" lon="5.34179">
        <ele>322.66</ele>
        <time>2017-11-13T09:17:34Z</time>
      </trkpt>
      <trkpt lat="43.9371" lon="5.34179">
        <ele>321.22</ele>
        <time>2017-11-13T09:17:42Z</time>
      </trkpt>
      <trkpt lat="43.93711" lon="5.3418">
        <ele>321.7</ele>
        <time>2017-11-13T09:18:12Z</time>
      </trkpt>
      <trkpt lat="43.9371" lon="5.34182">
        <ele>324.1</ele>
        <time>2017-11-13T09:18:26Z</time>
      </trkpt>
      <trkpt lat="43.93709" lon="5.34182">
        <ele>322.66</ele>
        <time>2017-11-13T09:18:33Z</time>
      </trkpt>
      <trkpt lat="43.93709" lon="5.34184">
        <ele>322.66</ele>
        <time>2017-11-13T09:18:49Z</time>
      </trkpt>
      <trkpt lat="43.93709" lon="5.34183">
        <ele>321.7</ele>
        <time>2017-11-13T09:19:17Z</time>
      </trkpt>
      <trkpt lat="43.9371" lon="5.34186">
        <ele>322.18</ele>
        <time>2017-11-13T09:19:41Z</time>
      </trkpt>
      <trkpt lat="43.93709" lon="5.34186">
        <ele>322.18</ele>
        <time>2017-11-13T09:20:07Z</time>
      </trkpt>
      <trkpt lat="43.9371" lon="5.3419">
        <ele>322.66</ele>
        <time>2017-11-13T09:20:33Z</time>
      </trkpt>
      <trkpt lat="43.93722" lon="5.34195">
        <ele>323.62</ele>
        <time>2017-11-13T09:20:48Z</time>
      </trkpt>
      <trkpt lat="43.93729" lon="5.342">
        <ele>323.62</ele>
        <time>2017-11-13T09:20:57Z</time>
      </trkpt>
      <trkpt lat="43.93736" lon="5.34203">
        <ele>322.18</ele>
        <time>2017-11-13T09:21:12Z</time>
      </trkpt>
      <trkpt lat="43.93742" lon="5.34201">
        <ele>321.22</ele>
        <time>2017-11-13T09:21:18Z</time>
      </trkpt>
      <trkpt lat="43.93743" lon="5.342">
        <ele>325.06</ele>
        <time>2017-11-13T09:21:19Z</time>
      </trkpt>
      <trkpt lat="43.93759" lon="5.34194">
        <ele>325.06</ele>
        <time>2017-11-13T09:21:32Z</time>
      </trkpt>
      <trkpt lat="43.93775" lon="5.34174">
        <ele>323.14</ele>
        <time>2017-11-13T09:21:50Z</time>
      </trkpt>
      <trkpt lat="43.9378" lon="5.34166">
        <ele>324.58</ele>
        <time>2017-11-13T09:21:57Z</time>
      </trkpt>
      <trkpt lat="43.93783" lon="5.34159">
        <ele>322.66</ele>
        <time>2017-11-13T09:22:02Z</time>
      </trkpt>
      <trkpt lat="43.93788" lon="5.34148">
        <ele>321.22</ele>
        <time>2017-11-13T09:22:09Z</time>
      </trkpt>
      <trkpt lat="43.93792" lon="5.34142">
        <ele>323.62</ele>
        <time>2017-11-13T09:22:13Z</time>
      </trkpt>
      <trkpt lat="43.93812" lon="5.34132">
        <ele>325.54</ele>
        <time>2017-11-13T09:22:32Z</time>
      </trkpt>
      <trkpt lat="43.9382" lon="5.34135">
        <ele>326.02</ele>
        <time>2017-11-13T09:22:41Z</time>
      </trkpt>
      <trkpt lat="43.93835" lon="5.34135">
        <ele>325.06</ele>
        <time>2017-11-13T09:22:54Z</time>
      </trkpt>
      <trkpt lat="43.93855" lon="5.3413">
        <ele>325.06</ele>
        <time>2017-11-13T09:23:12Z</time>
      </trkpt>
      <trkpt lat="43.93878" lon="5.34123">
        <ele>326.02</ele>
        <time>2017-11-13T09:23:32Z</time>
      </trkpt>
      <trkpt lat="43.93879" lon="5.34123">
        <ele>326.02</ele>
        <time>2017-11-13T09:23:33Z</time>
      </trkpt>
      <trkpt lat="43.9389" lon="5.3412">
        <ele>326.99</ele>
        <time>2017-11-13T09:23:43Z</time>
      </trkpt>
      <trkpt lat="43.939" lon="5.34121">
        <ele>327.47</ele>
        <time>2017-11-13T09:24:02Z</time>
      </trkpt>
      <trkpt lat="43.93897" lon="5.34123">
        <ele>327.95</ele>
        <time>2017-11-13T09:24:33Z</time>
      </trkpt>
      <trkpt lat="43.93905" lon="5.34123">
        <ele>328.43</ele>
        <time>2017-11-13T09:24:52Z</time>
      </trkpt>
      <trkpt lat="43.93913" lon="5.34123">
        <ele>327.47</ele>
        <time>2017-11-13T09:25:06Z</time>
      </trkpt>
      <trkpt lat="43.93929" lon="5.34126">
        <ele>326.5</ele>
        <time>2017-11-13T09:25:23Z</time>
      </trkpt>
      <trkpt lat="43.93936" lon="5.34127">
        <ele>326.5</ele>
        <time>2017-11-13T09:25:29Z</time>
      </trkpt>
      <trkpt lat="43.93956" lon="5.34128">
        <ele>326.99</ele>
        <time>2017-11-13T09:25:46Z</time>
      </trkpt>
      <trkpt lat="43.93957" lon="5.34128">
        <ele>326.99</ele>
        <time>2017-11-13T09:25:47Z</time>
      </trkpt>
      <trkpt lat="43.93971" lon="5.34127">
        <ele>325.06</ele>
        <time>2017-11-13T09:26:03Z</time>
      </trkpt>
      <trkpt lat="43.93991" lon="5.34126">
        <ele>325.54</ele>
        <time>2017-11-13T09:26:22Z</time>
      </trkpt>
      <trkpt lat="43.93992" lon="5.34126">
        <ele>324.1</ele>
        <time>2017-11-13T09:26:23Z</time>
      </trkpt>
      <trkpt lat="43.93993" lon="5.34126">
        <ele>324.1</ele>
        <time>2017-11-13T09:26:24Z</time>
      </trkpt>
      <trkpt lat="43.93995" lon="5.34126">
        <ele>320.74</ele>
        <time>2017-11-13T09:26:26Z</time>
      </trkpt>
      <trkpt lat="43.93995" lon="5.34126">
        <ele>322.18</ele>
        <time>2017-11-13T09:26:27Z</time>
      </trkpt>
      <trkpt lat="43.94007" lon="5.3413">
        <ele>321.22</ele>
        <time>2017-11-13T09:26:38Z</time>
      </trkpt>
      <trkpt lat="43.94012" lon="5.34133">
        <ele>322.18</ele>
        <time>2017-11-13T09:26:43Z</time>
      </trkpt>
      <trkpt lat="43.94021" lon="5.34142">
        <ele>320.26</ele>
        <time>2017-11-13T09:26:55Z</time>
      </trkpt>
      <trkpt lat="43.94029" lon="5.34149">
        <ele>320.26</ele>
        <time>2017-11-13T09:27:04Z</time>
      </trkpt>
      <trkpt lat="43.94035" lon="5.34156">
        <ele>316.89</ele>
        <time>2017-11-13T09:27:18Z</time>
      </trkpt>
      <trkpt lat="43.94035" lon="5.34155">
        <ele>320.26</ele>
        <time>2017-11-13T09:27:23Z</time>
      </trkpt>
      <trkpt lat="43.94035" lon="5.34155">
        <ele>323.62</ele>
        <time>2017-11-13T09:27:27Z</time>
      </trkpt>
      <trkpt lat="43.94036" lon="5.34154">
        <ele>321.7</ele>
        <time>2017-11-13T09:27:30Z</time>
      </trkpt>
      <trkpt lat="43.94039" lon="5.34153">
        <ele>319.78</ele>
        <time>2017-11-13T09:27:35Z</time>
      </trkpt>
      <trkpt lat="43.94044" lon="5.34149">
        <ele>319.78</ele>
        <time>2017-11-13T09:27:46Z</time>
      </trkpt>
      <trkpt lat="43.94045" lon="5.34147">
        <ele>317.85</ele>
        <time>2017-11-13T09:27:48Z</time>
      </trkpt>
      <trkpt lat="43.94047" lon="5.34139">
        <ele>314.49</ele>
        <time>2017-11-13T09:27:55Z</time>
      </trkpt>
      <trkpt lat="43.94047" lon="5.34137">
        <ele>314.49</ele>
        <time>2017-11-13T09:27:56Z</time>
      </trkpt>
      <trkpt lat="43.94047" lon="5.34136">
        <ele>318.33</ele>
        <time>2017-11-13T09:27:57Z</time>
      </trkpt>
      <trkpt lat="43.94048" lon="5.34135">
        <ele>318.33</ele>
        <time>2017-11-13T09:27:58Z</time>
      </trkpt>
      <trkpt lat="43.94048" lon="5.34131">
        <ele>314.97</ele>
        <time>2017-11-13T09:28:01Z</time>
      </trkpt>
      <trkpt lat="43.94048" lon="5.34125">
        <ele>314.01</ele>
        <time>2017-11-13T09:28:07Z</time>
      </trkpt>
      <trkpt lat="43.94051" lon="5.34109">
        <ele>311.12</ele>
        <time>2017-11-13T09:28:22Z</time>
      </trkpt>
      <trkpt lat="43.94063" lon="5.34101">
        <ele>311.6</ele>
        <time>2017-11-13T09:28:38Z</time>
      </trkpt>
      <trkpt lat="43.94063" lon="5.34101">
        <ele>311.6</ele>
        <time>2017-11-13T09:28:39Z</time>
      </trkpt>
      <trkpt lat="43.94069" lon="5.341">
        <ele>309.68</ele>
        <time>2017-11-13T09:28:45Z</time>
      </trkpt>
      <trkpt lat="43.94072" lon="5.34099">
        <ele>311.12</ele>
        <time>2017-11-13T09:28:48Z</time>
      </trkpt>
      <trkpt lat="43.94079" lon="5.34098">
        <ele>308.72</ele>
        <time>2017-11-13T09:28:54Z</time>
      </trkpt>
      <trkpt lat="43.94082" lon="5.34098">
        <ele>307.76</ele>
        <time>2017-11-13T09:28:56Z</time>
      </trkpt>
      <trkpt lat="43.94088" lon="5.341">
        <ele>310.64</ele>
        <time>2017-11-13T09:29:02Z</time>
      </trkpt>
      <trkpt lat="43.94096" lon="5.34105">
        <ele>313.53</ele>
        <time>2017-11-13T09:29:09Z</time>
      </trkpt>
      <trkpt lat="43.941" lon="5.34107">
        <ele>310.64</ele>
        <time>2017-11-13T09:29:13Z</time>
      </trkpt>
      <trkpt lat="43.94118" lon="5.34117">
        <ele>310.64</ele>
        <time>2017-11-13T09:29:30Z</time>
      </trkpt>
      <trkpt lat="43.94141" lon="5.34118">
        <ele>308.72</ele>
        <time>2017-11-13T09:29:51Z</time>
      </trkpt>
      <trkpt lat="43.94158" lon="5.34116">
        <ele>306.8</ele>
        <time>2017-11-13T09:30:06Z</time>
      </trkpt>
      <trkpt lat="43.9416" lon="5.34116">
        <ele>310.16</ele>
        <time>2017-11-13T09:30:08Z</time>
      </trkpt>
      <trkpt lat="43.94169" lon="5.34115">
        <ele>307.28</ele>
        <time>2017-11-13T09:30:16Z</time>
      </trkpt>
      <trkpt lat="43.94175" lon="5.34115">
        <ele>310.16</ele>
        <time>2017-11-13T09:30:21Z</time>
      </trkpt>
      <trkpt lat="43.94178" lon="5.34115">
        <ele>309.2</ele>
        <time>2017-11-13T09:30:24Z</time>
      </trkpt>
      <trkpt lat="43.94197" lon="5.34112">
        <ele>306.32</ele>
        <time>2017-11-13T09:30:40Z</time>
      </trkpt>
      <trkpt lat="43.94199" lon="5.34112">
        <ele>309.2</ele>
        <time>2017-11-13T09:30:42Z</time>
      </trkpt>
      <trkpt lat="43.94202" lon="5.34111">
        <ele>310.64</ele>
        <time>2017-11-13T09:30:44Z</time>
      </trkpt>
      <trkpt lat="43.94205" lon="5.34111">
        <ele>308.72</ele>
        <time>2017-11-13T09:30:47Z</time>
      </trkpt>
      <trkpt lat="43.94207" lon="5.34111">
        <ele>305.36</ele>
        <time>2017-11-13T09:30:49Z</time>
      </trkpt>
      <trkpt lat="43.94208" lon="5.34111">
        <ele>305.36</ele>
        <time>2017-11-13T09:30:50Z</time>
      </trkpt>
      <trkpt lat="43.94209" lon="5.3411">
        <ele>309.2</ele>
        <time>2017-11-13T09:30:51Z</time>
      </trkpt>
      <trkpt lat="43.9421" lon="5.3411">
        <ele>309.2</ele>
        <time>2017-11-13T09:30:52Z</time>
      </trkpt>
      <trkpt lat="43.94216" lon="5.34109">
        <ele>311.12</ele>
        <time>2017-11-13T09:30:58Z</time>
      </trkpt>
      <trkpt lat="43.94228" lon="5.34107">
        <ele>310.64</ele>
        <time>2017-11-13T09:31:09Z</time>
      </trkpt>
      <trkpt lat="43.94245" lon="5.34104">
        <ele>311.12</ele>
        <time>2017-11-13T09:31:25Z</time>
      </trkpt>
      <trkpt lat="43.94247" lon="5.34103">
        <ele>312.09</ele>
        <time>2017-11-13T09:31:27Z</time>
      </trkpt>
      <trkpt lat="43.94253" lon="5.34103">
        <ele>314.01</ele>
        <time>2017-11-13T09:31:33Z</time>
      </trkpt>
      <trkpt lat="43.94256" lon="5.34102">
        <ele>310.64</ele>
        <time>2017-11-13T09:31:36Z</time>
      </trkpt>
      <trkpt lat="43.94258" lon="5.34101">
        <ele>310.16</ele>
        <time>2017-11-13T09:31:38Z</time>
      </trkpt>
      <trkpt lat="43.94261" lon="5.34101">
        <ele>312.57</ele>
        <time>2017-11-13T09:31:41Z</time>
      </trkpt>
      <trkpt lat="43.94265" lon="5.341">
        <ele>315.45</ele>
        <time>2017-11-13T09:31:45Z</time>
      </trkpt>
      <trkpt lat="43.94276" lon="5.34097">
        <ele>312.09</ele>
        <time>2017-11-13T09:31:57Z</time>
      </trkpt>
      <trkpt lat="43.94288" lon="5.34093">
        <ele>315.93</ele>
        <time>2017-11-13T09:32:09Z</time>
      </trkpt>
      <trkpt lat="43.9429" lon="5.34092">
        <ele>316.89</ele>
        <time>2017-11-13T09:32:11Z</time>
      </trkpt>
      <trkpt lat="43.9431" lon="5.34085">
        <ele>315.93</ele>
        <time>2017-11-13T09:32:30Z</time>
      </trkpt>
      <trkpt lat="43.94325" lon="5.34075">
        <ele>314.97</ele>
        <time>2017-11-13T09:32:45Z</time>
      </trkpt>
      <trkpt lat="43.94342" lon="5.34068">
        <ele>317.37</ele>
        <time>2017-11-13T09:33:02Z</time>
      </trkpt>
      <trkpt lat="43.94358" lon="5.34062">
        <ele>316.89</ele>
        <time>2017-11-13T09:33:19Z</time>
      </trkpt>
      <trkpt lat="43.94376" lon="5.34055">
        <ele>315.93</ele>
        <time>2017-11-13T09:33:37Z</time>
      </trkpt>
      <trkpt lat="43.94396" lon="5.34056">
        <ele>316.41</ele>
        <time>2017-11-13T09:33:56Z</time>
      </trkpt>
      <trkpt lat="43.94415" lon="5.34058">
        <ele>318.33</ele>
        <time>2017-11-13T09:34:15Z</time>
      </trkpt>
      <trkpt lat="43.9443" lon="5.34058">
        <ele>316.89</ele>
        <time>2017-11-13T09:34:30Z</time>
      </trkpt>
      <trkpt lat="43.94446" lon="5.34053">
        <ele>314.97</ele>
        <time>2017-11-13T09:34:48Z</time>
      </trkpt>
      <trkpt lat="43.94449" lon="5.34052">
        <ele>314.97</ele>
        <time>2017-11-13T09:34:50Z</time>
      </trkpt>
      <trkpt lat="43.94452" lon="5.34052">
        <ele>316.41</ele>
        <time>2017-11-13T09:34:53Z</time>
      </trkpt>
      <trkpt lat="43.9447" lon="5.34046">
        <ele>313.05</ele>
        <time>2017-11-13T09:35:10Z</time>
      </trkpt>
      <trkpt lat="43.94479" lon="5.34044">
        <ele>314.01</ele>
        <time>2017-11-13T09:35:17Z</time>
      </trkpt>
      <trkpt lat="43.94492" lon="5.34042">
        <ele>317.37</ele>
        <time>2017-11-13T09:35:28Z</time>
      </trkpt>
      <trkpt lat="43.94508" lon="5.34035">
        <ele>315.93</ele>
        <time>2017-11-13T09:35:44Z</time>
      </trkpt>
      <trkpt lat="43.9451" lon="5.34033">
        <ele>314.97</ele>
        <time>2017-11-13T09:35:47Z</time>
      </trkpt>
      <trkpt lat="43.94514" lon="5.34028">
        <ele>316.41</ele>
        <time>2017-11-13T09:35:53Z</time>
      </trkpt>
      <trkpt lat="43.94531" lon="5.34006">
        <ele>317.85</ele>
        <time>2017-11-13T09:36:14Z</time>
      </trkpt>
      <trkpt lat="43.94543" lon="5.33994">
        <ele>319.78</ele>
        <time>2017-11-13T09:36:29Z</time>
      </trkpt>
      <trkpt lat="43.9455" lon="5.33989">
        <ele>318.33</ele>
        <time>2017-11-13T09:36:37Z</time>
      </trkpt>
      <trkpt lat="43.94566" lon="5.33974">
        <ele>320.26</ele>
        <time>2017-11-13T09:36:53Z</time>
      </trkpt>
      <trkpt lat="43.94573" lon="5.33968">
        <ele>323.14</ele>
        <time>2017-11-13T09:36:59Z</time>
      </trkpt>
      <trkpt lat="43.94582" lon="5.33957">
        <ele>319.78</ele>
        <time>2017-11-13T09:37:08Z</time>
      </trkpt>
      <trkpt lat="43.9459" lon="5.33948">
        <ele>321.22</ele>
        <time>2017-11-13T09:37:18Z</time>
      </trkpt>
      <trkpt lat="43.94592" lon="5.33947">
        <ele>321.22</ele>
        <time>2017-11-13T09:37:20Z</time>
      </trkpt>
      <trkpt lat="43.94605" lon="5.33935">
        <ele>321.7</ele>
        <time>2017-11-13T09:37:35Z</time>
      </trkpt>
      <trkpt lat="43.94619" lon="5.33927">
        <ele>321.22</ele>
        <time>2017-11-13T09:37:51Z</time>
      </trkpt>
      <trkpt lat="43.94621" lon="5.33926">
        <ele>319.78</ele>
        <time>2017-11-13T09:37:53Z</time>
      </trkpt>
      <trkpt lat="43.94634" lon="5.33921">
        <ele>318.81</ele>
        <time>2017-11-13T09:38:12Z</time>
      </trkpt>
      <trkpt lat="43.94642" lon="5.33918">
        <ele>318.33</ele>
        <time>2017-11-13T09:38:25Z</time>
      </trkpt>
      <trkpt lat="43.94645" lon="5.33902">
        <ele>317.85</ele>
        <time>2017-11-13T09:38:48Z</time>
      </trkpt>
      <trkpt lat="43.94644" lon="5.33906">
        <ele>317.85</ele>
        <time>2017-11-13T09:39:14Z</time>
      </trkpt>
      <trkpt lat="43.94656" lon="5.33905">
        <ele>316.89</ele>
        <time>2017-11-13T09:39:34Z</time>
      </trkpt>
      <trkpt lat="43.94668" lon="5.33911">
        <ele>317.85</ele>
        <time>2017-11-13T09:39:49Z</time>
      </trkpt>
      <trkpt lat="43.9467" lon="5.33914">
        <ele>315.93</ele>
        <time>2017-11-13T09:40:07Z</time>
      </trkpt>
      <trkpt lat="43.94675" lon="5.33913">
        <ele>318.33</ele>
        <time>2017-11-13T09:40:26Z</time>
      </trkpt>
      <trkpt lat="43.94676" lon="5.33911">
        <ele>316.41</ele>
        <time>2017-11-13T09:40:36Z</time>
      </trkpt>
      <trkpt lat="43.94673" lon="5.33904">
        <ele>318.81</ele>
        <time>2017-11-13T09:40:49Z</time>
      </trkpt>
      <trkpt lat="43.94672" lon="5.33894">
        <ele>320.74</ele>
        <time>2017-11-13T09:41:04Z</time>
      </trkpt>
      <trkpt lat="43.94666" lon="5.3389">
        <ele>319.78</ele>
        <time>2017-11-13T09:41:26Z</time>
      </trkpt>
      <trkpt lat="43.94666" lon="5.33894">
        <ele>319.78</ele>
        <time>2017-11-13T09:41:49Z</time>
      </trkpt>
      <trkpt lat="43.94666" lon="5.33905">
        <ele>318.81</ele>
        <time>2017-11-13T09:42:04Z</time>
      </trkpt>
      <trkpt lat="43.94667" lon="5.33913">
        <ele>316.89</ele>
        <time>2017-11-13T09:42:23Z</time>
      </trkpt>
      <trkpt lat="43.94674" lon="5.33918">
        <ele>315.45</ele>
        <time>2017-11-13T09:42:40Z</time>
      </trkpt>
      <trkpt lat="43.94678" lon="5.33917">
        <ele>317.37</ele>
        <time>2017-11-13T09:42:45Z</time>
      </trkpt>
      <trkpt lat="43.94692" lon="5.33914">
        <ele>319.3</ele>
        <time>2017-11-13T09:43:02Z</time>
      </trkpt>
      <trkpt lat="43.94712" lon="5.33909">
        <ele>318.81</ele>
        <time>2017-11-13T09:43:18Z</time>
      </trkpt>
      <trkpt lat="43.9473" lon="5.33896">
        <ele>319.3</ele>
        <time>2017-11-13T09:43:36Z</time>
      </trkpt>
      <trkpt lat="43.94741" lon="5.33884">
        <ele>319.78</ele>
        <time>2017-11-13T09:43:49Z</time>
      </trkpt>
      <trkpt lat="43.9475" lon="5.33878">
        <ele>320.26</ele>
        <time>2017-11-13T09:43:58Z</time>
      </trkpt>
      <trkpt lat="43.94765" lon="5.3387">
        <ele>319.78</ele>
        <time>2017-11-13T09:44:13Z</time>
      </trkpt>
      <trkpt lat="43.94771" lon="5.33869">
        <ele>318.81</ele>
        <time>2017-11-13T09:44:26Z</time>
      </trkpt>
      <trkpt lat="43.94788" lon="5.33872">
        <ele>318.81</ele>
        <time>2017-11-13T09:44:43Z</time>
      </trkpt>
      <trkpt lat="43.94806" lon="5.33871">
        <ele>318.81</ele>
        <time>2017-11-13T09:44:57Z</time>
      </trkpt>
      <trkpt lat="43.94817" lon="5.33867">
        <ele>319.78</ele>
        <time>2017-11-13T09:45:07Z</time>
      </trkpt>
      <trkpt lat="43.94827" lon="5.33864">
        <ele>320.26</ele>
        <time>2017-11-13T09:45:21Z</time>
      </trkpt>
      <trkpt lat="43.94845" lon="5.3386">
        <ele>320.26</ele>
        <time>2017-11-13T09:45:38Z</time>
      </trkpt>
      <trkpt lat="43.94861" lon="5.33858">
        <ele>320.26</ele>
        <time>2017-11-13T09:45:53Z</time>
      </trkpt>
      <trkpt lat="43.94865" lon="5.33857">
        <ele>320.26</ele>
        <time>2017-11-13T09:45:56Z</time>
      </trkpt>
      <trkpt lat="43.9487" lon="5.33856">
        <ele>318.81</ele>
        <time>2017-11-13T09:46:01Z</time>
      </trkpt>
      <trkpt lat="43.94873" lon="5.33855">
        <ele>320.74</ele>
        <time>2017-11-13T09:46:04Z</time>
      </trkpt>
      <trkpt lat="43.94883" lon="5.33852">
        <ele>320.74</ele>
        <time>2017-11-13T09:46:12Z</time>
      </trkpt>
      <trkpt lat="43.94898" lon="5.3384">
        <ele>320.26</ele>
        <time>2017-11-13T09:46:27Z</time>
      </trkpt>
      <trkpt lat="43.94911" lon="5.33825">
        <ele>322.18</ele>
        <time>2017-11-13T09:46:41Z</time>
      </trkpt>
      <trkpt lat="43.94923" lon="5.33816">
        <ele>321.22</ele>
        <time>2017-11-13T09:46:55Z</time>
      </trkpt>
      <trkpt lat="43.94924" lon="5.33815">
        <ele>321.22</ele>
        <time>2017-11-13T09:46:56Z</time>
      </trkpt>
      <trkpt lat="43.94938" lon="5.33806">
        <ele>320.26</ele>
        <time>2017-11-13T09:47:10Z</time>
      </trkpt>
      <trkpt lat="43.9494" lon="5.33804">
        <ele>321.7</ele>
        <time>2017-11-13T09:47:13Z</time>
      </trkpt>
      <trkpt lat="43.94955" lon="5.33796">
        <ele>323.14</ele>
        <time>2017-11-13T09:47:28Z</time>
      </trkpt>
      <trkpt lat="43.94958" lon="5.33795">
        <ele>323.14</ele>
        <time>2017-11-13T09:47:31Z</time>
      </trkpt>
      <trkpt lat="43.94975" lon="5.33786">
        <ele>323.14</ele>
        <time>2017-11-13T09:47:47Z</time>
      </trkpt>
      <trkpt lat="43.9499" lon="5.33775">
        <ele>323.14</ele>
        <time>2017-11-13T09:48:04Z</time>
      </trkpt>
      <trkpt lat="43.94996" lon="5.33772">
        <ele>323.14</ele>
        <time>2017-11-13T09:48:09Z</time>
      </trkpt>
      <trkpt lat="43.94997" lon="5.33771">
        <ele>323.14</ele>
        <time>2017-11-13T09:48:10Z</time>
      </trkpt>
      <trkpt lat="43.9501" lon="5.33768">
        <ele>320.26</ele>
        <time>2017-11-13T09:48:25Z</time>
      </trkpt>
      <trkpt lat="43.95011" lon="5.33768">
        <ele>323.62</ele>
        <time>2017-11-13T09:48:26Z</time>
      </trkpt>
      <trkpt lat="43.95011" lon="5.33767">
        <ele>323.62</ele>
        <time>2017-11-13T09:48:27Z</time>
      </trkpt>
      <trkpt lat="43.95026" lon="5.33761">
        <ele>325.54</ele>
        <time>2017-11-13T09:48:43Z</time>
      </trkpt>
      <trkpt lat="43.95036" lon="5.33754">
        <ele>327.95</ele>
        <time>2017-11-13T09:48:55Z</time>
      </trkpt>
      <trkpt lat="43.95051" lon="5.33746">
        <ele>329.39</ele>
        <time>2017-11-13T09:49:13Z</time>
      </trkpt>
      <trkpt lat="43.95053" lon="5.33746">
        <ele>330.35</ele>
        <time>2017-11-13T09:49:15Z</time>
      </trkpt>
      <trkpt lat="43.95058" lon="5.33746">
        <ele>329.87</ele>
        <time>2017-11-13T09:49:20Z</time>
      </trkpt>
      <trkpt lat="43.95061" lon="5.33746">
        <ele>328.91</ele>
        <time>2017-11-13T09:49:23Z</time>
      </trkpt>
      <trkpt lat="43.95064" lon="5.33747">
        <ele>330.35</ele>
        <time>2017-11-13T09:49:26Z</time>
      </trkpt>
      <trkpt lat="43.95076" lon="5.33749">
        <ele>330.35</ele>
        <time>2017-11-13T09:49:43Z</time>
      </trkpt>
      <trkpt lat="43.95083" lon="5.33752">
        <ele>328.91</ele>
        <time>2017-11-13T09:49:55Z</time>
      </trkpt>
      <trkpt lat="43.95099" lon="5.33755">
        <ele>327.47</ele>
        <time>2017-11-13T09:50:16Z</time>
      </trkpt>
      <trkpt lat="43.951" lon="5.33759">
        <ele>328.91</ele>
        <time>2017-11-13T09:50:33Z</time>
      </trkpt>
      <trkpt lat="43.95099" lon="5.3376">
        <ele>327.95</ele>
        <time>2017-11-13T09:50:52Z</time>
      </trkpt>
      <trkpt lat="43.95099" lon="5.33758">
        <ele>328.43</ele>
        <time>2017-11-13T09:50:57Z</time>
      </trkpt>
      <trkpt lat="43.951" lon="5.33757">
        <ele>328.91</ele>
        <time>2017-11-13T09:51:17Z</time>
      </trkpt>
      <trkpt lat="43.95109" lon="5.33759">
        <ele>326.5</ele>
        <time>2017-11-13T09:51:28Z</time>
      </trkpt>
      <trkpt lat="43.95124" lon="5.33762">
        <ele>326.5</ele>
        <time>2017-11-13T09:51:43Z</time>
      </trkpt>
      <trkpt lat="43.95141" lon="5.33764">
        <ele>327.95</ele>
        <time>2017-11-13T09:51:59Z</time>
      </trkpt>
      <trkpt lat="43.95152" lon="5.33766">
        <ele>326.99</ele>
        <time>2017-11-13T09:52:09Z</time>
      </trkpt>
      <trkpt lat="43.95161" lon="5.33768">
        <ele>328.91</ele>
        <time>2017-11-13T09:52:18Z</time>
      </trkpt>
      <trkpt lat="43.95178" lon="5.33775">
        <ele>330.35</ele>
        <time>2017-11-13T09:52:35Z</time>
      </trkpt>
      <trkpt lat="43.95187" lon="5.33797">
        <ele>328.91</ele>
        <time>2017-11-13T09:52:51Z</time>
      </trkpt>
      <trkpt lat="43.95192" lon="5.33805">
        <ele>328.43</ele>
        <time>2017-11-13T09:52:58Z</time>
      </trkpt>
      <trkpt lat="43.95199" lon="5.3381">
        <ele>329.39</ele>
        <time>2017-11-13T09:53:05Z</time>
      </trkpt>
      <trkpt lat="43.95212" lon="5.33819">
        <ele>329.87</ele>
        <time>2017-11-13T09:53:23Z</time>
      </trkpt>
      <trkpt lat="43.95218" lon="5.33823">
        <ele>329.39</ele>
        <time>2017-11-13T09:53:30Z</time>
      </trkpt>
      <trkpt lat="43.95223" lon="5.33827">
        <ele>330.83</ele>
        <time>2017-11-13T09:53:36Z</time>
      </trkpt>
      <trkpt lat="43.9524" lon="5.3384">
        <ele>330.83</ele>
        <time>2017-11-13T09:53:53Z</time>
      </trkpt>
      <trkpt lat="43.95252" lon="5.33852">
        <ele>330.83</ele>
        <time>2017-11-13T09:54:07Z</time>
      </trkpt>
      <trkpt lat="43.95259" lon="5.33855">
        <ele>330.83</ele>
        <time>2017-11-13T09:54:11Z</time>
      </trkpt>
      <trkpt lat="43.9526" lon="5.33857">
        <ele>330.83</ele>
        <time>2017-11-13T09:54:12Z</time>
      </trkpt>
      <trkpt lat="43.95261" lon="5.33858">
        <ele>333.23</ele>
        <time>2017-11-13T09:54:13Z</time>
      </trkpt>
      <trkpt lat="43.95262" lon="5.3386">
        <ele>331.79</ele>
        <time>2017-11-13T09:54:15Z</time>
      </trkpt>
      <trkpt lat="43.95274" lon="5.33877">
        <ele>331.79</ele>
        <time>2017-11-13T09:54:32Z</time>
      </trkpt>
      <trkpt lat="43.95287" lon="5.33893">
        <ele>332.75</ele>
        <time>2017-11-13T09:54:49Z</time>
      </trkpt>
      <trkpt lat="43.95301" lon="5.3391">
        <ele>331.31</ele>
        <time>2017-11-13T09:55:07Z</time>
      </trkpt>
      <trkpt lat="43.95312" lon="5.33918">
        <ele>329.39</ele>
        <time>2017-11-13T09:55:20Z</time>
      </trkpt>
      <trkpt lat="43.95322" lon="5.33925">
        <ele>330.83</ele>
        <time>2017-11-13T09:55:30Z</time>
      </trkpt>
      <trkpt lat="43.95338" lon="5.33935">
        <ele>332.75</ele>
        <time>2017-11-13T09:55:47Z</time>
      </trkpt>
      <trkpt lat="43.95351" lon="5.33944">
        <ele>333.23</ele>
        <time>2017-11-13T09:56:00Z</time>
      </trkpt>
      <trkpt lat="43.95369" lon="5.3395">
        <ele>334.68</ele>
        <time>2017-11-13T09:56:17Z</time>
      </trkpt>
      <trkpt lat="43.95373" lon="5.33953">
        <ele>333.23</ele>
        <time>2017-11-13T09:56:21Z</time>
      </trkpt>
      <trkpt lat="43.95381" lon="5.33962">
        <ele>335.16</ele>
        <time>2017-11-13T09:56:32Z</time>
      </trkpt>
      <trkpt lat="43.95384" lon="5.33963">
        <ele>333.71</ele>
        <time>2017-11-13T09:56:34Z</time>
      </trkpt>
      <trkpt lat="43.95406" lon="5.33971">
        <ele>332.75</ele>
        <time>2017-11-13T09:56:50Z</time>
      </trkpt>
      <trkpt lat="43.95411" lon="5.33971">
        <ele>334.2</ele>
        <time>2017-11-13T09:56:54Z</time>
      </trkpt>
      <trkpt lat="43.95434" lon="5.33967">
        <ele>335.64</ele>
        <time>2017-11-13T09:57:13Z</time>
      </trkpt>
      <trkpt lat="43.95454" lon="5.3396">
        <ele>337.08</ele>
        <time>2017-11-13T09:57:30Z</time>
      </trkpt>
      <trkpt lat="43.95468" lon="5.33963">
        <ele>338.04</ele>
        <time>2017-11-13T09:57:46Z</time>
      </trkpt>
      <trkpt lat="43.95479" lon="5.33964">
        <ele>336.6</ele>
        <time>2017-11-13T09:58:02Z</time>
      </trkpt>
      <trkpt lat="43.95479" lon="5.33964">
        <ele>336.6</ele>
        <time>2017-11-13T09:58:03Z</time>
      </trkpt>
      <trkpt lat="43.95482" lon="5.3396">
        <ele>337.08</ele>
        <time>2017-11-13T09:58:23Z</time>
      </trkpt>
      <trkpt lat="43.95482" lon="5.3396">
        <ele>337.08</ele>
        <time>2017-11-13T09:58:42Z</time>
      </trkpt>
      <trkpt lat="43.95482" lon="5.33959">
        <ele>333.23</ele>
        <time>2017-11-13T09:58:46Z</time>
      </trkpt>
      <trkpt lat="43.95482" lon="5.33959">
        <ele>338.04</ele>
        <time>2017-11-13T09:58:47Z</time>
      </trkpt>
      <trkpt lat="43.95492" lon="5.33958">
        <ele>337.08</ele>
        <time>2017-11-13T09:59:03Z</time>
      </trkpt>
      <trkpt lat="43.95494" lon="5.33957">
        <ele>338.04</ele>
        <time>2017-11-13T09:59:05Z</time>
      </trkpt>
      <trkpt lat="43.95509" lon="5.33959">
        <ele>337.56</ele>
        <time>2017-11-13T09:59:22Z</time>
      </trkpt>
      <trkpt lat="43.95516" lon="5.3397">
        <ele>338.52</ele>
        <time>2017-11-13T09:59:32Z</time>
      </trkpt>
      <trkpt lat="43.95524" lon="5.33974">
        <ele>337.56</ele>
        <time>2017-11-13T09:59:43Z</time>
      </trkpt>
      <trkpt lat="43.95538" lon="5.33972">
        <ele>339</ele>
        <time>2017-11-13T10:00:00Z</time>
      </trkpt>
      <trkpt lat="43.95548" lon="5.33958">
        <ele>340.92</ele>
        <time>2017-11-13T10:00:17Z</time>
      </trkpt>
      <trkpt lat="43.95549" lon="5.33957">
        <ele>340.92</ele>
        <time>2017-11-13T10:00:18Z</time>
      </trkpt>
      <trkpt lat="43.95562" lon="5.33945">
        <ele>340.92</ele>
        <time>2017-11-13T10:00:33Z</time>
      </trkpt>
      <trkpt lat="43.95576" lon="5.3393">
        <ele>341.89</ele>
        <time>2017-11-13T10:00:50Z</time>
      </trkpt>
      <trkpt lat="43.95586" lon="5.3392">
        <ele>342.85</ele>
        <time>2017-11-13T10:01:03Z</time>
      </trkpt>
      <trkpt lat="43.956" lon="5.33902">
        <ele>342.37</ele>
        <time>2017-11-13T10:01:21Z</time>
      </trkpt>
      <trkpt lat="43.95613" lon="5.33891">
        <ele>343.81</ele>
        <time>2017-11-13T10:01:36Z</time>
      </trkpt>
      <trkpt lat="43.95623" lon="5.33881">
        <ele>344.77</ele>
        <time>2017-11-13T10:01:50Z</time>
      </trkpt>
      <trkpt lat="43.95625" lon="5.33879">
        <ele>342.85</ele>
        <time>2017-11-13T10:01:54Z</time>
      </trkpt>
      <trkpt lat="43.95635" lon="5.33872">
        <ele>344.29</ele>
        <time>2017-11-13T10:02:04Z</time>
      </trkpt>
      <trkpt lat="43.9565" lon="5.33865">
        <ele>344.77</ele>
        <time>2017-11-13T10:02:19Z</time>
      </trkpt>
      <trkpt lat="43.9566" lon="5.33855">
        <ele>346.69</ele>
        <time>2017-11-13T10:02:33Z</time>
      </trkpt>
      <trkpt lat="43.95669" lon="5.33844">
        <ele>347.65</ele>
        <time>2017-11-13T10:02:47Z</time>
      </trkpt>
      <trkpt lat="43.95681" lon="5.33832">
        <ele>349.1</ele>
        <time>2017-11-13T10:03:03Z</time>
      </trkpt>
      <trkpt lat="43.95694" lon="5.33821">
        <ele>347.65</ele>
        <time>2017-11-13T10:03:18Z</time>
      </trkpt>
      <trkpt lat="43.95708" lon="5.33808">
        <ele>350.54</ele>
        <time>2017-11-13T10:03:35Z</time>
      </trkpt>
      <trkpt lat="43.95724" lon="5.33801">
        <ele>351.5</ele>
        <time>2017-11-13T10:03:53Z</time>
      </trkpt>
      <trkpt lat="43.95739" lon="5.33793">
        <ele>351.98</ele>
        <time>2017-11-13T10:04:10Z</time>
      </trkpt>
      <trkpt lat="43.95754" lon="5.33782">
        <ele>351.5</ele>
        <time>2017-11-13T10:04:25Z</time>
      </trkpt>
      <trkpt lat="43.95763" lon="5.33776">
        <ele>352.46</ele>
        <time>2017-11-13T10:04:35Z</time>
      </trkpt>
      <trkpt lat="43.95777" lon="5.33765">
        <ele>351.5</ele>
        <time>2017-11-13T10:04:51Z</time>
      </trkpt>
      <trkpt lat="43.95786" lon="5.33756">
        <ele>351.02</ele>
        <time>2017-11-13T10:05:02Z</time>
      </trkpt>
      <trkpt lat="43.9579" lon="5.33753">
        <ele>352.46</ele>
        <time>2017-11-13T10:05:06Z</time>
      </trkpt>
      <trkpt lat="43.95805" lon="5.33742">
        <ele>351.02</ele>
        <time>2017-11-13T10:05:23Z</time>
      </trkpt>
      <trkpt lat="43.95821" lon="5.33739">
        <ele>350.06</ele>
        <time>2017-11-13T10:05:38Z</time>
      </trkpt>
      <trkpt lat="43.95829" lon="5.33736">
        <ele>351.98</ele>
        <time>2017-11-13T10:05:46Z</time>
      </trkpt>
      <trkpt lat="43.95839" lon="5.3373">
        <ele>352.46</ele>
        <time>2017-11-13T10:06:02Z</time>
      </trkpt>
      <trkpt lat="43.95839" lon="5.33728">
        <ele>349.58</ele>
        <time>2017-11-13T10:06:05Z</time>
      </trkpt>
      <trkpt lat="43.9584" lon="5.33727">
        <ele>352.94</ele>
        <time>2017-11-13T10:06:06Z</time>
      </trkpt>
      <trkpt lat="43.95844" lon="5.33727">
        <ele>351.5</ele>
        <time>2017-11-13T10:06:13Z</time>
      </trkpt>
      <trkpt lat="43.95849" lon="5.33727">
        <ele>353.9</ele>
        <time>2017-11-13T10:06:20Z</time>
      </trkpt>
      <trkpt lat="43.95857" lon="5.33724">
        <ele>352.94</ele>
        <time>2017-11-13T10:06:30Z</time>
      </trkpt>
      <trkpt lat="43.95866" lon="5.3372">
        <ele>352.94</ele>
        <time>2017-11-13T10:06:47Z</time>
      </trkpt>
      <trkpt lat="43.95878" lon="5.33715">
        <ele>353.9</ele>
        <time>2017-11-13T10:07:01Z</time>
      </trkpt>
      <trkpt lat="43.95887" lon="5.33713">
        <ele>353.42</ele>
        <time>2017-11-13T10:07:15Z</time>
      </trkpt>
      <trkpt lat="43.95899" lon="5.33707">
        <ele>354.86</ele>
        <time>2017-11-13T10:07:30Z</time>
      </trkpt>
      <trkpt lat="43.95901" lon="5.33703">
        <ele>356.79</ele>
        <time>2017-11-13T10:07:39Z</time>
      </trkpt>
      <trkpt lat="43.95906" lon="5.33696">
        <ele>355.83</ele>
        <time>2017-11-13T10:07:54Z</time>
      </trkpt>
      <trkpt lat="43.95911" lon="5.33687">
        <ele>358.71</ele>
        <time>2017-11-13T10:08:09Z</time>
      </trkpt>
      <trkpt lat="43.95912" lon="5.33676">
        <ele>360.15</ele>
        <time>2017-11-13T10:08:22Z</time>
      </trkpt>
      <trkpt lat="43.95911" lon="5.33668">
        <ele>363.04</ele>
        <time>2017-11-13T10:08:37Z</time>
      </trkpt>
      <trkpt lat="43.9592" lon="5.33667">
        <ele>365.44</ele>
        <time>2017-11-13T10:08:48Z</time>
      </trkpt>
      <trkpt lat="43.95922" lon="5.33666">
        <ele>365.44</ele>
        <time>2017-11-13T10:08:49Z</time>
      </trkpt>
      <trkpt lat="43.95928" lon="5.33662">
        <ele>364</ele>
        <time>2017-11-13T10:08:57Z</time>
      </trkpt>
      <trkpt lat="43.95929" lon="5.33661">
        <ele>365.44</ele>
        <time>2017-11-13T10:08:59Z</time>
      </trkpt>
      <trkpt lat="43.95931" lon="5.33657">
        <ele>364.96</ele>
        <time>2017-11-13T10:09:05Z</time>
      </trkpt>
      <trkpt lat="43.95934" lon="5.33653">
        <ele>365.92</ele>
        <time>2017-11-13T10:09:10Z</time>
      </trkpt>
      <trkpt lat="43.95943" lon="5.33649">
        <ele>366.88</ele>
        <time>2017-11-13T10:09:24Z</time>
      </trkpt>
      <trkpt lat="43.9595" lon="5.3364">
        <ele>368.32</ele>
        <time>2017-11-13T10:09:36Z</time>
      </trkpt>
      <trkpt lat="43.9596" lon="5.33637">
        <ele>369.76</ele>
        <time>2017-11-13T10:09:51Z</time>
      </trkpt>
      <trkpt lat="43.95974" lon="5.33636">
        <ele>369.76</ele>
        <time>2017-11-13T10:10:08Z</time>
      </trkpt>
      <trkpt lat="43.95989" lon="5.33631">
        <ele>370.73</ele>
        <time>2017-11-13T10:10:27Z</time>
      </trkpt>
      <trkpt lat="43.95998" lon="5.33629">
        <ele>373.61</ele>
        <time>2017-11-13T10:10:36Z</time>
      </trkpt>
      <trkpt lat="43.96011" lon="5.33624">
        <ele>374.57</ele>
        <time>2017-11-13T10:10:52Z</time>
      </trkpt>
      <trkpt lat="43.96023" lon="5.33622">
        <ele>377.45</ele>
        <time>2017-11-13T10:11:08Z</time>
      </trkpt>
      <trkpt lat="43.96032" lon="5.33614">
        <ele>378.42</ele>
        <time>2017-11-13T10:11:25Z</time>
      </trkpt>
      <trkpt lat="43.96039" lon="5.3361">
        <ele>381.78</ele>
        <time>2017-11-13T10:11:38Z</time>
      </trkpt>
      <trkpt lat="43.96038" lon="5.33609">
        <ele>381.78</ele>
        <time>2017-11-13T10:11:39Z</time>
      </trkpt>
      <trkpt lat="43.96037" lon="5.33608">
        <ele>380.82</ele>
        <time>2017-11-13T10:11:46Z</time>
      </trkpt>
      <trkpt lat="43.96036" lon="5.33608">
        <ele>382.26</ele>
        <time>2017-11-13T10:11:50Z</time>
      </trkpt>
      <trkpt lat="43.96043" lon="5.33605">
        <ele>383.22</ele>
        <time>2017-11-13T10:12:07Z</time>
      </trkpt>
      <trkpt lat="43.96049" lon="5.33601">
        <ele>385.15</ele>
        <time>2017-11-13T10:12:21Z</time>
      </trkpt>
      <trkpt lat="43.9605" lon="5.33596">
        <ele>387.07</ele>
        <time>2017-11-13T10:12:29Z</time>
      </trkpt>
      <trkpt lat="43.96048" lon="5.33592">
        <ele>386.11</ele>
        <time>2017-11-13T10:12:42Z</time>
      </trkpt>
      <trkpt lat="43.96047" lon="5.33591">
        <ele>386.59</ele>
        <time>2017-11-13T10:12:51Z</time>
      </trkpt>
      <trkpt lat="43.96047" lon="5.3359">
        <ele>386.59</ele>
        <time>2017-11-13T10:13:06Z</time>
      </trkpt>
      <trkpt lat="43.96045" lon="5.3359">
        <ele>387.55</ele>
        <time>2017-11-13T10:13:27Z</time>
      </trkpt>
      <trkpt lat="43.96037" lon="5.33596">
        <ele>389.47</ele>
        <time>2017-11-13T10:13:39Z</time>
      </trkpt>
      <trkpt lat="43.96039" lon="5.33588">
        <ele>391.39</ele>
        <time>2017-11-13T10:13:52Z</time>
      </trkpt>
      <trkpt lat="43.96044" lon="5.33584">
        <ele>389.95</ele>
        <time>2017-11-13T10:14:02Z</time>
      </trkpt>
      <trkpt lat="43.96048" lon="5.33581">
        <ele>392.84</ele>
        <time>2017-11-13T10:14:09Z</time>
      </trkpt>
      <trkpt lat="43.96058" lon="5.33576">
        <ele>394.76</ele>
        <time>2017-11-13T10:14:25Z</time>
      </trkpt>
      <trkpt lat="43.96065" lon="5.33568">
        <ele>396.68</ele>
        <time>2017-11-13T10:14:40Z</time>
      </trkpt>
      <trkpt lat="43.96074" lon="5.33561">
        <ele>397.16</ele>
        <time>2017-11-13T10:14:55Z</time>
      </trkpt>
      <trkpt lat="43.96085" lon="5.33552">
        <ele>397.64</ele>
        <time>2017-11-13T10:15:10Z</time>
      </trkpt>
      <trkpt lat="43.96087" lon="5.33549">
        <ele>399.08</ele>
        <time>2017-11-13T10:15:14Z</time>
      </trkpt>
      <trkpt lat="43.96096" lon="5.3354">
        <ele>401.49</ele>
        <time>2017-11-13T10:15:28Z</time>
      </trkpt>
      <trkpt lat="43.96104" lon="5.33531">
        <ele>403.41</ele>
        <time>2017-11-13T10:15:43Z</time>
      </trkpt>
      <trkpt lat="43.96111" lon="5.33522">
        <ele>405.33</ele>
        <time>2017-11-13T10:15:56Z</time>
      </trkpt>
      <trkpt lat="43.96122" lon="5.33512">
        <ele>406.29</ele>
        <time>2017-11-13T10:16:12Z</time>
      </trkpt>
      <trkpt lat="43.96131" lon="5.335">
        <ele>407.74</ele>
        <time>2017-11-13T10:16:29Z</time>
      </trkpt>
      <trkpt lat="43.96136" lon="5.33496">
        <ele>409.66</ele>
        <time>2017-11-13T10:16:37Z</time>
      </trkpt>
      <trkpt lat="43.96146" lon="5.33484">
        <ele>410.62</ele>
        <time>2017-11-13T10:16:54Z</time>
      </trkpt>
      <trkpt lat="43.96152" lon="5.33478">
        <ele>412.54</ele>
        <time>2017-11-13T10:17:07Z</time>
      </trkpt>
      <trkpt lat="43.9615" lon="5.33476">
        <ele>412.54</ele>
        <time>2017-11-13T10:17:32Z</time>
      </trkpt>
      <trkpt lat="43.96149" lon="5.3348">
        <ele>411.1</ele>
        <time>2017-11-13T10:17:55Z</time>
      </trkpt>
      <trkpt lat="43.96148" lon="5.33481">
        <ele>414.95</ele>
        <time>2017-11-13T10:17:56Z</time>
      </trkpt>
      <trkpt lat="43.96148" lon="5.33482">
        <ele>412.06</ele>
        <time>2017-11-13T10:17:59Z</time>
      </trkpt>
      <trkpt lat="43.96143" lon="5.33483">
        <ele>413.02</ele>
        <time>2017-11-13T10:18:14Z</time>
      </trkpt>
      <trkpt lat="43.96141" lon="5.33484">
        <ele>413.02</ele>
        <time>2017-11-13T10:18:18Z</time>
      </trkpt>
      <trkpt lat="43.96133" lon="5.33485">
        <ele>416.39</ele>
        <time>2017-11-13T10:18:33Z</time>
      </trkpt>
      <trkpt lat="43.96132" lon="5.3348">
        <ele>416.87</ele>
        <time>2017-11-13T10:18:47Z</time>
      </trkpt>
      <trkpt lat="43.96133" lon="5.33479">
        <ele>418.79</ele>
        <time>2017-11-13T10:18:50Z</time>
      </trkpt>
      <trkpt lat="43.96138" lon="5.33472">
        <ele>421.19</ele>
        <time>2017-11-13T10:19:05Z</time>
      </trkpt>
      <trkpt lat="43.96138" lon="5.33471">
        <ele>422.16</ele>
        <time>2017-11-13T10:19:07Z</time>
      </trkpt>
      <trkpt lat="43.96143" lon="5.33463">
        <ele>423.6</ele>
        <time>2017-11-13T10:19:22Z</time>
      </trkpt>
      <trkpt lat="43.96146" lon="5.33458">
        <ele>427.44</ele>
        <time>2017-11-13T10:19:35Z</time>
      </trkpt>
      <trkpt lat="43.96147" lon="5.33458">
        <ele>427.44</ele>
        <time>2017-11-13T10:19:36Z</time>
      </trkpt>
      <trkpt lat="43.96152" lon="5.33449">
        <ele>429.37</ele>
        <time>2017-11-13T10:19:52Z</time>
      </trkpt>
      <trkpt lat="43.96158" lon="5.3344">
        <ele>428.4</ele>
        <time>2017-11-13T10:20:05Z</time>
      </trkpt>
      <trkpt lat="43.96169" lon="5.33434">
        <ele>429.85</ele>
        <time>2017-11-13T10:20:22Z</time>
      </trkpt>
      <trkpt lat="43.96169" lon="5.33433">
        <ele>428.4</ele>
        <time>2017-11-13T10:20:23Z</time>
      </trkpt>
      <trkpt lat="43.96168" lon="5.33431">
        <ele>429.85</ele>
        <time>2017-11-13T10:20:24Z</time>
      </trkpt>
      <trkpt lat="43.96167" lon="5.33433">
        <ele>430.81</ele>
        <time>2017-11-13T10:20:37Z</time>
      </trkpt>
      <trkpt lat="43.96168" lon="5.3343">
        <ele>430.81</ele>
        <time>2017-11-13T10:20:51Z</time>
      </trkpt>
      <trkpt lat="43.96167" lon="5.3343">
        <ele>430.81</ele>
        <time>2017-11-13T10:20:52Z</time>
      </trkpt>
      <trkpt lat="43.96161" lon="5.3343">
        <ele>432.25</ele>
        <time>2017-11-13T10:21:06Z</time>
      </trkpt>
      <trkpt lat="43.96156" lon="5.33432">
        <ele>434.65</ele>
        <time>2017-11-13T10:21:20Z</time>
      </trkpt>
      <trkpt lat="43.9615" lon="5.33428">
        <ele>437.06</ele>
        <time>2017-11-13T10:21:37Z</time>
      </trkpt>
      <trkpt lat="43.96147" lon="5.33425">
        <ele>437.54</ele>
        <time>2017-11-13T10:21:51Z</time>
      </trkpt>
      <trkpt lat="43.96145" lon="5.33429">
        <ele>439.94</ele>
        <time>2017-11-13T10:22:04Z</time>
      </trkpt>
      <trkpt lat="43.96148" lon="5.33426">
        <ele>438.98</ele>
        <time>2017-11-13T10:22:27Z</time>
      </trkpt>
      <trkpt lat="43.96148" lon="5.33426">
        <ele>438.98</ele>
        <time>2017-11-13T10:22:37Z</time>
      </trkpt>
      <trkpt lat="43.96147" lon="5.33422">
        <ele>442.82</ele>
        <time>2017-11-13T10:22:39Z</time>
      </trkpt>
      <trkpt lat="43.96139" lon="5.33423">
        <ele>442.82</ele>
        <time>2017-11-13T10:22:53Z</time>
      </trkpt>
      <trkpt lat="43.96134" lon="5.33417">
        <ele>445.71</ele>
        <time>2017-11-13T10:23:11Z</time>
      </trkpt>
      <trkpt lat="43.96131" lon="5.33412">
        <ele>446.67</ele>
        <time>2017-11-13T10:23:26Z</time>
      </trkpt>
      <trkpt lat="43.96127" lon="5.3341">
        <ele>449.07</ele>
        <time>2017-11-13T10:23:41Z</time>
      </trkpt>
      <trkpt lat="43.96125" lon="5.33408">
        <ele>450.03</ele>
        <time>2017-11-13T10:23:56Z</time>
      </trkpt>
      <trkpt lat="43.96125" lon="5.33407">
        <ele>446.67</ele>
        <time>2017-11-13T10:23:57Z</time>
      </trkpt>
      <trkpt lat="43.96124" lon="5.33409">
        <ele>454.36</ele>
        <time>2017-11-13T10:23:59Z</time>
      </trkpt>
      <trkpt lat="43.96124" lon="5.33409">
        <ele>449.55</ele>
        <time>2017-11-13T10:24:00Z</time>
      </trkpt>
      <trkpt lat="43.96123" lon="5.33415">
        <ele>450.03</ele>
        <time>2017-11-13T10:24:27Z</time>
      </trkpt>
      <trkpt lat="43.96125" lon="5.33409">
        <ele>448.59</ele>
        <time>2017-11-13T10:24:52Z</time>
      </trkpt>
      <trkpt lat="43.96125" lon="5.33409">
        <ele>454.36</ele>
        <time>2017-11-13T10:24:54Z</time>
      </trkpt>
      <trkpt lat="43.96125" lon="5.3341">
        <ele>450.03</ele>
        <time>2017-11-13T10:24:55Z</time>
      </trkpt>
      <trkpt lat="43.96122" lon="5.33412">
        <ele>450.52</ele>
        <time>2017-11-13T10:25:20Z</time>
      </trkpt>
      <trkpt lat="43.96118" lon="5.33409">
        <ele>452.92</ele>
        <time>2017-11-13T10:25:37Z</time>
      </trkpt>
      <trkpt lat="43.96117" lon="5.33409">
        <ele>451.48</ele>
        <time>2017-11-13T10:25:39Z</time>
      </trkpt>
      <trkpt lat="43.96114" lon="5.33408">
        <ele>454.36</ele>
        <time>2017-11-13T10:25:54Z</time>
      </trkpt>
      <trkpt lat="43.96113" lon="5.334">
        <ele>456.28</ele>
        <time>2017-11-13T10:26:08Z</time>
      </trkpt>
      <trkpt lat="43.96118" lon="5.33391">
        <ele>457.72</ele>
        <time>2017-11-13T10:26:22Z</time>
      </trkpt>
      <trkpt lat="43.96115" lon="5.33387">
        <ele>460.61</ele>
        <time>2017-11-13T10:26:35Z</time>
      </trkpt>
      <trkpt lat="43.9611" lon="5.33386">
        <ele>463.01</ele>
        <time>2017-11-13T10:26:52Z</time>
      </trkpt>
      <trkpt lat="43.96104" lon="5.33385">
        <ele>464.45</ele>
        <time>2017-11-13T10:27:05Z</time>
      </trkpt>
      <trkpt lat="43.96098" lon="5.33381">
        <ele>466.86</ele>
        <time>2017-11-13T10:27:18Z</time>
      </trkpt>
      <trkpt lat="43.96099" lon="5.33376">
        <ele>467.34</ele>
        <time>2017-11-13T10:27:27Z</time>
      </trkpt>
      <trkpt lat="43.96101" lon="5.33366">
        <ele>470.22</ele>
        <time>2017-11-13T10:27:38Z</time>
      </trkpt>
      <trkpt lat="43.96101" lon="5.33364">
        <ele>468.3</ele>
        <time>2017-11-13T10:27:40Z</time>
      </trkpt>
      <trkpt lat="43.96101" lon="5.33363">
        <ele>469.26</ele>
        <time>2017-11-13T10:27:43Z</time>
      </trkpt>
      <trkpt lat="43.96101" lon="5.33363">
        <ele>470.22</ele>
        <time>2017-11-13T10:27:45Z</time>
      </trkpt>
      <trkpt lat="43.96103" lon="5.33362">
        <ele>470.7</ele>
        <time>2017-11-13T10:27:59Z</time>
      </trkpt>
      <trkpt lat="43.96103" lon="5.33363">
        <ele>469.26</ele>
        <time>2017-11-13T10:28:02Z</time>
      </trkpt>
      <trkpt lat="43.96103" lon="5.33361">
        <ele>472.63</ele>
        <time>2017-11-13T10:28:05Z</time>
      </trkpt>
      <trkpt lat="43.96103" lon="5.33362">
        <ele>471.18</ele>
        <time>2017-11-13T10:28:06Z</time>
      </trkpt>
      <trkpt lat="43.96103" lon="5.33362">
        <ele>470.22</ele>
        <time>2017-11-13T10:28:08Z</time>
      </trkpt>
      <trkpt lat="43.96104" lon="5.33354">
        <ele>469.74</ele>
        <time>2017-11-13T10:28:17Z</time>
      </trkpt>
      <trkpt lat="43.96104" lon="5.33351">
        <ele>468.3</ele>
        <time>2017-11-13T10:28:20Z</time>
      </trkpt>
      <trkpt lat="43.96104" lon="5.33349">
        <ele>470.22</ele>
        <time>2017-11-13T10:28:22Z</time>
      </trkpt>
      <trkpt lat="43.96105" lon="5.33344">
        <ele>468.3</ele>
        <time>2017-11-13T10:28:27Z</time>
      </trkpt>
      <trkpt lat="43.96105" lon="5.33341">
        <ele>471.18</ele>
        <time>2017-11-13T10:28:31Z</time>
      </trkpt>
      <trkpt lat="43.96104" lon="5.33333">
        <ele>472.14</ele>
        <time>2017-11-13T10:28:40Z</time>
      </trkpt>
      <trkpt lat="43.961" lon="5.33327">
        <ele>475.03</ele>
        <time>2017-11-13T10:28:54Z</time>
      </trkpt>
      <trkpt lat="43.96097" lon="5.33323">
        <ele>476.95</ele>
        <time>2017-11-13T10:29:06Z</time>
      </trkpt>
      <trkpt lat="43.96096" lon="5.33322">
        <ele>477.91</ele>
        <time>2017-11-13T10:29:21Z</time>
      </trkpt>
      <trkpt lat="43.96095" lon="5.33317">
        <ele>478.87</ele>
        <time>2017-11-13T10:29:35Z</time>
      </trkpt>
      <trkpt lat="43.9609" lon="5.33316">
        <ele>480.32</ele>
        <time>2017-11-13T10:29:47Z</time>
      </trkpt>
      <trkpt lat="43.96085" lon="5.33321">
        <ele>483.2</ele>
        <time>2017-11-13T10:29:58Z</time>
      </trkpt>
      <trkpt lat="43.96077" lon="5.33324">
        <ele>485.6</ele>
        <time>2017-11-13T10:30:13Z</time>
      </trkpt>
      <trkpt lat="43.96069" lon="5.33335">
        <ele>487.53</ele>
        <time>2017-11-13T10:30:30Z</time>
      </trkpt>
      <trkpt lat="43.96069" lon="5.33327">
        <ele>488.97</ele>
        <time>2017-11-13T10:30:43Z</time>
      </trkpt>
      <trkpt lat="43.96068" lon="5.3332">
        <ele>490.41</ele>
        <time>2017-11-13T10:30:55Z</time>
      </trkpt>
      <trkpt lat="43.96069" lon="5.33307">
        <ele>492.33</ele>
        <time>2017-11-13T10:31:10Z</time>
      </trkpt>
      <trkpt lat="43.96069" lon="5.33301">
        <ele>491.37</ele>
        <time>2017-11-13T10:31:18Z</time>
      </trkpt>
      <trkpt lat="43.9607" lon="5.33299">
        <ele>492.81</ele>
        <time>2017-11-13T10:31:20Z</time>
      </trkpt>
      <trkpt lat="43.96072" lon="5.33284">
        <ele>494.26</ele>
        <time>2017-11-13T10:31:35Z</time>
      </trkpt>
      <trkpt lat="43.96073" lon="5.3328">
        <ele>492.81</ele>
        <time>2017-11-13T10:31:38Z</time>
      </trkpt>
      <trkpt lat="43.96073" lon="5.33277">
        <ele>494.26</ele>
        <time>2017-11-13T10:31:41Z</time>
      </trkpt>
      <trkpt lat="43.96072" lon="5.33267">
        <ele>494.26</ele>
        <time>2017-11-13T10:31:54Z</time>
      </trkpt>
      <trkpt lat="43.9607" lon="5.33265">
        <ele>497.62</ele>
        <time>2017-11-13T10:32:05Z</time>
      </trkpt>
      <trkpt lat="43.96064" lon="5.33268">
        <ele>498.58</ele>
        <time>2017-11-13T10:32:20Z</time>
      </trkpt>
      <trkpt lat="43.96061" lon="5.3326">
        <ele>500.02</ele>
        <time>2017-11-13T10:32:32Z</time>
      </trkpt>
      <trkpt lat="43.96059" lon="5.33253">
        <ele>500.98</ele>
        <time>2017-11-13T10:32:41Z</time>
      </trkpt>
      <trkpt lat="43.96057" lon="5.33242">
        <ele>502.91</ele>
        <time>2017-11-13T10:32:55Z</time>
      </trkpt>
      <trkpt lat="43.96056" lon="5.33227">
        <ele>504.83</ele>
        <time>2017-11-13T10:33:09Z</time>
      </trkpt>
      <trkpt lat="43.96056" lon="5.3322">
        <ele>503.39</ele>
        <time>2017-11-13T10:33:17Z</time>
      </trkpt>
      <trkpt lat="43.96053" lon="5.33213">
        <ele>504.83</ele>
        <time>2017-11-13T10:33:26Z</time>
      </trkpt>
      <trkpt lat="43.96046" lon="5.33202">
        <ele>507.71</ele>
        <time>2017-11-13T10:33:43Z</time>
      </trkpt>
      <trkpt lat="43.9604" lon="5.33198">
        <ele>511.56</ele>
        <time>2017-11-13T10:33:59Z</time>
      </trkpt>
      <trkpt lat="43.9604" lon="5.33199">
        <ele>511.56</ele>
        <time>2017-11-13T10:34:00Z</time>
      </trkpt>
      <trkpt lat="43.9604" lon="5.332">
        <ele>510.12</ele>
        <time>2017-11-13T10:34:01Z</time>
      </trkpt>
      <trkpt lat="43.96042" lon="5.33201">
        <ele>510.12</ele>
        <time>2017-11-13T10:34:18Z</time>
      </trkpt>
      <trkpt lat="43.96042" lon="5.33199">
        <ele>511.08</ele>
        <time>2017-11-13T10:34:39Z</time>
      </trkpt>
      <trkpt lat="43.96042" lon="5.33199">
        <ele>509.64</ele>
        <time>2017-11-13T10:34:52Z</time>
      </trkpt>
      <trkpt lat="43.96042" lon="5.33201">
        <ele>511.08</ele>
        <time>2017-11-13T10:35:10Z</time>
      </trkpt>
      <trkpt lat="43.96042" lon="5.332">
        <ele>509.64</ele>
        <time>2017-11-13T10:35:27Z</time>
      </trkpt>
      <trkpt lat="43.96042" lon="5.332">
        <ele>511.08</ele>
        <time>2017-11-13T10:35:34Z</time>
      </trkpt>
      <trkpt lat="43.96042" lon="5.33198">
        <ele>509.64</ele>
        <time>2017-11-13T10:35:37Z</time>
      </trkpt>
      <trkpt lat="43.96042" lon="5.33198">
        <ele>510.6</ele>
        <time>2017-11-13T10:35:46Z</time>
      </trkpt>
      <trkpt lat="43.96042" lon="5.33202">
        <ele>511.08</ele>
        <time>2017-11-13T10:36:05Z</time>
      </trkpt>
      <trkpt lat="43.96042" lon="5.33205">
        <ele>511.08</ele>
        <time>2017-11-13T10:36:16Z</time>
      </trkpt>
      <trkpt lat="43.96043" lon="5.33211">
        <ele>511.08</ele>
        <time>2017-11-13T10:36:20Z</time>
      </trkpt>
      <trkpt lat="43.96043" lon="5.33221">
        <ele>509.64</ele>
        <time>2017-11-13T10:36:26Z</time>
      </trkpt>
      <trkpt lat="43.96043" lon="5.33222">
        <ele>511.08</ele>
        <time>2017-11-13T10:36:35Z</time>
      </trkpt>
      <trkpt lat="43.96044" lon="5.33208">
        <ele>512.04</ele>
        <time>2017-11-13T10:36:49Z</time>
      </trkpt>
      <trkpt lat="43.96043" lon="5.33206">
        <ele>510.12</ele>
        <time>2017-11-13T10:37:03Z</time>
      </trkpt>
      <trkpt lat="43.96042" lon="5.33207">
        <ele>511.56</ele>
        <time>2017-11-13T10:37:29Z</time>
      </trkpt>
      <trkpt lat="43.96042" lon="5.33206">
        <ele>508.67</ele>
        <time>2017-11-13T10:37:33Z</time>
      </trkpt>
      <trkpt lat="43.96041" lon="5.33203">
        <ele>511.08</ele>
        <time>2017-11-13T10:37:35Z</time>
      </trkpt>
      <trkpt lat="43.96042" lon="5.33212">
        <ele>512.52</ele>
        <time>2017-11-13T10:38:00Z</time>
      </trkpt>
      <trkpt lat="43.96042" lon="5.33213">
        <ele>512.52</ele>
        <time>2017-11-13T10:38:01Z</time>
      </trkpt>
      <trkpt lat="43.96045" lon="5.33234">
        <ele>512.52</ele>
        <time>2017-11-13T10:38:19Z</time>
      </trkpt>
      <trkpt lat="43.96042" lon="5.33256">
        <ele>514.44</ele>
        <time>2017-11-13T10:38:37Z</time>
      </trkpt>
      <trkpt lat="43.96042" lon="5.33257">
        <ele>513</ele>
        <time>2017-11-13T10:38:39Z</time>
      </trkpt>
      <trkpt lat="43.96034" lon="5.3327">
        <ele>513.48</ele>
        <time>2017-11-13T10:38:57Z</time>
      </trkpt>
      <trkpt lat="43.96034" lon="5.33271">
        <ele>513.48</ele>
        <time>2017-11-13T10:38:58Z</time>
      </trkpt>
      <trkpt lat="43.9603" lon="5.33278">
        <ele>515.4</ele>
        <time>2017-11-13T10:39:05Z</time>
      </trkpt>
      <trkpt lat="43.96018" lon="5.33298">
        <ele>518.29</ele>
        <time>2017-11-13T10:39:25Z</time>
      </trkpt>
      <trkpt lat="43.96011" lon="5.33305">
        <ele>517.33</ele>
        <time>2017-11-13T10:39:39Z</time>
      </trkpt>
      <trkpt lat="43.95995" lon="5.3331">
        <ele>519.25</ele>
        <time>2017-11-13T10:39:56Z</time>
      </trkpt>
      <trkpt lat="43.95987" lon="5.33315">
        <ele>518.77</ele>
        <time>2017-11-13T10:40:04Z</time>
      </trkpt>
      <trkpt lat="43.95974" lon="5.33324">
        <ele>518.29</ele>
        <time>2017-11-13T10:40:18Z</time>
      </trkpt>
      <trkpt lat="43.95971" lon="5.33325">
        <ele>519.73</ele>
        <time>2017-11-13T10:40:21Z</time>
      </trkpt>
      <trkpt lat="43.95966" lon="5.33327">
        <ele>523.09</ele>
        <time>2017-11-13T10:40:27Z</time>
      </trkpt>
      <trkpt lat="43.95965" lon="5.33327">
        <ele>523.09</ele>
        <time>2017-11-13T10:40:28Z</time>
      </trkpt>
      <trkpt lat="43.95963" lon="5.33329">
        <ele>521.65</ele>
        <time>2017-11-13T10:40:30Z</time>
      </trkpt>
      <trkpt lat="43.95951" lon="5.33335">
        <ele>523.58</ele>
        <time>2017-11-13T10:40:42Z</time>
      </trkpt>
      <trkpt lat="43.95949" lon="5.33337">
        <ele>522.13</ele>
        <time>2017-11-13T10:40:45Z</time>
      </trkpt>
      <trkpt lat="43.95936" lon="5.33342">
        <ele>523.09</ele>
        <time>2017-11-13T10:40:58Z</time>
      </trkpt>
      <trkpt lat="43.95931" lon="5.33344">
        <ele>521.65</ele>
        <time>2017-11-13T10:41:03Z</time>
      </trkpt>
      <trkpt lat="43.95928" lon="5.33345">
        <ele>520.21</ele>
        <time>2017-11-13T10:41:07Z</time>
      </trkpt>
      <trkpt lat="43.95926" lon="5.33346">
        <ele>523.58</ele>
        <time>2017-11-13T10:41:09Z</time>
      </trkpt>
      <trkpt lat="43.95925" lon="5.33346">
        <ele>523.58</ele>
        <time>2017-11-13T10:41:10Z</time>
      </trkpt>
      <trkpt lat="43.95917" lon="5.33348">
        <ele>524.54</ele>
        <time>2017-11-13T10:41:20Z</time>
      </trkpt>
      <trkpt lat="43.95911" lon="5.33348">
        <ele>525.98</ele>
        <time>2017-11-13T10:41:26Z</time>
      </trkpt>
      <trkpt lat="43.9591" lon="5.33349">
        <ele>524.54</ele>
        <time>2017-11-13T10:41:28Z</time>
      </trkpt>
      <trkpt lat="43.95906" lon="5.33349">
        <ele>525.98</ele>
        <time>2017-11-13T10:41:32Z</time>
      </trkpt>
      <trkpt lat="43.95895" lon="5.33351">
        <ele>527.42</ele>
        <time>2017-11-13T10:41:45Z</time>
      </trkpt>
      <trkpt lat="43.95893" lon="5.33351">
        <ele>526.94</ele>
        <time>2017-11-13T10:41:54Z</time>
      </trkpt>
      <trkpt lat="43.95883" lon="5.33351">
        <ele>527.9</ele>
        <time>2017-11-13T10:42:08Z</time>
      </trkpt>
      <trkpt lat="43.95877" lon="5.33351">
        <ele>526.46</ele>
        <time>2017-11-13T10:42:15Z</time>
      </trkpt>
      <trkpt lat="43.95866" lon="5.33352">
        <ele>529.34</ele>
        <time>2017-11-13T10:42:29Z</time>
      </trkpt>
      <trkpt lat="43.95865" lon="5.33352">
        <ele>530.3</ele>
        <time>2017-11-13T10:42:31Z</time>
      </trkpt>
      <trkpt lat="43.95856" lon="5.33353">
        <ele>532.23</ele>
        <time>2017-11-13T10:42:49Z</time>
      </trkpt>
      <trkpt lat="43.95856" lon="5.33354">
        <ele>529.82</ele>
        <time>2017-11-13T10:42:52Z</time>
      </trkpt>
      <trkpt lat="43.95856" lon="5.33354">
        <ele>531.27</ele>
        <time>2017-11-13T10:42:55Z</time>
      </trkpt>
      <trkpt lat="43.95855" lon="5.33353">
        <ele>530.3</ele>
        <time>2017-11-13T10:43:01Z</time>
      </trkpt>
      <trkpt lat="43.95855" lon="5.33354">
        <ele>531.27</ele>
        <time>2017-11-13T10:43:05Z</time>
      </trkpt>
      <trkpt lat="43.95854" lon="5.33355">
        <ele>530.3</ele>
        <time>2017-11-13T10:43:16Z</time>
      </trkpt>
      <trkpt lat="43.95854" lon="5.33356">
        <ele>531.75</ele>
        <time>2017-11-13T10:43:19Z</time>
      </trkpt>
      <trkpt lat="43.95846" lon="5.33353">
        <ele>533.67</ele>
        <time>2017-11-13T10:43:33Z</time>
      </trkpt>
      <trkpt lat="43.95843" lon="5.33353">
        <ele>530.79</ele>
        <time>2017-11-13T10:43:37Z</time>
      </trkpt>
      <trkpt lat="43.95841" lon="5.33352">
        <ele>532.23</ele>
        <time>2017-11-13T10:43:40Z</time>
      </trkpt>
      <trkpt lat="43.95829" lon="5.3335">
        <ele>536.07</ele>
        <time>2017-11-13T10:43:55Z</time>
      </trkpt>
      <trkpt lat="43.95814" lon="5.33351">
        <ele>538.96</ele>
        <time>2017-11-13T10:44:15Z</time>
      </trkpt>
      <trkpt lat="43.95801" lon="5.33351">
        <ele>540.88</ele>
        <time>2017-11-13T10:44:33Z</time>
      </trkpt>
      <trkpt lat="43.95794" lon="5.33353">
        <ele>543.76</ele>
        <time>2017-11-13T10:44:42Z</time>
      </trkpt>
      <trkpt lat="43.95791" lon="5.33354">
        <ele>542.32</ele>
        <time>2017-11-13T10:44:46Z</time>
      </trkpt>
      <trkpt lat="43.95785" lon="5.33356">
        <ele>543.76</ele>
        <time>2017-11-13T10:44:53Z</time>
      </trkpt>
      <trkpt lat="43.95768" lon="5.33361">
        <ele>544.24</ele>
        <time>2017-11-13T10:45:12Z</time>
      </trkpt>
      <trkpt lat="43.95757" lon="5.33365">
        <ele>544.24</ele>
        <time>2017-11-13T10:45:27Z</time>
      </trkpt>
      <trkpt lat="43.95757" lon="5.33364">
        <ele>546.17</ele>
        <time>2017-11-13T10:45:45Z</time>
      </trkpt>
      <trkpt lat="43.95758" lon="5.33364">
        <ele>547.13</ele>
        <time>2017-11-13T10:45:58Z</time>
      </trkpt>
      <trkpt lat="43.95752" lon="5.33368">
        <ele>545.69</ele>
        <time>2017-11-13T10:46:12Z</time>
      </trkpt>
      <trkpt lat="43.95745" lon="5.33364">
        <ele>547.13</ele>
        <time>2017-11-13T10:46:24Z</time>
      </trkpt>
      <trkpt lat="43.95741" lon="5.33356">
        <ele>545.69</ele>
        <time>2017-11-13T10:46:37Z</time>
      </trkpt>
      <trkpt lat="43.95741" lon="5.33355">
        <ele>547.13</ele>
        <time>2017-11-13T10:46:46Z</time>
      </trkpt>
      <trkpt lat="43.9574" lon="5.33353">
        <ele>547.13</ele>
        <time>2017-11-13T10:47:02Z</time>
      </trkpt>
      <trkpt lat="43.9574" lon="5.33352">
        <ele>546.17</ele>
        <time>2017-11-13T10:47:10Z</time>
      </trkpt>
      <trkpt lat="43.95739" lon="5.33349">
        <ele>548.09</ele>
        <time>2017-11-13T10:47:13Z</time>
      </trkpt>
      <trkpt lat="43.95735" lon="5.33347">
        <ele>546.65</ele>
        <time>2017-11-13T10:47:25Z</time>
      </trkpt>
      <trkpt lat="43.95735" lon="5.33347">
        <ele>548.09</ele>
        <time>2017-11-13T10:47:34Z</time>
      </trkpt>
      <trkpt lat="43.95735" lon="5.33346">
        <ele>546.17</ele>
        <time>2017-11-13T10:47:38Z</time>
      </trkpt>
      <trkpt lat="43.95735" lon="5.33344">
        <ele>553.38</ele>
        <time>2017-11-13T10:47:41Z</time>
      </trkpt>
      <trkpt lat="43.95735" lon="5.33343">
        <ele>548.57</ele>
        <time>2017-11-13T10:47:42Z</time>
      </trkpt>
      <trkpt lat="43.95732" lon="5.33324">
        <ele>545.69</ele>
        <time>2017-11-13T10:47:58Z</time>
      </trkpt>
      <trkpt lat="43.9573" lon="5.33317">
        <ele>549.05</ele>
        <time>2017-11-13T10:48:05Z</time>
      </trkpt>
      <trkpt lat="43.95726" lon="5.33312">
        <ele>546.65</ele>
        <time>2017-11-13T10:48:11Z</time>
      </trkpt>
      <trkpt lat="43.95719" lon="5.33306">
        <ele>544.24</ele>
        <time>2017-11-13T10:48:22Z</time>
      </trkpt>
      <trkpt lat="43.95717" lon="5.33306">
        <ele>545.69</ele>
        <time>2017-11-13T10:48:24Z</time>
      </trkpt>
      <trkpt lat="43.95716" lon="5.33305">
        <ele>543.28</ele>
        <time>2017-11-13T10:48:26Z</time>
      </trkpt>
      <trkpt lat="43.95707" lon="5.33304">
        <ele>542.8</ele>
        <time>2017-11-13T10:48:39Z</time>
      </trkpt>
      <trkpt lat="43.95702" lon="5.33305">
        <ele>542.8</ele>
        <time>2017-11-13T10:48:47Z</time>
      </trkpt>
      <trkpt lat="43.95693" lon="5.33305">
        <ele>539.44</ele>
        <time>2017-11-13T10:48:59Z</time>
      </trkpt>
      <trkpt lat="43.95686" lon="5.33307">
        <ele>540.4</ele>
        <time>2017-11-13T10:49:09Z</time>
      </trkpt>
      <trkpt lat="43.95675" lon="5.33308">
        <ele>538.48</ele>
        <time>2017-11-13T10:49:24Z</time>
      </trkpt>
      <trkpt lat="43.9567" lon="5.33308">
        <ele>537.99</ele>
        <time>2017-11-13T10:49:32Z</time>
      </trkpt>
      <trkpt lat="43.95658" lon="5.33309">
        <ele>534.15</ele>
        <time>2017-11-13T10:49:50Z</time>
      </trkpt>
      <trkpt lat="43.95647" lon="5.33308">
        <ele>533.67</ele>
        <time>2017-11-13T10:50:05Z</time>
      </trkpt>
      <trkpt lat="43.95643" lon="5.33307">
        <ele>531.75</ele>
        <time>2017-11-13T10:50:12Z</time>
      </trkpt>
      <trkpt lat="43.95639" lon="5.33305">
        <ele>533.19</ele>
        <time>2017-11-13T10:50:18Z</time>
      </trkpt>
      <trkpt lat="43.95638" lon="5.33304">
        <ele>531.75</ele>
        <time>2017-11-13T10:50:20Z</time>
      </trkpt>
      <trkpt lat="43.95629" lon="5.33298">
        <ele>529.82</ele>
        <time>2017-11-13T10:50:35Z</time>
      </trkpt>
      <trkpt lat="43.9562" lon="5.33291">
        <ele>527.9</ele>
        <time>2017-11-13T10:50:52Z</time>
      </trkpt>
      <trkpt lat="43.95613" lon="5.33285">
        <ele>527.9</ele>
        <time>2017-11-13T10:51:07Z</time>
      </trkpt>
      <trkpt lat="43.95612" lon="5.33284">
        <ele>527.9</ele>
        <time>2017-11-13T10:51:08Z</time>
      </trkpt>
      <trkpt lat="43.95611" lon="5.33282">
        <ele>526.94</ele>
        <time>2017-11-13T10:51:12Z</time>
      </trkpt>
      <trkpt lat="43.9561" lon="5.3328">
        <ele>524.54</ele>
        <time>2017-11-13T10:51:15Z</time>
      </trkpt>
      <trkpt lat="43.95608" lon="5.33277">
        <ele>526.46</ele>
        <time>2017-11-13T10:51:19Z</time>
      </trkpt>
      <trkpt lat="43.95607" lon="5.33276">
        <ele>523.09</ele>
        <time>2017-11-13T10:51:21Z</time>
      </trkpt>
      <trkpt lat="43.95605" lon="5.33273">
        <ele>524.06</ele>
        <time>2017-11-13T10:51:26Z</time>
      </trkpt>
      <trkpt lat="43.95601" lon="5.33268">
        <ele>521.65</ele>
        <time>2017-11-13T10:51:36Z</time>
      </trkpt>
      <trkpt lat="43.95594" lon="5.33259">
        <ele>522.61</ele>
        <time>2017-11-13T10:51:52Z</time>
      </trkpt>
      <trkpt lat="43.95589" lon="5.33248">
        <ele>519.25</ele>
        <time>2017-11-13T10:52:09Z</time>
      </trkpt>
      <trkpt lat="43.95584" lon="5.33242">
        <ele>521.17</ele>
        <time>2017-11-13T10:52:18Z</time>
      </trkpt>
      <trkpt lat="43.95582" lon="5.33241">
        <ele>519.25</ele>
        <time>2017-11-13T10:52:21Z</time>
      </trkpt>
      <trkpt lat="43.95572" lon="5.33237">
        <ele>516.37</ele>
        <time>2017-11-13T10:52:35Z</time>
      </trkpt>
      <trkpt lat="43.95568" lon="5.33236">
        <ele>518.29</ele>
        <time>2017-11-13T10:52:40Z</time>
      </trkpt>
      <trkpt lat="43.95567" lon="5.33236">
        <ele>515.88</ele>
        <time>2017-11-13T10:52:42Z</time>
      </trkpt>
      <trkpt lat="43.9556" lon="5.33234">
        <ele>518.29</ele>
        <time>2017-11-13T10:52:51Z</time>
      </trkpt>
      <trkpt lat="43.95558" lon="5.33233">
        <ele>516.85</ele>
        <time>2017-11-13T10:52:53Z</time>
      </trkpt>
      <trkpt lat="43.95548" lon="5.3323">
        <ele>514.44</ele>
        <time>2017-11-13T10:53:06Z</time>
      </trkpt>
      <trkpt lat="43.95542" lon="5.33226">
        <ele>515.4</ele>
        <time>2017-11-13T10:53:14Z</time>
      </trkpt>
      <trkpt lat="43.9554" lon="5.33225">
        <ele>513.96</ele>
        <time>2017-11-13T10:53:17Z</time>
      </trkpt>
      <trkpt lat="43.95534" lon="5.33223">
        <ele>515.4</ele>
        <time>2017-11-13T10:53:25Z</time>
      </trkpt>
      <trkpt lat="43.95532" lon="5.33222">
        <ele>513.96</ele>
        <time>2017-11-13T10:53:28Z</time>
      </trkpt>
      <trkpt lat="43.95525" lon="5.33219">
        <ele>512.04</ele>
        <time>2017-11-13T10:53:37Z</time>
      </trkpt>
      <trkpt lat="43.95522" lon="5.33216">
        <ele>513.48</ele>
        <time>2017-11-13T10:53:42Z</time>
      </trkpt>
      <trkpt lat="43.95521" lon="5.33216">
        <ele>512.04</ele>
        <time>2017-11-13T10:53:44Z</time>
      </trkpt>
      <trkpt lat="43.95519" lon="5.33215">
        <ele>515.4</ele>
        <time>2017-11-13T10:53:46Z</time>
      </trkpt>
      <trkpt lat="43.95518" lon="5.33215">
        <ele>512.04</ele>
        <time>2017-11-13T10:53:48Z</time>
      </trkpt>
      <trkpt lat="43.95517" lon="5.33215">
        <ele>512.04</ele>
        <time>2017-11-13T10:53:49Z</time>
      </trkpt>
      <trkpt lat="43.95514" lon="5.33214">
        <ele>509.64</ele>
        <time>2017-11-13T10:53:53Z</time>
      </trkpt>
      <trkpt lat="43.95512" lon="5.33213">
        <ele>511.56</ele>
        <time>2017-11-13T10:53:55Z</time>
      </trkpt>
      <trkpt lat="43.95505" lon="5.33212">
        <ele>509.64</ele>
        <time>2017-11-13T10:54:03Z</time>
      </trkpt>
      <trkpt lat="43.95498" lon="5.3321">
        <ele>511.56</ele>
        <time>2017-11-13T10:54:13Z</time>
      </trkpt>
      <trkpt lat="43.95497" lon="5.33209">
        <ele>509.64</ele>
        <time>2017-11-13T10:54:15Z</time>
      </trkpt>
      <trkpt lat="43.95494" lon="5.33208">
        <ele>507.71</ele>
        <time>2017-11-13T10:54:18Z</time>
      </trkpt>
      <trkpt lat="43.95493" lon="5.33207">
        <ele>511.08</ele>
        <time>2017-11-13T10:54:19Z</time>
      </trkpt>
      <trkpt lat="43.95492" lon="5.33206">
        <ele>506.75</ele>
        <time>2017-11-13T10:54:21Z</time>
      </trkpt>
      <trkpt lat="43.95491" lon="5.33205">
        <ele>506.75</ele>
        <time>2017-11-13T10:54:22Z</time>
      </trkpt>
      <trkpt lat="43.9549" lon="5.33205">
        <ele>508.67</ele>
        <time>2017-11-13T10:54:24Z</time>
      </trkpt>
      <trkpt lat="43.95485" lon="5.332">
        <ele>509.16</ele>
        <time>2017-11-13T10:54:31Z</time>
      </trkpt>
      <trkpt lat="43.95479" lon="5.33193">
        <ele>506.27</ele>
        <time>2017-11-13T10:54:40Z</time>
      </trkpt>
      <trkpt lat="43.95472" lon="5.33185">
        <ele>503.87</ele>
        <time>2017-11-13T10:54:54Z</time>
      </trkpt>
      <trkpt lat="43.95471" lon="5.33185">
        <ele>505.31</ele>
        <time>2017-11-13T10:54:56Z</time>
      </trkpt>
      <trkpt lat="43.95469" lon="5.33182">
        <ele>503.87</ele>
        <time>2017-11-13T10:55:03Z</time>
      </trkpt>
      <trkpt lat="43.95463" lon="5.33176">
        <ele>502.91</ele>
        <time>2017-11-13T10:55:14Z</time>
      </trkpt>
      <trkpt lat="43.95452" lon="5.33179">
        <ele>501.46</ele>
        <time>2017-11-13T10:55:30Z</time>
      </trkpt>
      <trkpt lat="43.95447" lon="5.33182">
        <ele>500.98</ele>
        <time>2017-11-13T10:55:42Z</time>
      </trkpt>
      <trkpt lat="43.95437" lon="5.33188">
        <ele>499.06</ele>
        <time>2017-11-13T10:55:59Z</time>
      </trkpt>
      <trkpt lat="43.95436" lon="5.33189">
        <ele>500.5</ele>
        <time>2017-11-13T10:56:01Z</time>
      </trkpt>
      <trkpt lat="43.95432" lon="5.33192">
        <ele>497.62</ele>
        <time>2017-11-13T10:56:08Z</time>
      </trkpt>
      <trkpt lat="43.95422" lon="5.33196">
        <ele>497.14</ele>
        <time>2017-11-13T10:56:25Z</time>
      </trkpt>
      <trkpt lat="43.95423" lon="5.33195">
        <ele>493.77</ele>
        <time>2017-11-13T10:56:34Z</time>
      </trkpt>
      <trkpt lat="43.95423" lon="5.33195">
        <ele>499.54</ele>
        <time>2017-11-13T10:56:35Z</time>
      </trkpt>
      <trkpt lat="43.95421" lon="5.33194">
        <ele>499.06</ele>
        <time>2017-11-13T10:56:40Z</time>
      </trkpt>
      <trkpt lat="43.95418" lon="5.33194">
        <ele>497.14</ele>
        <time>2017-11-13T10:56:43Z</time>
      </trkpt>
      <trkpt lat="43.95405" lon="5.33186">
        <ele>496.18</ele>
        <time>2017-11-13T10:57:01Z</time>
      </trkpt>
      <trkpt lat="43.9539" lon="5.33179">
        <ele>493.29</ele>
        <time>2017-11-13T10:57:20Z</time>
      </trkpt>
      <trkpt lat="43.95385" lon="5.3318">
        <ele>496.66</ele>
        <time>2017-11-13T10:57:28Z</time>
      </trkpt>
      <trkpt lat="43.95385" lon="5.3318">
        <ele>495.22</ele>
        <time>2017-11-13T10:57:29Z</time>
      </trkpt>
      <trkpt lat="43.95384" lon="5.33179">
        <ele>494.74</ele>
        <time>2017-11-13T10:57:31Z</time>
      </trkpt>
      <trkpt lat="43.9538" lon="5.33175">
        <ele>495.22</ele>
        <time>2017-11-13T10:57:36Z</time>
      </trkpt>
      <trkpt lat="43.95368" lon="5.33167">
        <ele>492.33</ele>
        <time>2017-11-13T10:57:52Z</time>
      </trkpt>
      <trkpt lat="43.95356" lon="5.33163">
        <ele>492.81</ele>
        <time>2017-11-13T10:58:08Z</time>
      </trkpt>
      <trkpt lat="43.95355" lon="5.33163">
        <ele>492.81</ele>
        <time>2017-11-13T10:58:09Z</time>
      </trkpt>
      <trkpt lat="43.95347" lon="5.3316">
        <ele>489.45</ele>
        <time>2017-11-13T10:58:20Z</time>
      </trkpt>
      <trkpt lat="43.95334" lon="5.33156">
        <ele>488.49</ele>
        <time>2017-11-13T10:58:38Z</time>
      </trkpt>
      <trkpt lat="43.95321" lon="5.33149">
        <ele>486.56</ele>
        <time>2017-11-13T10:58:56Z</time>
      </trkpt>
      <trkpt lat="43.95311" lon="5.33142">
        <ele>485.12</ele>
        <time>2017-11-13T10:59:11Z</time>
      </trkpt>
      <trkpt lat="43.95299" lon="5.33128">
        <ele>483.68</ele>
        <time>2017-11-13T10:59:30Z</time>
      </trkpt>
      <trkpt lat="43.95285" lon="5.33122">
        <ele>481.28</ele>
        <time>2017-11-13T10:59:48Z</time>
      </trkpt>
      <trkpt lat="43.95273" lon="5.33116">
        <ele>480.32</ele>
        <time>2017-11-13T11:00:05Z</time>
      </trkpt>
      <trkpt lat="43.95263" lon="5.33112">
        <ele>478.87</ele>
        <time>2017-11-13T11:00:19Z</time>
      </trkpt>
      <trkpt lat="43.95253" lon="5.33107">
        <ele>478.39</ele>
        <time>2017-11-13T11:00:35Z</time>
      </trkpt>
      <trkpt lat="43.95248" lon="5.33104">
        <ele>475.51</ele>
        <time>2017-11-13T11:00:43Z</time>
      </trkpt>
      <trkpt lat="43.95244" lon="5.33103">
        <ele>476.95</ele>
        <time>2017-11-13T11:00:47Z</time>
      </trkpt>
      <trkpt lat="43.95238" lon="5.33103">
        <ele>475.03</ele>
        <time>2017-11-13T11:00:57Z</time>
      </trkpt>
      <trkpt lat="43.95227" lon="5.33099">
        <ele>475.51</ele>
        <time>2017-11-13T11:01:14Z</time>
      </trkpt>
      <trkpt lat="43.95224" lon="5.33096">
        <ele>474.07</ele>
        <time>2017-11-13T11:01:24Z</time>
      </trkpt>
      <trkpt lat="43.95212" lon="5.33093">
        <ele>471.66</ele>
        <time>2017-11-13T11:01:41Z</time>
      </trkpt>
      <trkpt lat="43.95205" lon="5.33095">
        <ele>471.18</ele>
        <time>2017-11-13T11:01:52Z</time>
      </trkpt>
      <trkpt lat="43.95196" lon="5.33088">
        <ele>470.7</ele>
        <time>2017-11-13T11:02:07Z</time>
      </trkpt>
      <trkpt lat="43.95193" lon="5.33083">
        <ele>467.82</ele>
        <time>2017-11-13T11:02:15Z</time>
      </trkpt>
      <trkpt lat="43.95192" lon="5.33081">
        <ele>466.86</ele>
        <time>2017-11-13T11:02:17Z</time>
      </trkpt>
      <trkpt lat="43.95192" lon="5.33078">
        <ele>468.3</ele>
        <time>2017-11-13T11:02:20Z</time>
      </trkpt>
      <trkpt lat="43.95191" lon="5.33075">
        <ele>466.86</ele>
        <time>2017-11-13T11:02:24Z</time>
      </trkpt>
      <trkpt lat="43.95192" lon="5.33068">
        <ele>468.3</ele>
        <time>2017-11-13T11:02:30Z</time>
      </trkpt>
      <trkpt lat="43.95192" lon="5.33066">
        <ele>466.86</ele>
        <time>2017-11-13T11:02:32Z</time>
      </trkpt>
      <trkpt lat="43.95191" lon="5.33059">
        <ele>466.86</ele>
        <time>2017-11-13T11:02:38Z</time>
      </trkpt>
      <trkpt lat="43.95185" lon="5.33037">
        <ele>465.9</ele>
        <time>2017-11-13T11:02:57Z</time>
      </trkpt>
      <trkpt lat="43.9518" lon="5.33024">
        <ele>465.9</ele>
        <time>2017-11-13T11:03:14Z</time>
      </trkpt>
      <trkpt lat="43.95186" lon="5.33022">
        <ele>465.9</ele>
        <time>2017-11-13T11:03:27Z</time>
      </trkpt>
      <trkpt lat="43.95187" lon="5.33022">
        <ele>467.34</ele>
        <time>2017-11-13T11:03:29Z</time>
      </trkpt>
      <trkpt lat="43.9519" lon="5.33022">
        <ele>466.86</ele>
        <time>2017-11-13T11:03:48Z</time>
      </trkpt>
      <trkpt lat="43.9519" lon="5.33021">
        <ele>465.9</ele>
        <time>2017-11-13T11:04:00Z</time>
      </trkpt>
      <trkpt lat="43.95192" lon="5.3302">
        <ele>468.78</ele>
        <time>2017-11-13T11:04:15Z</time>
      </trkpt>
      <trkpt lat="43.95193" lon="5.3302">
        <ele>467.34</ele>
        <time>2017-11-13T11:04:17Z</time>
      </trkpt>
      <trkpt lat="43.95195" lon="5.3302">
        <ele>468.78</ele>
        <time>2017-11-13T11:04:20Z</time>
      </trkpt>
      <trkpt lat="43.95196" lon="5.33022">
        <ele>467.34</ele>
        <time>2017-11-13T11:04:32Z</time>
      </trkpt>
      <trkpt lat="43.95198" lon="5.33021">
        <ele>468.3</ele>
        <time>2017-11-13T11:04:42Z</time>
      </trkpt>
      <trkpt lat="43.95199" lon="5.33022">
        <ele>466.86</ele>
        <time>2017-11-13T11:04:44Z</time>
      </trkpt>
      <trkpt lat="43.95198" lon="5.33021">
        <ele>468.3</ele>
        <time>2017-11-13T11:04:47Z</time>
      </trkpt>
      <trkpt lat="43.95198" lon="5.33019">
        <ele>468.3</ele>
        <time>2017-11-13T11:05:09Z</time>
      </trkpt>
      <trkpt lat="43.95197" lon="5.3302">
        <ele>469.26</ele>
        <time>2017-11-13T11:05:32Z</time>
      </trkpt>
      <trkpt lat="43.95197" lon="5.3302">
        <ele>468.3</ele>
        <time>2017-11-13T11:05:38Z</time>
      </trkpt>
      <trkpt lat="43.95197" lon="5.33019">
        <ele>467.34</ele>
        <time>2017-11-13T11:05:54Z</time>
      </trkpt>
      <trkpt lat="43.95197" lon="5.3302">
        <ele>469.26</ele>
        <time>2017-11-13T11:05:56Z</time>
      </trkpt>
      <trkpt lat="43.95198" lon="5.33021">
        <ele>467.82</ele>
        <time>2017-11-13T11:05:59Z</time>
      </trkpt>
      <trkpt lat="43.95199" lon="5.33022">
        <ele>470.22</ele>
        <time>2017-11-13T11:06:01Z</time>
      </trkpt>
      <trkpt lat="43.95199" lon="5.33023">
        <ele>467.82</ele>
        <time>2017-11-13T11:06:03Z</time>
      </trkpt>
      <trkpt lat="43.95199" lon="5.33021">
        <ele>467.82</ele>
        <time>2017-11-13T11:06:21Z</time>
      </trkpt>
      <trkpt lat="43.95199" lon="5.33023">
        <ele>467.34</ele>
        <time>2017-11-13T11:06:42Z</time>
      </trkpt>
      <trkpt lat="43.95199" lon="5.33023">
        <ele>468.3</ele>
        <time>2017-11-13T11:06:46Z</time>
      </trkpt>
      <trkpt lat="43.95198" lon="5.33023">
        <ele>467.82</ele>
        <time>2017-11-13T11:06:58Z</time>
      </trkpt>
      <trkpt lat="43.95198" lon="5.33023">
        <ele>468.78</ele>
        <time>2017-11-13T11:07:04Z</time>
      </trkpt>
      <trkpt lat="43.95198" lon="5.33023">
        <ele>469.26</ele>
        <time>2017-11-13T11:07:39Z</time>
      </trkpt>
      <trkpt lat="43.95197" lon="5.33023">
        <ele>468.3</ele>
        <time>2017-11-13T11:08:20Z</time>
      </trkpt>
      <trkpt lat="43.95198" lon="5.33023">
        <ele>467.82</ele>
        <time>2017-11-13T11:08:39Z</time>
      </trkpt>
      <trkpt lat="43.95198" lon="5.33023">
        <ele>469.26</ele>
        <time>2017-11-13T11:08:43Z</time>
      </trkpt>
      <trkpt lat="43.95198" lon="5.33024">
        <ele>467.82</ele>
        <time>2017-11-13T11:09:08Z</time>
      </trkpt>
      <trkpt lat="43.95198" lon="5.33024">
        <ele>469.26</ele>
        <time>2017-11-13T11:09:17Z</time>
      </trkpt>
      <trkpt lat="43.95198" lon="5.33025">
        <ele>468.3</ele>
        <time>2017-11-13T11:09:31Z</time>
      </trkpt>
      <trkpt lat="43.95198" lon="5.33025">
        <ele>469.74</ele>
        <time>2017-11-13T11:09:35Z</time>
      </trkpt>
      <trkpt lat="43.95198" lon="5.33025">
        <ele>468.3</ele>
        <time>2017-11-13T11:09:39Z</time>
      </trkpt>
      <trkpt lat="43.95198" lon="5.33025">
        <ele>468.78</ele>
        <time>2017-11-13T11:09:59Z</time>
      </trkpt>
      <trkpt lat="43.95197" lon="5.33024">
        <ele>468.78</ele>
        <time>2017-11-13T11:10:35Z</time>
      </trkpt>
      <trkpt lat="43.95197" lon="5.33024">
        <ele>470.22</ele>
        <time>2017-11-13T11:10:40Z</time>
      </trkpt>
      <trkpt lat="43.95197" lon="5.33023">
        <ele>472.63</ele>
        <time>2017-11-13T11:11:14Z</time>
      </trkpt>
      <trkpt lat="43.95197" lon="5.33023">
        <ele>470.22</ele>
        <time>2017-11-13T11:11:22Z</time>
      </trkpt>
      <trkpt lat="43.95197" lon="5.33023">
        <ele>471.18</ele>
        <time>2017-11-13T11:11:36Z</time>
      </trkpt>
      <trkpt lat="43.95197" lon="5.33023">
        <ele>470.22</ele>
        <time>2017-11-13T11:11:39Z</time>
      </trkpt>
      <trkpt lat="43.95198" lon="5.33023">
        <ele>467.82</ele>
        <time>2017-11-13T11:12:03Z</time>
      </trkpt>
      <trkpt lat="43.95198" lon="5.33024">
        <ele>471.18</ele>
        <time>2017-11-13T11:12:10Z</time>
      </trkpt>
      <trkpt lat="43.95198" lon="5.33024">
        <ele>471.18</ele>
        <time>2017-11-13T11:12:11Z</time>
      </trkpt>
      <trkpt lat="43.95198" lon="5.33023">
        <ele>469.74</ele>
        <time>2017-11-13T11:12:17Z</time>
      </trkpt>
      <trkpt lat="43.95198" lon="5.33023">
        <ele>468.78</ele>
        <time>2017-11-13T11:12:58Z</time>
      </trkpt>
      <trkpt lat="43.95198" lon="5.33023">
        <ele>470.7</ele>
        <time>2017-11-13T11:13:01Z</time>
      </trkpt>
      <trkpt lat="43.95198" lon="5.33023">
        <ele>470.22</ele>
        <time>2017-11-13T11:13:08Z</time>
      </trkpt>
      <trkpt lat="43.95198" lon="5.33022">
        <ele>469.26</ele>
        <time>2017-11-13T11:13:44Z</time>
      </trkpt>
      <trkpt lat="43.95198" lon="5.3302">
        <ele>467.82</ele>
        <time>2017-11-13T11:14:20Z</time>
      </trkpt>
      <trkpt lat="43.95198" lon="5.3302">
        <ele>469.26</ele>
        <time>2017-11-13T11:14:23Z</time>
      </trkpt>
      <trkpt lat="43.95198" lon="5.3302">
        <ele>468.78</ele>
        <time>2017-11-13T11:14:40Z</time>
      </trkpt>
      <trkpt lat="43.95198" lon="5.33021">
        <ele>468.78</ele>
        <time>2017-11-13T11:15:12Z</time>
      </trkpt>
      <trkpt lat="43.95198" lon="5.33021">
        <ele>470.22</ele>
        <time>2017-11-13T11:15:17Z</time>
      </trkpt>
      <trkpt lat="43.95199" lon="5.33021">
        <ele>470.22</ele>
        <time>2017-11-13T11:15:32Z</time>
      </trkpt>
      <trkpt lat="43.95199" lon="5.33021">
        <ele>468.78</ele>
        <time>2017-11-13T11:15:34Z</time>
      </trkpt>
      <trkpt lat="43.95199" lon="5.33022">
        <ele>470.22</ele>
        <time>2017-11-13T11:16:15Z</time>
      </trkpt>
      <trkpt lat="43.95198" lon="5.33022">
        <ele>471.18</ele>
        <time>2017-11-13T11:16:46Z</time>
      </trkpt>
      <trkpt lat="43.95199" lon="5.33022">
        <ele>470.22</ele>
        <time>2017-11-13T11:16:50Z</time>
      </trkpt>
      <trkpt lat="43.95199" lon="5.33021">
        <ele>470.7</ele>
        <time>2017-11-13T11:17:12Z</time>
      </trkpt>
      <trkpt lat="43.95198" lon="5.33019">
        <ele>469.26</ele>
        <time>2017-11-13T11:17:39Z</time>
      </trkpt>
      <trkpt lat="43.95198" lon="5.33019">
        <ele>469.26</ele>
        <time>2017-11-13T11:17:52Z</time>
      </trkpt>
      <trkpt lat="43.95198" lon="5.33019">
        <ele>469.74</ele>
        <time>2017-11-13T11:17:57Z</time>
      </trkpt>
      <trkpt lat="43.95197" lon="5.33018">
        <ele>470.7</ele>
        <time>2017-11-13T11:18:12Z</time>
      </trkpt>
      <trkpt lat="43.95197" lon="5.33018">
        <ele>471.66</ele>
        <time>2017-11-13T11:18:34Z</time>
      </trkpt>
      <trkpt lat="43.95197" lon="5.33019">
        <ele>472.14</ele>
        <time>2017-11-13T11:18:59Z</time>
      </trkpt>
      <trkpt lat="43.95197" lon="5.33019">
        <ele>470.22</ele>
        <time>2017-11-13T11:19:13Z</time>
      </trkpt>
      <trkpt lat="43.95198" lon="5.3302">
        <ele>470.22</ele>
        <time>2017-11-13T11:19:47Z</time>
      </trkpt>
      <trkpt lat="43.95198" lon="5.3302">
        <ele>471.18</ele>
        <time>2017-11-13T11:19:56Z</time>
      </trkpt>
      <trkpt lat="43.95198" lon="5.33021">
        <ele>470.22</ele>
        <time>2017-11-13T11:20:19Z</time>
      </trkpt>
      <trkpt lat="43.95199" lon="5.33021">
        <ele>472.63</ele>
        <time>2017-11-13T11:20:51Z</time>
      </trkpt>
      <trkpt lat="43.95199" lon="5.33021">
        <ele>471.66</ele>
        <time>2017-11-13T11:21:09Z</time>
      </trkpt>
      <trkpt lat="43.95199" lon="5.33021">
        <ele>470.22</ele>
        <time>2017-11-13T11:21:13Z</time>
      </trkpt>
      <trkpt lat="43.95199" lon="5.33021">
        <ele>472.63</ele>
        <time>2017-11-13T11:21:15Z</time>
      </trkpt>
      <trkpt lat="43.95198" lon="5.3302">
        <ele>471.18</ele>
        <time>2017-11-13T11:21:28Z</time>
      </trkpt>
      <trkpt lat="43.95199" lon="5.33021">
        <ele>472.63</ele>
        <time>2017-11-13T11:22:00Z</time>
      </trkpt>
      <trkpt lat="43.95199" lon="5.33022">
        <ele>472.63</ele>
        <time>2017-11-13T11:22:10Z</time>
      </trkpt>
      <trkpt lat="43.95199" lon="5.33022">
        <ele>474.55</ele>
        <time>2017-11-13T11:22:13Z</time>
      </trkpt>
      <trkpt lat="43.95199" lon="5.33021">
        <ele>472.63</ele>
        <time>2017-11-13T11:22:22Z</time>
      </trkpt>
      <trkpt lat="43.95199" lon="5.33021">
        <ele>469.74</ele>
        <time>2017-11-13T11:22:48Z</time>
      </trkpt>
      <trkpt lat="43.95199" lon="5.33021">
        <ele>469.74</ele>
        <time>2017-11-13T11:22:49Z</time>
      </trkpt>
      <trkpt lat="43.95199" lon="5.33021">
        <ele>472.14</ele>
        <time>2017-11-13T11:22:55Z</time>
      </trkpt>
      <trkpt lat="43.95199" lon="5.33021">
        <ele>470.7</ele>
        <time>2017-11-13T11:23:04Z</time>
      </trkpt>
      <trkpt lat="43.95199" lon="5.33021">
        <ele>472.14</ele>
        <time>2017-11-13T11:23:12Z</time>
      </trkpt>
      <trkpt lat="43.95199" lon="5.33021">
        <ele>473.59</ele>
        <time>2017-11-13T11:23:16Z</time>
      </trkpt>
      <trkpt lat="43.95198" lon="5.33021">
        <ele>472.14</ele>
        <time>2017-11-13T11:23:19Z</time>
      </trkpt>
      <trkpt lat="43.95198" lon="5.33021">
        <ele>471.66</ele>
        <time>2017-11-13T11:23:25Z</time>
      </trkpt>
      <trkpt lat="43.95198" lon="5.3302">
        <ele>472.63</ele>
        <time>2017-11-13T11:23:41Z</time>
      </trkpt>
      <trkpt lat="43.95198" lon="5.3302">
        <ele>470.22</ele>
        <time>2017-11-13T11:23:44Z</time>
      </trkpt>
      <trkpt lat="43.95198" lon="5.3302">
        <ele>472.63</ele>
        <time>2017-11-13T11:23:46Z</time>
      </trkpt>
      <trkpt lat="43.95198" lon="5.3302">
        <ele>471.18</ele>
        <time>2017-11-13T11:24:07Z</time>
      </trkpt>
      <trkpt lat="43.95198" lon="5.3302">
        <ele>472.63</ele>
        <time>2017-11-13T11:24:09Z</time>
      </trkpt>
      <trkpt lat="43.95198" lon="5.3302">
        <ele>471.18</ele>
        <time>2017-11-13T11:24:29Z</time>
      </trkpt>
      <trkpt lat="43.95198" lon="5.3302">
        <ele>472.63</ele>
        <time>2017-11-13T11:24:35Z</time>
      </trkpt>
      <trkpt lat="43.95198" lon="5.3302">
        <ele>472.63</ele>
        <time>2017-11-13T11:24:53Z</time>
      </trkpt>
      <trkpt lat="43.95199" lon="5.3302">
        <ele>474.07</ele>
        <time>2017-11-13T11:25:05Z</time>
      </trkpt>
      <trkpt lat="43.95199" lon="5.33021">
        <ele>474.55</ele>
        <time>2017-11-13T11:25:25Z</time>
      </trkpt>
      <trkpt lat="43.95199" lon="5.33021">
        <ele>475.03</ele>
        <time>2017-11-13T11:25:36Z</time>
      </trkpt>
      <trkpt lat="43.95198" lon="5.33021">
        <ele>475.51</ele>
        <time>2017-11-13T11:25:51Z</time>
      </trkpt>
      <trkpt lat="43.95198" lon="5.33021">
        <ele>475.03</ele>
        <time>2017-11-13T11:25:56Z</time>
      </trkpt>
      <trkpt lat="43.95198" lon="5.3302">
        <ele>473.11</ele>
        <time>2017-11-13T11:26:27Z</time>
      </trkpt>
      <trkpt lat="43.95198" lon="5.3302">
        <ele>472.14</ele>
        <time>2017-11-13T11:26:34Z</time>
      </trkpt>
      <trkpt lat="43.95198" lon="5.3302">
        <ele>473.59</ele>
        <time>2017-11-13T11:26:38Z</time>
      </trkpt>
      <trkpt lat="43.95198" lon="5.33022">
        <ele>474.07</ele>
        <time>2017-11-13T11:26:49Z</time>
      </trkpt>
      <trkpt lat="43.95198" lon="5.33023">
        <ele>472.14</ele>
        <time>2017-11-13T11:26:57Z</time>
      </trkpt>
      <trkpt lat="43.95198" lon="5.33024">
        <ele>474.55</ele>
        <time>2017-11-13T11:26:59Z</time>
      </trkpt>
      <trkpt lat="43.95198" lon="5.33025">
        <ele>472.14</ele>
        <time>2017-11-13T11:27:29Z</time>
      </trkpt>
      <trkpt lat="43.95198" lon="5.33024">
        <ele>473.59</ele>
        <time>2017-11-13T11:27:31Z</time>
      </trkpt>
      <trkpt lat="43.95198" lon="5.33024">
        <ele>473.11</ele>
        <time>2017-11-13T11:27:50Z</time>
      </trkpt>
      <trkpt lat="43.95199" lon="5.33024">
        <ele>474.07</ele>
        <time>2017-11-13T11:28:17Z</time>
      </trkpt>
      <trkpt lat="43.95199" lon="5.33024">
        <ele>475.03</ele>
        <time>2017-11-13T11:28:27Z</time>
      </trkpt>
      <trkpt lat="43.95198" lon="5.33024">
        <ele>474.07</ele>
        <time>2017-11-13T11:28:35Z</time>
      </trkpt>
      <trkpt lat="43.95198" lon="5.33023">
        <ele>471.66</ele>
        <time>2017-11-13T11:28:55Z</time>
      </trkpt>
      <trkpt lat="43.95198" lon="5.33023">
        <ele>475.03</ele>
        <time>2017-11-13T11:28:57Z</time>
      </trkpt>
      <trkpt lat="43.95198" lon="5.33023">
        <ele>475.03</ele>
        <time>2017-11-13T11:29:01Z</time>
      </trkpt>
      <trkpt lat="43.95199" lon="5.33023">
        <ele>475.03</ele>
        <time>2017-11-13T11:29:27Z</time>
      </trkpt>
      <trkpt lat="43.95199" lon="5.33023">
        <ele>474.55</ele>
        <time>2017-11-13T11:29:36Z</time>
      </trkpt>
      <trkpt lat="43.95199" lon="5.33023">
        <ele>472.63</ele>
        <time>2017-11-13T11:29:48Z</time>
      </trkpt>
      <trkpt lat="43.95199" lon="5.33023">
        <ele>474.07</ele>
        <time>2017-11-13T11:29:50Z</time>
      </trkpt>
      <trkpt lat="43.95199" lon="5.33024">
        <ele>475.51</ele>
        <time>2017-11-13T11:29:54Z</time>
      </trkpt>
      <trkpt lat="43.95199" lon="5.33023">
        <ele>474.07</ele>
        <time>2017-11-13T11:30:04Z</time>
      </trkpt>
      <trkpt lat="43.95199" lon="5.33022">
        <ele>475.51</ele>
        <time>2017-11-13T11:30:23Z</time>
      </trkpt>
      <trkpt lat="43.95199" lon="5.33022">
        <ele>473.59</ele>
        <time>2017-11-13T11:30:26Z</time>
      </trkpt>
      <trkpt lat="43.95198" lon="5.33021">
        <ele>474.07</ele>
        <time>2017-11-13T11:30:50Z</time>
      </trkpt>
      <trkpt lat="43.95197" lon="5.33021">
        <ele>475.03</ele>
        <time>2017-11-13T11:31:15Z</time>
      </trkpt>
      <trkpt lat="43.95197" lon="5.33021">
        <ele>473.59</ele>
        <time>2017-11-13T11:31:20Z</time>
      </trkpt>
      <trkpt lat="43.95197" lon="5.33021">
        <ele>474.55</ele>
        <time>2017-11-13T11:31:33Z</time>
      </trkpt>
      <trkpt lat="43.95196" lon="5.3302">
        <ele>474.07</ele>
        <time>2017-11-13T11:32:03Z</time>
      </trkpt>
      <trkpt lat="43.95197" lon="5.3302">
        <ele>475.51</ele>
        <time>2017-11-13T11:32:42Z</time>
      </trkpt>
      <trkpt lat="43.95197" lon="5.3302">
        <ele>474.55</ele>
        <time>2017-11-13T11:32:55Z</time>
      </trkpt>
      <trkpt lat="43.95197" lon="5.3302">
        <ele>476.47</ele>
        <time>2017-11-13T11:33:09Z</time>
      </trkpt>
      <trkpt lat="43.95197" lon="5.3302">
        <ele>474.55</ele>
        <time>2017-11-13T11:33:13Z</time>
      </trkpt>
      <trkpt lat="43.95197" lon="5.3302">
        <ele>475.51</ele>
        <time>2017-11-13T11:33:22Z</time>
      </trkpt>
      <trkpt lat="43.95196" lon="5.33019">
        <ele>473.59</ele>
        <time>2017-11-13T11:33:28Z</time>
      </trkpt>
      <trkpt lat="43.95197" lon="5.33022">
        <ele>476.95</ele>
        <time>2017-11-13T11:33:46Z</time>
      </trkpt>
      <trkpt lat="43.95196" lon="5.33026">
        <ele>476.47</ele>
        <time>2017-11-13T11:33:58Z</time>
      </trkpt>
      <trkpt lat="43.95197" lon="5.33026">
        <ele>475.99</ele>
        <time>2017-11-13T11:34:25Z</time>
      </trkpt>
      <trkpt lat="43.95197" lon="5.33025">
        <ele>476.47</ele>
        <time>2017-11-13T11:34:39Z</time>
      </trkpt>
      <trkpt lat="43.95197" lon="5.33025">
        <ele>475.51</ele>
        <time>2017-11-13T11:34:47Z</time>
      </trkpt>
      <trkpt lat="43.95197" lon="5.33025">
        <ele>477.43</ele>
        <time>2017-11-13T11:34:49Z</time>
      </trkpt>
      <trkpt lat="43.95197" lon="5.33025">
        <ele>475.51</ele>
        <time>2017-11-13T11:34:52Z</time>
      </trkpt>
      <trkpt lat="43.95197" lon="5.33025">
        <ele>476.95</ele>
        <time>2017-11-13T11:34:55Z</time>
      </trkpt>
      <trkpt lat="43.95197" lon="5.33024">
        <ele>475.51</ele>
        <time>2017-11-13T11:35:03Z</time>
      </trkpt>
      <trkpt lat="43.95197" lon="5.33024">
        <ele>476.47</ele>
        <time>2017-11-13T11:35:06Z</time>
      </trkpt>
      <trkpt lat="43.95197" lon="5.33023">
        <ele>473.59</ele>
        <time>2017-11-13T11:35:11Z</time>
      </trkpt>
      <trkpt lat="43.95197" lon="5.33023">
        <ele>474.55</ele>
        <time>2017-11-13T11:35:15Z</time>
      </trkpt>
      <trkpt lat="43.95198" lon="5.33023">
        <ele>473.59</ele>
        <time>2017-11-13T11:35:20Z</time>
      </trkpt>
      <trkpt lat="43.95198" lon="5.33023">
        <ele>475.51</ele>
        <time>2017-11-13T11:35:24Z</time>
      </trkpt>
      <trkpt lat="43.95198" lon="5.33023">
        <ele>476.47</ele>
        <time>2017-11-13T11:35:28Z</time>
      </trkpt>
      <trkpt lat="43.95198" lon="5.33023">
        <ele>473.11</ele>
        <time>2017-11-13T11:35:43Z</time>
      </trkpt>
      <trkpt lat="43.95198" lon="5.33023">
        <ele>475.99</ele>
        <time>2017-11-13T11:35:46Z</time>
      </trkpt>
      <trkpt lat="43.95198" lon="5.33023">
        <ele>474.07</ele>
        <time>2017-11-13T11:35:48Z</time>
      </trkpt>
      <trkpt lat="43.95198" lon="5.33024">
        <ele>474.55</ele>
        <time>2017-11-13T11:35:52Z</time>
      </trkpt>
      <trkpt lat="43.95197" lon="5.33024">
        <ele>475.51</ele>
        <time>2017-11-13T11:35:54Z</time>
      </trkpt>
      <trkpt lat="43.95198" lon="5.33024">
        <ele>476.95</ele>
        <time>2017-11-13T11:35:58Z</time>
      </trkpt>
      <trkpt lat="43.95198" lon="5.33024">
        <ele>474.07</ele>
        <time>2017-11-13T11:36:01Z</time>
      </trkpt>
      <trkpt lat="43.95197" lon="5.33025">
        <ele>475.51</ele>
        <time>2017-11-13T11:36:07Z</time>
      </trkpt>
      <trkpt lat="43.95198" lon="5.33026">
        <ele>474.07</ele>
        <time>2017-11-13T11:36:16Z</time>
      </trkpt>
      <trkpt lat="43.95197" lon="5.33025">
        <ele>475.51</ele>
        <time>2017-11-13T11:36:20Z</time>
      </trkpt>
      <trkpt lat="43.95196" lon="5.33026">
        <ele>475.03</ele>
        <time>2017-11-13T11:36:41Z</time>
      </trkpt>
      <trkpt lat="43.95196" lon="5.33026">
        <ele>474.55</ele>
        <time>2017-11-13T11:36:57Z</time>
      </trkpt>
      <trkpt lat="43.95195" lon="5.33025">
        <ele>475.51</ele>
        <time>2017-11-13T11:37:04Z</time>
      </trkpt>
      <trkpt lat="43.95194" lon="5.33026">
        <ele>474.55</ele>
        <time>2017-11-13T11:37:18Z</time>
      </trkpt>
      <trkpt lat="43.95196" lon="5.33026">
        <ele>474.07</ele>
        <time>2017-11-13T11:37:38Z</time>
      </trkpt>
      <trkpt lat="43.95196" lon="5.33026">
        <ele>475.51</ele>
        <time>2017-11-13T11:37:40Z</time>
      </trkpt>
      <trkpt lat="43.95197" lon="5.33027">
        <ele>475.99</ele>
        <time>2017-11-13T11:38:03Z</time>
      </trkpt>
      <trkpt lat="43.95197" lon="5.33026">
        <ele>475.99</ele>
        <time>2017-11-13T11:38:21Z</time>
      </trkpt>
      <trkpt lat="43.95198" lon="5.33025">
        <ele>474.55</ele>
        <time>2017-11-13T11:38:24Z</time>
      </trkpt>
      <trkpt lat="43.95198" lon="5.33023">
        <ele>476.95</ele>
        <time>2017-11-13T11:38:29Z</time>
      </trkpt>
      <trkpt lat="43.95198" lon="5.33022">
        <ele>474.07</ele>
        <time>2017-11-13T11:38:31Z</time>
      </trkpt>
      <trkpt lat="43.95198" lon="5.33021">
        <ele>476.47</ele>
        <time>2017-11-13T11:38:36Z</time>
      </trkpt>
      <trkpt lat="43.95199" lon="5.3302">
        <ele>474.55</ele>
        <time>2017-11-13T11:38:39Z</time>
      </trkpt>
      <trkpt lat="43.95199" lon="5.3302">
        <ele>476.47</ele>
        <time>2017-11-13T11:38:41Z</time>
      </trkpt>
      <trkpt lat="43.95198" lon="5.33021">
        <ele>475.99</ele>
        <time>2017-11-13T11:38:55Z</time>
      </trkpt>
      <trkpt lat="43.95198" lon="5.33019">
        <ele>475.51</ele>
        <time>2017-11-13T11:39:13Z</time>
      </trkpt>
      <trkpt lat="43.95198" lon="5.3302">
        <ele>474.07</ele>
        <time>2017-11-13T11:39:17Z</time>
      </trkpt>
      <trkpt lat="43.95198" lon="5.3302">
        <ele>477.43</ele>
        <time>2017-11-13T11:39:25Z</time>
      </trkpt>
      <trkpt lat="43.95198" lon="5.3302">
        <ele>478.39</ele>
        <time>2017-11-13T11:39:28Z</time>
      </trkpt>
      <trkpt lat="43.95198" lon="5.33021">
        <ele>476.95</ele>
        <time>2017-11-13T11:39:37Z</time>
      </trkpt>
      <trkpt lat="43.95198" lon="5.33021">
        <ele>476.95</ele>
        <time>2017-11-13T11:39:51Z</time>
      </trkpt>
      <trkpt lat="43.95198" lon="5.33021">
        <ele>475.99</ele>
        <time>2017-11-13T11:39:57Z</time>
      </trkpt>
      <trkpt lat="43.95198" lon="5.33021">
        <ele>476.95</ele>
        <time>2017-11-13T11:40:02Z</time>
      </trkpt>
      <trkpt lat="43.95198" lon="5.33022">
        <ele>470.7</ele>
        <time>2017-11-13T11:40:09Z</time>
      </trkpt>
      <trkpt lat="43.95198" lon="5.33022">
        <ele>483.2</ele>
        <time>2017-11-13T11:40:10Z</time>
      </trkpt>
      <trkpt lat="43.95198" lon="5.33021">
        <ele>476.95</ele>
        <time>2017-11-13T11:40:11Z</time>
      </trkpt>
      <trkpt lat="43.95198" lon="5.33021">
        <ele>473.59</ele>
        <time>2017-11-13T11:40:17Z</time>
      </trkpt>
      <trkpt lat="43.95198" lon="5.3302">
        <ele>473.59</ele>
        <time>2017-11-13T11:40:18Z</time>
      </trkpt>
      <trkpt lat="43.95199" lon="5.3302">
        <ele>477.43</ele>
        <time>2017-11-13T11:40:20Z</time>
      </trkpt>
      <trkpt lat="43.95199" lon="5.3302">
        <ele>477.91</ele>
        <time>2017-11-13T11:40:22Z</time>
      </trkpt>
      <trkpt lat="43.95195" lon="5.33019">
        <ele>475.03</ele>
        <time>2017-11-13T11:40:40Z</time>
      </trkpt>
      <trkpt lat="43.9519" lon="5.33022">
        <ele>475.03</ele>
        <time>2017-11-13T11:40:52Z</time>
      </trkpt>
      <trkpt lat="43.95186" lon="5.33023">
        <ele>474.07</ele>
        <time>2017-11-13T11:40:58Z</time>
      </trkpt>
      <trkpt lat="43.95183" lon="5.33024">
        <ele>475.03</ele>
        <time>2017-11-13T11:41:03Z</time>
      </trkpt>
      <trkpt lat="43.9518" lon="5.33028">
        <ele>474.07</ele>
        <time>2017-11-13T11:41:20Z</time>
      </trkpt>
      <trkpt lat="43.9518" lon="5.33028">
        <ele>475.99</ele>
        <time>2017-11-13T11:41:24Z</time>
      </trkpt>
      <trkpt lat="43.95179" lon="5.33028">
        <ele>473.11</ele>
        <time>2017-11-13T11:41:27Z</time>
      </trkpt>
      <trkpt lat="43.95177" lon="5.3303">
        <ele>476.47</ele>
        <time>2017-11-13T11:41:32Z</time>
      </trkpt>
      <trkpt lat="43.95176" lon="5.33031">
        <ele>474.07</ele>
        <time>2017-11-13T11:41:36Z</time>
      </trkpt>
      <trkpt lat="43.95171" lon="5.33034">
        <ele>470.22</ele>
        <time>2017-11-13T11:41:46Z</time>
      </trkpt>
      <trkpt lat="43.95168" lon="5.33033">
        <ele>473.59</ele>
        <time>2017-11-13T11:41:51Z</time>
      </trkpt>
      <trkpt lat="43.95167" lon="5.33033">
        <ele>471.18</ele>
        <time>2017-11-13T11:41:53Z</time>
      </trkpt>
      <trkpt lat="43.95164" lon="5.33033">
        <ele>473.11</ele>
        <time>2017-11-13T11:41:58Z</time>
      </trkpt>
      <trkpt lat="43.95154" lon="5.3303">
        <ele>472.14</ele>
        <time>2017-11-13T11:42:13Z</time>
      </trkpt>
      <trkpt lat="43.95147" lon="5.33028">
        <ele>470.7</ele>
        <time>2017-11-13T11:42:23Z</time>
      </trkpt>
      <trkpt lat="43.9514" lon="5.33026">
        <ele>469.74</ele>
        <time>2017-11-13T11:42:32Z</time>
      </trkpt>
      <trkpt lat="43.95128" lon="5.33024">
        <ele>467.82</ele>
        <time>2017-11-13T11:42:48Z</time>
      </trkpt>
      <trkpt lat="43.95117" lon="5.3302">
        <ele>466.38</ele>
        <time>2017-11-13T11:43:02Z</time>
      </trkpt>
      <trkpt lat="43.95105" lon="5.33013">
        <ele>466.38</ele>
        <time>2017-11-13T11:43:19Z</time>
      </trkpt>
      <trkpt lat="43.95096" lon="5.33007">
        <ele>463.01</ele>
        <time>2017-11-13T11:43:31Z</time>
      </trkpt>
      <trkpt lat="43.95096" lon="5.33007">
        <ele>463.01</ele>
        <time>2017-11-13T11:43:32Z</time>
      </trkpt>
      <trkpt lat="43.95091" lon="5.33002">
        <ele>464.45</ele>
        <time>2017-11-13T11:43:39Z</time>
      </trkpt>
      <trkpt lat="43.95084" lon="5.32997">
        <ele>460.13</ele>
        <time>2017-11-13T11:43:50Z</time>
      </trkpt>
      <trkpt lat="43.95079" lon="5.32994">
        <ele>458.69</ele>
        <time>2017-11-13T11:43:57Z</time>
      </trkpt>
      <trkpt lat="43.95078" lon="5.32994">
        <ele>463.01</ele>
        <time>2017-11-13T11:43:58Z</time>
      </trkpt>
      <trkpt lat="43.95077" lon="5.32993">
        <ele>463.01</ele>
        <time>2017-11-13T11:43:59Z</time>
      </trkpt>
      <trkpt lat="43.95075" lon="5.32991">
        <ele>459.65</ele>
        <time>2017-11-13T11:44:03Z</time>
      </trkpt>
      <trkpt lat="43.95063" lon="5.3298">
        <ele>461.57</ele>
        <time>2017-11-13T11:44:21Z</time>
      </trkpt>
      <trkpt lat="43.95062" lon="5.32979">
        <ele>458.69</ele>
        <time>2017-11-13T11:44:23Z</time>
      </trkpt>
      <trkpt lat="43.9505" lon="5.32971">
        <ele>455.8</ele>
        <time>2017-11-13T11:44:40Z</time>
      </trkpt>
      <trkpt lat="43.95046" lon="5.32968">
        <ele>457.24</ele>
        <time>2017-11-13T11:44:45Z</time>
      </trkpt>
      <trkpt lat="43.95041" lon="5.32963">
        <ele>455.32</ele>
        <time>2017-11-13T11:44:52Z</time>
      </trkpt>
      <trkpt lat="43.95031" lon="5.32953">
        <ele>454.84</ele>
        <time>2017-11-13T11:45:08Z</time>
      </trkpt>
      <trkpt lat="43.95018" lon="5.32943">
        <ele>453.4</ele>
        <time>2017-11-13T11:45:26Z</time>
      </trkpt>
      <trkpt lat="43.95006" lon="5.32935">
        <ele>452.92</ele>
        <time>2017-11-13T11:45:44Z</time>
      </trkpt>
      <trkpt lat="43.94995" lon="5.32932">
        <ele>450.03</ele>
        <time>2017-11-13T11:46:00Z</time>
      </trkpt>
      <trkpt lat="43.9499" lon="5.3293">
        <ele>449.07</ele>
        <time>2017-11-13T11:46:07Z</time>
      </trkpt>
      <trkpt lat="43.94986" lon="5.32929">
        <ele>448.11</ele>
        <time>2017-11-13T11:46:11Z</time>
      </trkpt>
      <trkpt lat="43.94973" lon="5.32925">
        <ele>447.63</ele>
        <time>2017-11-13T11:46:27Z</time>
      </trkpt>
      <trkpt lat="43.94971" lon="5.32925">
        <ele>446.67</ele>
        <time>2017-11-13T11:46:30Z</time>
      </trkpt>
      <trkpt lat="43.94963" lon="5.32923">
        <ele>448.59</ele>
        <time>2017-11-13T11:46:41Z</time>
      </trkpt>
      <trkpt lat="43.94961" lon="5.32922">
        <ele>447.15</ele>
        <time>2017-11-13T11:46:43Z</time>
      </trkpt>
      <trkpt lat="43.94949" lon="5.32916">
        <ele>446.67</ele>
        <time>2017-11-13T11:47:00Z</time>
      </trkpt>
      <trkpt lat="43.94947" lon="5.32913">
        <ele>443.31</ele>
        <time>2017-11-13T11:47:04Z</time>
      </trkpt>
      <trkpt lat="43.94946" lon="5.32913">
        <ele>443.31</ele>
        <time>2017-11-13T11:47:05Z</time>
      </trkpt>
      <trkpt lat="43.94944" lon="5.32911">
        <ele>445.23</ele>
        <time>2017-11-13T11:47:08Z</time>
      </trkpt>
      <trkpt lat="43.94943" lon="5.3291">
        <ele>443.31</ele>
        <time>2017-11-13T11:47:10Z</time>
      </trkpt>
      <trkpt lat="43.94937" lon="5.32906">
        <ele>441.86</ele>
        <time>2017-11-13T11:47:17Z</time>
      </trkpt>
      <trkpt lat="43.94936" lon="5.32905">
        <ele>445.23</ele>
        <time>2017-11-13T11:47:19Z</time>
      </trkpt>
      <trkpt lat="43.94931" lon="5.32902">
        <ele>441.38</ele>
        <time>2017-11-13T11:47:26Z</time>
      </trkpt>
      <trkpt lat="43.9493" lon="5.32902">
        <ele>441.38</ele>
        <time>2017-11-13T11:47:27Z</time>
      </trkpt>
      <trkpt lat="43.94926" lon="5.329">
        <ele>443.31</ele>
        <time>2017-11-13T11:47:33Z</time>
      </trkpt>
      <trkpt lat="43.94922" lon="5.32898">
        <ele>440.42</ele>
        <time>2017-11-13T11:47:38Z</time>
      </trkpt>
      <trkpt lat="43.9492" lon="5.32896">
        <ele>443.79</ele>
        <time>2017-11-13T11:47:41Z</time>
      </trkpt>
      <trkpt lat="43.94919" lon="5.32895">
        <ele>443.79</ele>
        <time>2017-11-13T11:47:42Z</time>
      </trkpt>
      <trkpt lat="43.94917" lon="5.32895">
        <ele>441.38</ele>
        <time>2017-11-13T11:47:45Z</time>
      </trkpt>
      <trkpt lat="43.94908" lon="5.32889">
        <ele>440.9</ele>
        <time>2017-11-13T11:47:59Z</time>
      </trkpt>
      <trkpt lat="43.94894" lon="5.32881">
        <ele>438.02</ele>
        <time>2017-11-13T11:48:18Z</time>
      </trkpt>
      <trkpt lat="43.94881" lon="5.32875">
        <ele>439.46</ele>
        <time>2017-11-13T11:48:37Z</time>
      </trkpt>
      <trkpt lat="43.94869" lon="5.3287">
        <ele>436.58</ele>
        <time>2017-11-13T11:48:52Z</time>
      </trkpt>
      <trkpt lat="43.94866" lon="5.32868">
        <ele>434.17</ele>
        <time>2017-11-13T11:48:56Z</time>
      </trkpt>
      <trkpt lat="43.94862" lon="5.32865">
        <ele>437.54</ele>
        <time>2017-11-13T11:49:02Z</time>
      </trkpt>
      <trkpt lat="43.94852" lon="5.32858">
        <ele>434.17</ele>
        <time>2017-11-13T11:49:13Z</time>
      </trkpt>
      <trkpt lat="43.94841" lon="5.32853">
        <ele>432.73</ele>
        <time>2017-11-13T11:49:28Z</time>
      </trkpt>
      <trkpt lat="43.9483" lon="5.3285">
        <ele>429.37</ele>
        <time>2017-11-13T11:49:43Z</time>
      </trkpt>
      <trkpt lat="43.9482" lon="5.32847">
        <ele>426.48</ele>
        <time>2017-11-13T11:49:55Z</time>
      </trkpt>
      <trkpt lat="43.9481" lon="5.32842">
        <ele>429.37</ele>
        <time>2017-11-13T11:50:07Z</time>
      </trkpt>
      <trkpt lat="43.94807" lon="5.3284">
        <ele>428.4</ele>
        <time>2017-11-13T11:50:11Z</time>
      </trkpt>
      <trkpt lat="43.94793" lon="5.32831">
        <ele>425.52</ele>
        <time>2017-11-13T11:50:29Z</time>
      </trkpt>
      <trkpt lat="43.94791" lon="5.32829">
        <ele>426.96</ele>
        <time>2017-11-13T11:50:32Z</time>
      </trkpt>
      <trkpt lat="43.9479" lon="5.32828">
        <ele>423.6</ele>
        <time>2017-11-13T11:50:35Z</time>
      </trkpt>
      <trkpt lat="43.94787" lon="5.32826">
        <ele>426</ele>
        <time>2017-11-13T11:50:39Z</time>
      </trkpt>
      <trkpt lat="43.9478" lon="5.3282">
        <ele>422.64</ele>
        <time>2017-11-13T11:50:49Z</time>
      </trkpt>
      <trkpt lat="43.94772" lon="5.32812">
        <ele>422.16</ele>
        <time>2017-11-13T11:51:02Z</time>
      </trkpt>
      <trkpt lat="43.9476" lon="5.32803">
        <ele>421.68</ele>
        <time>2017-11-13T11:51:17Z</time>
      </trkpt>
      <trkpt lat="43.94746" lon="5.32794">
        <ele>419.27</ele>
        <time>2017-11-13T11:51:35Z</time>
      </trkpt>
      <trkpt lat="43.94737" lon="5.32789">
        <ele>418.31</ele>
        <time>2017-11-13T11:51:47Z</time>
      </trkpt>
      <trkpt lat="43.94732" lon="5.3279">
        <ele>420.23</ele>
        <time>2017-11-13T11:51:53Z</time>
      </trkpt>
      <trkpt lat="43.94731" lon="5.32789">
        <ele>418.79</ele>
        <time>2017-11-13T11:51:55Z</time>
      </trkpt>
      <trkpt lat="43.94729" lon="5.32788">
        <ele>415.91</ele>
        <time>2017-11-13T11:51:58Z</time>
      </trkpt>
      <trkpt lat="43.94728" lon="5.32787">
        <ele>415.91</ele>
        <time>2017-11-13T11:51:59Z</time>
      </trkpt>
      <trkpt lat="43.94726" lon="5.32787">
        <ele>417.35</ele>
        <time>2017-11-13T11:52:01Z</time>
      </trkpt>
      <trkpt lat="43.94724" lon="5.32786">
        <ele>419.27</ele>
        <time>2017-11-13T11:52:04Z</time>
      </trkpt>
      <trkpt lat="43.94723" lon="5.32784">
        <ele>416.87</ele>
        <time>2017-11-13T11:52:06Z</time>
      </trkpt>
      <trkpt lat="43.94722" lon="5.32783">
        <ele>412.54</ele>
        <time>2017-11-13T11:52:08Z</time>
      </trkpt>
      <trkpt lat="43.94721" lon="5.32783">
        <ele>416.39</ele>
        <time>2017-11-13T11:52:09Z</time>
      </trkpt>
      <trkpt lat="43.94717" lon="5.3278">
        <ele>418.31</ele>
        <time>2017-11-13T11:52:14Z</time>
      </trkpt>
      <trkpt lat="43.94716" lon="5.32779">
        <ele>416.87</ele>
        <time>2017-11-13T11:52:16Z</time>
      </trkpt>
      <trkpt lat="43.94714" lon="5.32777">
        <ele>414.47</ele>
        <time>2017-11-13T11:52:19Z</time>
      </trkpt>
      <trkpt lat="43.94711" lon="5.32776">
        <ele>414.47</ele>
        <time>2017-11-13T11:52:24Z</time>
      </trkpt>
      <trkpt lat="43.94707" lon="5.32773">
        <ele>415.91</ele>
        <time>2017-11-13T11:52:29Z</time>
      </trkpt>
      <trkpt lat="43.94705" lon="5.32772">
        <ele>413.98</ele>
        <time>2017-11-13T11:52:32Z</time>
      </trkpt>
      <trkpt lat="43.94698" lon="5.32768">
        <ele>413.02</ele>
        <time>2017-11-13T11:52:41Z</time>
      </trkpt>
      <trkpt lat="43.94689" lon="5.32763">
        <ele>411.1</ele>
        <time>2017-11-13T11:52:53Z</time>
      </trkpt>
      <trkpt lat="43.94687" lon="5.32763">
        <ele>412.54</ele>
        <time>2017-11-13T11:52:55Z</time>
      </trkpt>
      <trkpt lat="43.94686" lon="5.32761">
        <ele>411.58</ele>
        <time>2017-11-13T11:52:57Z</time>
      </trkpt>
      <trkpt lat="43.94674" lon="5.32754">
        <ele>411.1</ele>
        <time>2017-11-13T11:53:13Z</time>
      </trkpt>
      <trkpt lat="43.94673" lon="5.32754">
        <ele>411.1</ele>
        <time>2017-11-13T11:53:14Z</time>
      </trkpt>
      <trkpt lat="43.94669" lon="5.32751">
        <ele>409.66</ele>
        <time>2017-11-13T11:53:20Z</time>
      </trkpt>
      <trkpt lat="43.94659" lon="5.32742">
        <ele>407.74</ele>
        <time>2017-11-13T11:53:36Z</time>
      </trkpt>
      <trkpt lat="43.94653" lon="5.32739">
        <ele>406.29</ele>
        <time>2017-11-13T11:53:44Z</time>
      </trkpt>
      <trkpt lat="43.94647" lon="5.32739">
        <ele>403.41</ele>
        <time>2017-11-13T11:53:52Z</time>
      </trkpt>
      <trkpt lat="43.94636" lon="5.32738">
        <ele>404.85</ele>
        <time>2017-11-13T11:54:05Z</time>
      </trkpt>
      <trkpt lat="43.94633" lon="5.32738">
        <ele>403.41</ele>
        <time>2017-11-13T11:54:10Z</time>
      </trkpt>
      <trkpt lat="43.94629" lon="5.32735">
        <ele>400.05</ele>
        <time>2017-11-13T11:54:15Z</time>
      </trkpt>
      <trkpt lat="43.94628" lon="5.32735">
        <ele>403.89</ele>
        <time>2017-11-13T11:54:17Z</time>
      </trkpt>
      <trkpt lat="43.9462" lon="5.32734">
        <ele>405.81</ele>
        <time>2017-11-13T11:54:27Z</time>
      </trkpt>
      <trkpt lat="43.94619" lon="5.32734">
        <ele>401.49</ele>
        <time>2017-11-13T11:54:29Z</time>
      </trkpt>
      <trkpt lat="43.94618" lon="5.32735">
        <ele>398.6</ele>
        <time>2017-11-13T11:54:31Z</time>
      </trkpt>
      <trkpt lat="43.94617" lon="5.32735">
        <ele>403.41</ele>
        <time>2017-11-13T11:54:34Z</time>
      </trkpt>
      <trkpt lat="43.94616" lon="5.32735">
        <ele>397.64</ele>
        <time>2017-11-13T11:54:37Z</time>
      </trkpt>
      <trkpt lat="43.94615" lon="5.32735">
        <ele>402.93</ele>
        <time>2017-11-13T11:54:38Z</time>
      </trkpt>
      <trkpt lat="43.94615" lon="5.32735">
        <ele>409.18</ele>
        <time>2017-11-13T11:54:39Z</time>
      </trkpt>
      <trkpt lat="43.94614" lon="5.32735">
        <ele>405.33</ele>
        <time>2017-11-13T11:54:40Z</time>
      </trkpt>
      <trkpt lat="43.94611" lon="5.32736">
        <ele>402.45</ele>
        <time>2017-11-13T11:54:43Z</time>
      </trkpt>
      <trkpt lat="43.94608" lon="5.32735">
        <ele>399.08</ele>
        <time>2017-11-13T11:54:47Z</time>
      </trkpt>
      <trkpt lat="43.94606" lon="5.32735">
        <ele>398.12</ele>
        <time>2017-11-13T11:54:49Z</time>
      </trkpt>
      <trkpt lat="43.94604" lon="5.32734">
        <ele>401.49</ele>
        <time>2017-11-13T11:54:52Z</time>
      </trkpt>
      <trkpt lat="43.94603" lon="5.32733">
        <ele>401.49</ele>
        <time>2017-11-13T11:54:53Z</time>
      </trkpt>
      <trkpt lat="43.94601" lon="5.32733">
        <ele>399.57</ele>
        <time>2017-11-13T11:54:55Z</time>
      </trkpt>
      <trkpt lat="43.94594" lon="5.32731">
        <ele>401.01</ele>
        <time>2017-11-13T11:55:03Z</time>
      </trkpt>
      <trkpt lat="43.94592" lon="5.32729">
        <ele>397.64</ele>
        <time>2017-11-13T11:55:06Z</time>
      </trkpt>
      <trkpt lat="43.94591" lon="5.32728">
        <ele>397.64</ele>
        <time>2017-11-13T11:55:07Z</time>
      </trkpt>
      <trkpt lat="43.94586" lon="5.32726">
        <ele>396.68</ele>
        <time>2017-11-13T11:55:14Z</time>
      </trkpt>
      <trkpt lat="43.94582" lon="5.32726">
        <ele>395.24</ele>
        <time>2017-11-13T11:55:22Z</time>
      </trkpt>
      <trkpt lat="43.94582" lon="5.32725">
        <ele>396.68</ele>
        <time>2017-11-13T11:55:25Z</time>
      </trkpt>
      <trkpt lat="43.94582" lon="5.32724">
        <ele>397.16</ele>
        <time>2017-11-13T11:55:30Z</time>
      </trkpt>
      <trkpt lat="43.94578" lon="5.32716">
        <ele>393.8</ele>
        <time>2017-11-13T11:55:41Z</time>
      </trkpt>
      <trkpt lat="43.94573" lon="5.32711">
        <ele>390.43</ele>
        <time>2017-11-13T11:55:49Z</time>
      </trkpt>
      <trkpt lat="43.94568" lon="5.32704">
        <ele>389.47</ele>
        <time>2017-11-13T11:55:57Z</time>
      </trkpt>
      <trkpt lat="43.94567" lon="5.32702">
        <ele>390.91</ele>
        <time>2017-11-13T11:55:59Z</time>
      </trkpt>
      <trkpt lat="43.94565" lon="5.327">
        <ele>392.36</ele>
        <time>2017-11-13T11:56:02Z</time>
      </trkpt>
      <trkpt lat="43.94547" lon="5.32682">
        <ele>389.47</ele>
        <time>2017-11-13T11:56:25Z</time>
      </trkpt>
      <trkpt lat="43.94539" lon="5.32673">
        <ele>388.99</ele>
        <time>2017-11-13T11:56:36Z</time>
      </trkpt>
      <trkpt lat="43.94531" lon="5.32665">
        <ele>386.59</ele>
        <time>2017-11-13T11:56:47Z</time>
      </trkpt>
      <trkpt lat="43.94528" lon="5.32663">
        <ele>388.51</ele>
        <time>2017-11-13T11:56:50Z</time>
      </trkpt>
      <trkpt lat="43.94527" lon="5.32662">
        <ele>387.07</ele>
        <time>2017-11-13T11:56:52Z</time>
      </trkpt>
      <trkpt lat="43.94524" lon="5.3266">
        <ele>388.99</ele>
        <time>2017-11-13T11:56:55Z</time>
      </trkpt>
      <trkpt lat="43.9452" lon="5.32656">
        <ele>391.39</ele>
        <time>2017-11-13T11:57:00Z</time>
      </trkpt>
      <trkpt lat="43.94518" lon="5.32655">
        <ele>388.03</ele>
        <time>2017-11-13T11:57:02Z</time>
      </trkpt>
      <trkpt lat="43.94514" lon="5.32652">
        <ele>385.63</ele>
        <time>2017-11-13T11:57:07Z</time>
      </trkpt>
      <trkpt lat="43.9451" lon="5.32648">
        <ele>386.59</ele>
        <time>2017-11-13T11:57:12Z</time>
      </trkpt>
      <trkpt lat="43.94498" lon="5.32649">
        <ele>384.66</ele>
        <time>2017-11-13T11:57:27Z</time>
      </trkpt>
      <trkpt lat="43.94483" lon="5.32647">
        <ele>383.7</ele>
        <time>2017-11-13T11:57:45Z</time>
      </trkpt>
      <trkpt lat="43.94477" lon="5.32648">
        <ele>382.26</ele>
        <time>2017-11-13T11:57:52Z</time>
      </trkpt>
      <trkpt lat="43.94463" lon="5.32646">
        <ele>379.38</ele>
        <time>2017-11-13T11:58:08Z</time>
      </trkpt>
      <trkpt lat="43.9446" lon="5.32646">
        <ele>381.3</ele>
        <time>2017-11-13T11:58:12Z</time>
      </trkpt>
      <trkpt lat="43.94457" lon="5.32645">
        <ele>379.86</ele>
        <time>2017-11-13T11:58:16Z</time>
      </trkpt>
      <trkpt lat="43.94447" lon="5.32644">
        <ele>379.38</ele>
        <time>2017-11-13T11:58:28Z</time>
      </trkpt>
      <trkpt lat="43.94435" lon="5.32639">
        <ele>376.01</ele>
        <time>2017-11-13T11:58:42Z</time>
      </trkpt>
      <trkpt lat="43.94418" lon="5.32638">
        <ele>375.05</ele>
        <time>2017-11-13T11:59:01Z</time>
      </trkpt>
      <trkpt lat="43.94402" lon="5.32633">
        <ele>372.17</ele>
        <time>2017-11-13T11:59:18Z</time>
      </trkpt>
      <trkpt lat="43.94396" lon="5.32633">
        <ele>371.69</ele>
        <time>2017-11-13T11:59:24Z</time>
      </trkpt>
      <trkpt lat="43.94392" lon="5.32634">
        <ele>370.73</ele>
        <time>2017-11-13T11:59:28Z</time>
      </trkpt>
      <trkpt lat="43.94391" lon="5.32634">
        <ele>374.57</ele>
        <time>2017-11-13T11:59:29Z</time>
      </trkpt>
      <trkpt lat="43.9439" lon="5.32634">
        <ele>373.13</ele>
        <time>2017-11-13T11:59:30Z</time>
      </trkpt>
      <trkpt lat="43.94381" lon="5.32635">
        <ele>368.8</ele>
        <time>2017-11-13T11:59:40Z</time>
      </trkpt>
      <trkpt lat="43.9438" lon="5.32635">
        <ele>368.8</ele>
        <time>2017-11-13T11:59:41Z</time>
      </trkpt>
      <trkpt lat="43.94378" lon="5.32635">
        <ele>371.69</ele>
        <time>2017-11-13T11:59:43Z</time>
      </trkpt>
      <trkpt lat="43.94369" lon="5.32636">
        <ele>369.28</ele>
        <time>2017-11-13T11:59:53Z</time>
      </trkpt>
      <trkpt lat="43.94356" lon="5.32635">
        <ele>368.32</ele>
        <time>2017-11-13T12:00:08Z</time>
      </trkpt>
      <trkpt lat="43.94342" lon="5.32637">
        <ele>365.44</ele>
        <time>2017-11-13T12:00:23Z</time>
      </trkpt>
      <trkpt lat="43.94334" lon="5.32639">
        <ele>364.96</ele>
        <time>2017-11-13T12:00:32Z</time>
      </trkpt>
      <trkpt lat="43.94332" lon="5.3264">
        <ele>366.88</ele>
        <time>2017-11-13T12:00:34Z</time>
      </trkpt>
      <trkpt lat="43.9433" lon="5.3264">
        <ele>364.96</ele>
        <time>2017-11-13T12:00:36Z</time>
      </trkpt>
      <trkpt lat="43.94321" lon="5.32641">
        <ele>365.92</ele>
        <time>2017-11-13T12:00:46Z</time>
      </trkpt>
      <trkpt lat="43.94319" lon="5.32641">
        <ele>364</ele>
        <time>2017-11-13T12:00:48Z</time>
      </trkpt>
      <trkpt lat="43.94313" lon="5.32639">
        <ele>362.55</ele>
        <time>2017-11-13T12:00:56Z</time>
      </trkpt>
      <trkpt lat="43.94306" lon="5.32636">
        <ele>363.52</ele>
        <time>2017-11-13T12:01:05Z</time>
      </trkpt>
      <trkpt lat="43.94305" lon="5.32634">
        <ele>362.07</ele>
        <time>2017-11-13T12:01:07Z</time>
      </trkpt>
      <trkpt lat="43.94298" lon="5.32631">
        <ele>362.07</ele>
        <time>2017-11-13T12:01:16Z</time>
      </trkpt>
      <trkpt lat="43.94289" lon="5.32629">
        <ele>358.23</ele>
        <time>2017-11-13T12:01:26Z</time>
      </trkpt>
      <trkpt lat="43.94288" lon="5.32629">
        <ele>358.23</ele>
        <time>2017-11-13T12:01:27Z</time>
      </trkpt>
      <trkpt lat="43.94285" lon="5.32627">
        <ele>356.79</ele>
        <time>2017-11-13T12:01:31Z</time>
      </trkpt>
      <trkpt lat="43.94282" lon="5.32626">
        <ele>361.11</ele>
        <time>2017-11-13T12:01:34Z</time>
      </trkpt>
      <trkpt lat="43.94281" lon="5.32626">
        <ele>361.11</ele>
        <time>2017-11-13T12:01:35Z</time>
      </trkpt>
      <trkpt lat="43.94279" lon="5.32625">
        <ele>359.19</ele>
        <time>2017-11-13T12:01:37Z</time>
      </trkpt>
      <trkpt lat="43.94262" lon="5.32621">
        <ele>357.75</ele>
        <time>2017-11-13T12:01:54Z</time>
      </trkpt>
      <trkpt lat="43.94259" lon="5.32621">
        <ele>354.86</ele>
        <time>2017-11-13T12:01:57Z</time>
      </trkpt>
      <trkpt lat="43.94257" lon="5.32621">
        <ele>357.27</ele>
        <time>2017-11-13T12:02:00Z</time>
      </trkpt>
      <trkpt lat="43.94239" lon="5.32622">
        <ele>354.38</ele>
        <time>2017-11-13T12:02:18Z</time>
      </trkpt>
      <trkpt lat="43.94237" lon="5.32622">
        <ele>353.42</ele>
        <time>2017-11-13T12:02:20Z</time>
      </trkpt>
      <trkpt lat="43.94222" lon="5.32615">
        <ele>352.46</ele>
        <time>2017-11-13T12:02:36Z</time>
      </trkpt>
      <trkpt lat="43.9422" lon="5.32614">
        <ele>350.06</ele>
        <time>2017-11-13T12:02:38Z</time>
      </trkpt>
      <trkpt lat="43.94212" lon="5.32609">
        <ele>348.13</ele>
        <time>2017-11-13T12:02:49Z</time>
      </trkpt>
      <trkpt lat="43.94208" lon="5.32603">
        <ele>348.62</ele>
        <time>2017-11-13T12:02:56Z</time>
      </trkpt>
      <trkpt lat="43.94196" lon="5.32582">
        <ele>346.69</ele>
        <time>2017-11-13T12:03:15Z</time>
      </trkpt>
      <trkpt lat="43.94193" lon="5.32578">
        <ele>350.06</ele>
        <time>2017-11-13T12:03:19Z</time>
      </trkpt>
      <trkpt lat="43.94192" lon="5.32577">
        <ele>350.06</ele>
        <time>2017-11-13T12:03:20Z</time>
      </trkpt>
      <trkpt lat="43.94184" lon="5.32566">
        <ele>346.21</ele>
        <time>2017-11-13T12:03:33Z</time>
      </trkpt>
      <trkpt lat="43.9418" lon="5.32562">
        <ele>346.69</ele>
        <time>2017-11-13T12:03:38Z</time>
      </trkpt>
      <trkpt lat="43.94177" lon="5.32558">
        <ele>351.02</ele>
        <time>2017-11-13T12:03:51Z</time>
      </trkpt>
      <trkpt lat="43.94177" lon="5.32558">
        <ele>348.13</ele>
        <time>2017-11-13T12:03:52Z</time>
      </trkpt>
      <trkpt lat="43.94178" lon="5.3256">
        <ele>347.65</ele>
        <time>2017-11-13T12:04:11Z</time>
      </trkpt>
      <trkpt lat="43.94179" lon="5.32562">
        <ele>352.46</ele>
        <time>2017-11-13T12:04:36Z</time>
      </trkpt>
      <trkpt lat="43.94179" lon="5.32562">
        <ele>347.17</ele>
        <time>2017-11-13T12:04:37Z</time>
      </trkpt>
      <trkpt lat="43.94183" lon="5.32577">
        <ele>345.25</ele>
        <time>2017-11-13T12:04:51Z</time>
      </trkpt>
      <trkpt lat="43.94184" lon="5.3258">
        <ele>345.73</ele>
        <time>2017-11-13T12:05:02Z</time>
      </trkpt>
      <trkpt lat="43.94185" lon="5.32583">
        <ele>345.25</ele>
        <time>2017-11-13T12:05:29Z</time>
      </trkpt>
      <trkpt lat="43.94181" lon="5.32573">
        <ele>346.21</ele>
        <time>2017-11-13T12:05:39Z</time>
      </trkpt>
      <trkpt lat="43.94179" lon="5.32571">
        <ele>345.25</ele>
        <time>2017-11-13T12:05:44Z</time>
      </trkpt>
      <trkpt lat="43.94179" lon="5.32558">
        <ele>345.25</ele>
        <time>2017-11-13T12:05:58Z</time>
      </trkpt>
      <trkpt lat="43.94183" lon="5.32556">
        <ele>347.17</ele>
        <time>2017-11-13T12:06:12Z</time>
      </trkpt>
      <trkpt lat="43.94184" lon="5.32556">
        <ele>347.17</ele>
        <time>2017-11-13T12:06:30Z</time>
      </trkpt>
      <trkpt lat="43.94184" lon="5.32557">
        <ele>348.62</ele>
        <time>2017-11-13T12:06:37Z</time>
      </trkpt>
      <trkpt lat="43.94184" lon="5.32557">
        <ele>345.73</ele>
        <time>2017-11-13T12:06:43Z</time>
      </trkpt>
      <trkpt lat="43.94183" lon="5.32557">
        <ele>347.65</ele>
        <time>2017-11-13T12:06:48Z</time>
      </trkpt>
      <trkpt lat="43.94188" lon="5.32556">
        <ele>347.17</ele>
        <time>2017-11-13T12:07:03Z</time>
      </trkpt>
      <trkpt lat="43.94188" lon="5.32558">
        <ele>345.73</ele>
        <time>2017-11-13T12:07:20Z</time>
      </trkpt>
      <trkpt lat="43.94188" lon="5.32557">
        <ele>346.69</ele>
        <time>2017-11-13T12:07:28Z</time>
      </trkpt>
      <trkpt lat="43.94185" lon="5.32557">
        <ele>346.69</ele>
        <time>2017-11-13T12:07:52Z</time>
      </trkpt>
      <trkpt lat="43.94186" lon="5.32559">
        <ele>345.73</ele>
        <time>2017-11-13T12:07:57Z</time>
      </trkpt>
      <trkpt lat="43.94179" lon="5.32562">
        <ele>344.29</ele>
        <time>2017-11-13T12:08:02Z</time>
      </trkpt>
      <trkpt lat="43.94177" lon="5.32563">
        <ele>345.25</ele>
        <time>2017-11-13T12:08:04Z</time>
      </trkpt>
      <trkpt lat="43.94177" lon="5.32559">
        <ele>345.73</ele>
        <time>2017-11-13T12:08:15Z</time>
      </trkpt>
      <trkpt lat="43.94178" lon="5.32558">
        <ele>346.69</ele>
        <time>2017-11-13T12:08:27Z</time>
      </trkpt>
      <trkpt lat="43.94179" lon="5.32559">
        <ele>346.69</ele>
        <time>2017-11-13T12:08:36Z</time>
      </trkpt>
      <trkpt lat="43.94179" lon="5.32558">
        <ele>346.21</ele>
        <time>2017-11-13T12:09:02Z</time>
      </trkpt>
      <trkpt lat="43.94177" lon="5.32563">
        <ele>343.81</ele>
        <time>2017-11-13T12:09:13Z</time>
      </trkpt>
      <trkpt lat="43.94177" lon="5.32569">
        <ele>345.25</ele>
        <time>2017-11-13T12:09:18Z</time>
      </trkpt>
      <trkpt lat="43.94178" lon="5.32585">
        <ele>345.25</ele>
        <time>2017-11-13T12:09:36Z</time>
      </trkpt>
      <trkpt lat="43.94183" lon="5.32597">
        <ele>343.33</ele>
        <time>2017-11-13T12:09:50Z</time>
      </trkpt>
      <trkpt lat="43.94185" lon="5.326">
        <ele>344.77</ele>
        <time>2017-11-13T12:09:53Z</time>
      </trkpt>
      <trkpt lat="43.94192" lon="5.32621">
        <ele>344.77</ele>
        <time>2017-11-13T12:10:11Z</time>
      </trkpt>
      <trkpt lat="43.94196" lon="5.3263">
        <ele>345.73</ele>
        <time>2017-11-13T12:10:19Z</time>
      </trkpt>
      <trkpt lat="43.942" lon="5.3264">
        <ele>345.25</ele>
        <time>2017-11-13T12:10:29Z</time>
      </trkpt>
      <trkpt lat="43.94203" lon="5.32645">
        <ele>346.21</ele>
        <time>2017-11-13T12:10:34Z</time>
      </trkpt>
      <trkpt lat="43.94203" lon="5.32647">
        <ele>344.29</ele>
        <time>2017-11-13T12:10:36Z</time>
      </trkpt>
      <trkpt lat="43.94206" lon="5.32656">
        <ele>347.65</ele>
        <time>2017-11-13T12:10:43Z</time>
      </trkpt>
      <trkpt lat="43.94207" lon="5.32657">
        <ele>347.65</ele>
        <time>2017-11-13T12:10:44Z</time>
      </trkpt>
      <trkpt lat="43.94208" lon="5.3266">
        <ele>346.21</ele>
        <time>2017-11-13T12:10:47Z</time>
      </trkpt>
      <trkpt lat="43.94215" lon="5.32666">
        <ele>348.13</ele>
        <time>2017-11-13T12:10:57Z</time>
      </trkpt>
      <trkpt lat="43.94223" lon="5.32663">
        <ele>349.58</ele>
        <time>2017-11-13T12:11:08Z</time>
      </trkpt>
      <trkpt lat="43.94225" lon="5.3266">
        <ele>348.13</ele>
        <time>2017-11-13T12:11:11Z</time>
      </trkpt>
      <trkpt lat="43.94231" lon="5.32659">
        <ele>348.62</ele>
        <time>2017-11-13T12:11:22Z</time>
      </trkpt>
      <trkpt lat="43.94241" lon="5.32678">
        <ele>347.17</ele>
        <time>2017-11-13T12:11:41Z</time>
      </trkpt>
      <trkpt lat="43.94247" lon="5.3269">
        <ele>350.06</ele>
        <time>2017-11-13T12:11:52Z</time>
      </trkpt>
      <trkpt lat="43.94248" lon="5.32694">
        <ele>348.62</ele>
        <time>2017-11-13T12:11:55Z</time>
      </trkpt>
      <trkpt lat="43.94255" lon="5.32715">
        <ele>348.13</ele>
        <time>2017-11-13T12:12:12Z</time>
      </trkpt>
      <trkpt lat="43.94263" lon="5.3273">
        <ele>349.1</ele>
        <time>2017-11-13T12:12:27Z</time>
      </trkpt>
      <trkpt lat="43.94268" lon="5.32738">
        <ele>351.5</ele>
        <time>2017-11-13T12:12:35Z</time>
      </trkpt>
      <trkpt lat="43.94275" lon="5.32759">
        <ele>351.5</ele>
        <time>2017-11-13T12:12:53Z</time>
      </trkpt>
      <trkpt lat="43.94279" lon="5.32775">
        <ele>351.5</ele>
        <time>2017-11-13T12:13:08Z</time>
      </trkpt>
      <trkpt lat="43.94287" lon="5.32793">
        <ele>350.06</ele>
        <time>2017-11-13T12:13:21Z</time>
      </trkpt>
      <trkpt lat="43.94288" lon="5.32796">
        <ele>351.5</ele>
        <time>2017-11-13T12:13:24Z</time>
      </trkpt>
      <trkpt lat="43.9429" lon="5.32801">
        <ele>350.06</ele>
        <time>2017-11-13T12:13:27Z</time>
      </trkpt>
      <trkpt lat="43.94298" lon="5.32823">
        <ele>350.06</ele>
        <time>2017-11-13T12:13:44Z</time>
      </trkpt>
      <trkpt lat="43.94302" lon="5.32832">
        <ele>351.02</ele>
        <time>2017-11-13T12:13:52Z</time>
      </trkpt>
      <trkpt lat="43.94305" lon="5.32835">
        <ele>352.94</ele>
        <time>2017-11-13T12:13:56Z</time>
      </trkpt>
      <trkpt lat="43.94306" lon="5.32838">
        <ele>351.02</ele>
        <time>2017-11-13T12:13:58Z</time>
      </trkpt>
      <trkpt lat="43.94307" lon="5.3284">
        <ele>352.94</ele>
        <time>2017-11-13T12:14:00Z</time>
      </trkpt>
      <trkpt lat="43.94309" lon="5.32846">
        <ele>352.94</ele>
        <time>2017-11-13T12:14:05Z</time>
      </trkpt>
      <trkpt lat="43.9432" lon="5.32866">
        <ele>354.38</ele>
        <time>2017-11-13T12:14:23Z</time>
      </trkpt>
      <trkpt lat="43.94321" lon="5.32869">
        <ele>352.94</ele>
        <time>2017-11-13T12:14:26Z</time>
      </trkpt>
      <trkpt lat="43.94323" lon="5.32874">
        <ele>354.38</ele>
        <time>2017-11-13T12:14:29Z</time>
      </trkpt>
      <trkpt lat="43.94323" lon="5.32879">
        <ele>352.46</ele>
        <time>2017-11-13T12:14:33Z</time>
      </trkpt>
      <trkpt lat="43.94323" lon="5.32882">
        <ele>353.9</ele>
        <time>2017-11-13T12:14:35Z</time>
      </trkpt>
      <trkpt lat="43.94324" lon="5.32887">
        <ele>352.46</ele>
        <time>2017-11-13T12:14:39Z</time>
      </trkpt>
      <trkpt lat="43.94334" lon="5.32915">
        <ele>353.42</ele>
        <time>2017-11-13T12:14:58Z</time>
      </trkpt>
      <trkpt lat="43.94347" lon="5.32939">
        <ele>354.38</ele>
        <time>2017-11-13T12:15:17Z</time>
      </trkpt>
      <trkpt lat="43.94355" lon="5.32962">
        <ele>355.34</ele>
        <time>2017-11-13T12:15:36Z</time>
      </trkpt>
      <trkpt lat="43.94359" lon="5.32976">
        <ele>355.34</ele>
        <time>2017-11-13T12:15:46Z</time>
      </trkpt>
      <trkpt lat="43.94363" lon="5.32993">
        <ele>358.71</ele>
        <time>2017-11-13T12:15:58Z</time>
      </trkpt>
      <trkpt lat="43.94363" lon="5.32997">
        <ele>355.34</ele>
        <time>2017-11-13T12:16:01Z</time>
      </trkpt>
      <trkpt lat="43.94364" lon="5.33005">
        <ele>353.9</ele>
        <time>2017-11-13T12:16:06Z</time>
      </trkpt>
      <trkpt lat="43.94365" lon="5.33012">
        <ele>355.83</ele>
        <time>2017-11-13T12:16:11Z</time>
      </trkpt>
      <trkpt lat="43.94366" lon="5.33012">
        <ele>355.83</ele>
        <time>2017-11-13T12:16:23Z</time>
      </trkpt>
      <trkpt lat="43.94365" lon="5.33016">
        <ele>355.83</ele>
        <time>2017-11-13T12:16:32Z</time>
      </trkpt>
      <trkpt lat="43.94366" lon="5.33022">
        <ele>356.31</ele>
        <time>2017-11-13T12:16:38Z</time>
      </trkpt>
      <trkpt lat="43.94368" lon="5.33037">
        <ele>355.34</ele>
        <time>2017-11-13T12:16:50Z</time>
      </trkpt>
      <trkpt lat="43.94372" lon="5.33049">
        <ele>356.31</ele>
        <time>2017-11-13T12:17:00Z</time>
      </trkpt>
      <trkpt lat="43.94374" lon="5.33055">
        <ele>354.38</ele>
        <time>2017-11-13T12:17:04Z</time>
      </trkpt>
      <trkpt lat="43.94378" lon="5.33074">
        <ele>358.23</ele>
        <time>2017-11-13T12:17:18Z</time>
      </trkpt>
      <trkpt lat="43.94377" lon="5.33078">
        <ele>356.79</ele>
        <time>2017-11-13T12:17:22Z</time>
      </trkpt>
      <trkpt lat="43.94375" lon="5.33084">
        <ele>358.23</ele>
        <time>2017-11-13T12:17:27Z</time>
      </trkpt>
      <trkpt lat="43.94371" lon="5.33103">
        <ele>356.79</ele>
        <time>2017-11-13T12:17:40Z</time>
      </trkpt>
      <trkpt lat="43.94366" lon="5.33116">
        <ele>360.15</ele>
        <time>2017-11-13T12:17:50Z</time>
      </trkpt>
      <trkpt lat="43.94366" lon="5.33117">
        <ele>357.27</ele>
        <time>2017-11-13T12:17:51Z</time>
      </trkpt>
      <trkpt lat="43.94365" lon="5.33122">
        <ele>355.83</ele>
        <time>2017-11-13T12:17:55Z</time>
      </trkpt>
      <trkpt lat="43.94364" lon="5.33125">
        <ele>354.86</ele>
        <time>2017-11-13T12:17:57Z</time>
      </trkpt>
      <trkpt lat="43.94362" lon="5.33133">
        <ele>356.79</ele>
        <time>2017-11-13T12:18:02Z</time>
      </trkpt>
      <trkpt lat="43.94358" lon="5.33141">
        <ele>355.34</ele>
        <time>2017-11-13T12:18:08Z</time>
      </trkpt>
      <trkpt lat="43.94351" lon="5.33161">
        <ele>353.9</ele>
        <time>2017-11-13T12:18:23Z</time>
      </trkpt>
      <trkpt lat="43.94349" lon="5.33165">
        <ele>356.79</ele>
        <time>2017-11-13T12:18:26Z</time>
      </trkpt>
      <trkpt lat="43.94347" lon="5.33171">
        <ele>353.9</ele>
        <time>2017-11-13T12:18:31Z</time>
      </trkpt>
      <trkpt lat="43.94345" lon="5.33174">
        <ele>354.86</ele>
        <time>2017-11-13T12:18:34Z</time>
      </trkpt>
      <trkpt lat="43.94344" lon="5.33179">
        <ele>351.5</ele>
        <time>2017-11-13T12:18:38Z</time>
      </trkpt>
      <trkpt lat="43.94343" lon="5.3318">
        <ele>351.5</ele>
        <time>2017-11-13T12:18:39Z</time>
      </trkpt>
      <trkpt lat="43.94338" lon="5.33192">
        <ele>354.38</ele>
        <time>2017-11-13T12:18:49Z</time>
      </trkpt>
      <trkpt lat="43.94329" lon="5.33214">
        <ele>353.42</ele>
        <time>2017-11-13T12:19:06Z</time>
      </trkpt>
      <trkpt lat="43.94328" lon="5.33217">
        <ele>351.98</ele>
        <time>2017-11-13T12:19:08Z</time>
      </trkpt>
      <trkpt lat="43.94326" lon="5.33222">
        <ele>353.9</ele>
        <time>2017-11-13T12:19:12Z</time>
      </trkpt>
      <trkpt lat="43.94321" lon="5.33234">
        <ele>352.46</ele>
        <time>2017-11-13T12:19:21Z</time>
      </trkpt>
      <trkpt lat="43.94313" lon="5.33263">
        <ele>351.98</ele>
        <time>2017-11-13T12:19:42Z</time>
      </trkpt>
      <trkpt lat="43.94311" lon="5.33285">
        <ele>351.02</ele>
        <time>2017-11-13T12:19:58Z</time>
      </trkpt>
      <trkpt lat="43.94311" lon="5.33315">
        <ele>351.98</ele>
        <time>2017-11-13T12:20:19Z</time>
      </trkpt>
      <trkpt lat="43.94308" lon="5.3333">
        <ele>351.02</ele>
        <time>2017-11-13T12:20:28Z</time>
      </trkpt>
      <trkpt lat="43.94303" lon="5.33347">
        <ele>351.98</ele>
        <time>2017-11-13T12:20:38Z</time>
      </trkpt>
      <trkpt lat="43.94301" lon="5.33356">
        <ele>351.02</ele>
        <time>2017-11-13T12:20:46Z</time>
      </trkpt>
      <trkpt lat="43.94301" lon="5.33358">
        <ele>352.46</ele>
        <time>2017-11-13T12:20:51Z</time>
      </trkpt>
      <trkpt lat="43.94301" lon="5.33359">
        <ele>351.02</ele>
        <time>2017-11-13T12:20:55Z</time>
      </trkpt>
      <trkpt lat="43.943" lon="5.33363">
        <ele>352.46</ele>
        <time>2017-11-13T12:21:05Z</time>
      </trkpt>
      <trkpt lat="43.94298" lon="5.33374">
        <ele>351.98</ele>
        <time>2017-11-13T12:21:15Z</time>
      </trkpt>
      <trkpt lat="43.94295" lon="5.33395">
        <ele>351.5</ele>
        <time>2017-11-13T12:21:30Z</time>
      </trkpt>
      <trkpt lat="43.94289" lon="5.33423">
        <ele>351.5</ele>
        <time>2017-11-13T12:21:49Z</time>
      </trkpt>
      <trkpt lat="43.94281" lon="5.33446">
        <ele>356.79</ele>
        <time>2017-11-13T12:22:08Z</time>
      </trkpt>
      <trkpt lat="43.9428" lon="5.33448">
        <ele>356.79</ele>
        <time>2017-11-13T12:22:09Z</time>
      </trkpt>
      <trkpt lat="43.9428" lon="5.33449">
        <ele>352.94</ele>
        <time>2017-11-13T12:22:10Z</time>
      </trkpt>
      <trkpt lat="43.94279" lon="5.33451">
        <ele>351.02</ele>
        <time>2017-11-13T12:22:12Z</time>
      </trkpt>
      <trkpt lat="43.94273" lon="5.33466">
        <ele>354.86</ele>
        <time>2017-11-13T12:22:24Z</time>
      </trkpt>
      <trkpt lat="43.94273" lon="5.33467">
        <ele>353.9</ele>
        <time>2017-11-13T12:22:25Z</time>
      </trkpt>
      <trkpt lat="43.94271" lon="5.33469">
        <ele>352.46</ele>
        <time>2017-11-13T12:22:27Z</time>
      </trkpt>
      <trkpt lat="43.94262" lon="5.33485">
        <ele>351.02</ele>
        <time>2017-11-13T12:22:43Z</time>
      </trkpt>
      <trkpt lat="43.94256" lon="5.33493">
        <ele>347.65</ele>
        <time>2017-11-13T12:22:51Z</time>
      </trkpt>
      <trkpt lat="43.94255" lon="5.33496">
        <ele>346.69</ele>
        <time>2017-11-13T12:22:53Z</time>
      </trkpt>
      <trkpt lat="43.9425" lon="5.33506">
        <ele>348.13</ele>
        <time>2017-11-13T12:23:01Z</time>
      </trkpt>
      <trkpt lat="43.94249" lon="5.3351">
        <ele>346.21</ele>
        <time>2017-11-13T12:23:04Z</time>
      </trkpt>
      <trkpt lat="43.94244" lon="5.33523">
        <ele>345.25</ele>
        <time>2017-11-13T12:23:14Z</time>
      </trkpt>
      <trkpt lat="43.94238" lon="5.33543">
        <ele>344.29</ele>
        <time>2017-11-13T12:23:29Z</time>
      </trkpt>
      <trkpt lat="43.94237" lon="5.3355">
        <ele>346.21</ele>
        <time>2017-11-13T12:23:34Z</time>
      </trkpt>
      <trkpt lat="43.94227" lon="5.33572">
        <ele>343.33</ele>
        <time>2017-11-13T12:23:54Z</time>
      </trkpt>
      <trkpt lat="43.94221" lon="5.33579">
        <ele>344.77</ele>
        <time>2017-11-13T12:24:02Z</time>
      </trkpt>
      <trkpt lat="43.94202" lon="5.33587">
        <ele>346.21</ele>
        <time>2017-11-13T12:24:20Z</time>
      </trkpt>
      <trkpt lat="43.94189" lon="5.33592">
        <ele>346.21</ele>
        <time>2017-11-13T12:24:36Z</time>
      </trkpt>
      <trkpt lat="43.94181" lon="5.33592">
        <ele>348.62</ele>
        <time>2017-11-13T12:24:43Z</time>
      </trkpt>
      <trkpt lat="43.94175" lon="5.33593">
        <ele>349.1</ele>
        <time>2017-11-13T12:24:48Z</time>
      </trkpt>
      <trkpt lat="43.94155" lon="5.33593">
        <ele>351.98</ele>
        <time>2017-11-13T12:25:06Z</time>
      </trkpt>
      <trkpt lat="43.94153" lon="5.33593">
        <ele>350.06</ele>
        <time>2017-11-13T12:25:08Z</time>
      </trkpt>
      <trkpt lat="43.94146" lon="5.33593">
        <ele>349.1</ele>
        <time>2017-11-13T12:25:14Z</time>
      </trkpt>
      <trkpt lat="43.94143" lon="5.33594">
        <ele>351.98</ele>
        <time>2017-11-13T12:25:17Z</time>
      </trkpt>
      <trkpt lat="43.94124" lon="5.33598">
        <ele>352.46</ele>
        <time>2017-11-13T12:25:33Z</time>
      </trkpt>
      <trkpt lat="43.94121" lon="5.336">
        <ele>349.58</ele>
        <time>2017-11-13T12:25:36Z</time>
      </trkpt>
      <trkpt lat="43.9411" lon="5.33608">
        <ele>351.02</ele>
        <time>2017-11-13T12:25:47Z</time>
      </trkpt>
      <trkpt lat="43.94108" lon="5.3361">
        <ele>349.58</ele>
        <time>2017-11-13T12:25:49Z</time>
      </trkpt>
      <trkpt lat="43.94105" lon="5.33612">
        <ele>346.21</ele>
        <time>2017-11-13T12:25:52Z</time>
      </trkpt>
      <trkpt lat="43.94103" lon="5.33614">
        <ele>348.62</ele>
        <time>2017-11-13T12:25:55Z</time>
      </trkpt>
      <trkpt lat="43.94097" lon="5.33621">
        <ele>345.25</ele>
        <time>2017-11-13T12:26:02Z</time>
      </trkpt>
      <trkpt lat="43.94096" lon="5.33622">
        <ele>345.25</ele>
        <time>2017-11-13T12:26:03Z</time>
      </trkpt>
      <trkpt lat="43.94095" lon="5.33624">
        <ele>348.62</ele>
        <time>2017-11-13T12:26:04Z</time>
      </trkpt>
      <trkpt lat="43.94094" lon="5.33625">
        <ele>348.62</ele>
        <time>2017-11-13T12:26:05Z</time>
      </trkpt>
      <trkpt lat="43.94089" lon="5.33635">
        <ele>351.5</ele>
        <time>2017-11-13T12:26:15Z</time>
      </trkpt>
      <trkpt lat="43.94088" lon="5.33636">
        <ele>349.58</ele>
        <time>2017-11-13T12:26:17Z</time>
      </trkpt>
      <trkpt lat="43.94087" lon="5.33638">
        <ele>348.62</ele>
        <time>2017-11-13T12:26:20Z</time>
      </trkpt>
      <trkpt lat="43.94086" lon="5.33639">
        <ele>350.06</ele>
        <time>2017-11-13T12:26:24Z</time>
      </trkpt>
      <trkpt lat="43.94086" lon="5.3364">
        <ele>348.62</ele>
        <time>2017-11-13T12:26:30Z</time>
      </trkpt>
      <trkpt lat="43.94085" lon="5.33641">
        <ele>350.54</ele>
        <time>2017-11-13T12:26:37Z</time>
      </trkpt>
      <trkpt lat="43.94083" lon="5.33646">
        <ele>351.98</ele>
        <time>2017-11-13T12:26:46Z</time>
      </trkpt>
      <trkpt lat="43.94082" lon="5.3365">
        <ele>350.54</ele>
        <time>2017-11-13T12:26:49Z</time>
      </trkpt>
      <trkpt lat="43.94081" lon="5.33652">
        <ele>349.1</ele>
        <time>2017-11-13T12:26:51Z</time>
      </trkpt>
      <trkpt lat="43.9408" lon="5.33654">
        <ele>346.21</ele>
        <time>2017-11-13T12:26:53Z</time>
      </trkpt>
      <trkpt lat="43.94079" lon="5.33658">
        <ele>348.62</ele>
        <time>2017-11-13T12:26:56Z</time>
      </trkpt>
      <trkpt lat="43.94079" lon="5.3366">
        <ele>353.9</ele>
        <time>2017-11-13T12:26:57Z</time>
      </trkpt>
      <trkpt lat="43.94079" lon="5.33661">
        <ele>349.58</ele>
        <time>2017-11-13T12:26:58Z</time>
      </trkpt>
      <trkpt lat="43.94076" lon="5.33677">
        <ele>345.25</ele>
        <time>2017-11-13T12:27:09Z</time>
      </trkpt>
      <trkpt lat="43.94076" lon="5.33678">
        <ele>345.25</ele>
        <time>2017-11-13T12:27:10Z</time>
      </trkpt>
      <trkpt lat="43.94076" lon="5.33678">
        <ele>346.69</ele>
        <time>2017-11-13T12:27:17Z</time>
      </trkpt>
      <trkpt lat="43.94076" lon="5.33682">
        <ele>343.81</ele>
        <time>2017-11-13T12:27:24Z</time>
      </trkpt>
      <trkpt lat="43.94075" lon="5.33686">
        <ele>343.81</ele>
        <time>2017-11-13T12:27:30Z</time>
      </trkpt>
      <trkpt lat="43.94074" lon="5.33696">
        <ele>342.85</ele>
        <time>2017-11-13T12:27:42Z</time>
      </trkpt>
      <trkpt lat="43.94071" lon="5.33707">
        <ele>339.48</ele>
        <time>2017-11-13T12:27:52Z</time>
      </trkpt>
      <trkpt lat="43.94071" lon="5.33708">
        <ele>339.48</ele>
        <time>2017-11-13T12:27:53Z</time>
      </trkpt>
      <trkpt lat="43.9407" lon="5.33712">
        <ele>342.85</ele>
        <time>2017-11-13T12:27:56Z</time>
      </trkpt>
      <trkpt lat="43.94069" lon="5.33713">
        <ele>342.85</ele>
        <time>2017-11-13T12:27:57Z</time>
      </trkpt>
      <trkpt lat="43.94065" lon="5.3373">
        <ele>339.48</ele>
        <time>2017-11-13T12:28:09Z</time>
      </trkpt>
      <trkpt lat="43.94065" lon="5.33732">
        <ele>339.48</ele>
        <time>2017-11-13T12:28:10Z</time>
      </trkpt>
      <trkpt lat="43.94064" lon="5.33736">
        <ele>339.96</ele>
        <time>2017-11-13T12:28:13Z</time>
      </trkpt>
      <trkpt lat="43.94063" lon="5.33741">
        <ele>338.52</ele>
        <time>2017-11-13T12:28:18Z</time>
      </trkpt>
      <trkpt lat="43.94061" lon="5.33746">
        <ele>336.6</ele>
        <time>2017-11-13T12:28:28Z</time>
      </trkpt>
      <trkpt lat="43.9406" lon="5.33744">
        <ele>339.48</ele>
        <time>2017-11-13T12:28:31Z</time>
      </trkpt>
      <trkpt lat="43.94059" lon="5.3375">
        <ele>337.56</ele>
        <time>2017-11-13T12:28:37Z</time>
      </trkpt>
      <trkpt lat="43.94058" lon="5.33754">
        <ele>337.56</ele>
        <time>2017-11-13T12:28:40Z</time>
      </trkpt>
      <trkpt lat="43.94051" lon="5.3378">
        <ele>336.12</ele>
        <time>2017-11-13T12:29:00Z</time>
      </trkpt>
      <trkpt lat="43.94049" lon="5.33794">
        <ele>333.71</ele>
        <time>2017-11-13T12:29:10Z</time>
      </trkpt>
      <trkpt lat="43.9405" lon="5.338">
        <ele>331.79</ele>
        <time>2017-11-13T12:29:14Z</time>
      </trkpt>
      <trkpt lat="43.9405" lon="5.33832">
        <ele>328.43</ele>
        <time>2017-11-13T12:29:37Z</time>
      </trkpt>
      <trkpt lat="43.9405" lon="5.33833">
        <ele>328.43</ele>
        <time>2017-11-13T12:29:38Z</time>
      </trkpt>
      <trkpt lat="43.94049" lon="5.33837">
        <ele>332.75</ele>
        <time>2017-11-13T12:29:41Z</time>
      </trkpt>
      <trkpt lat="43.9405" lon="5.33839">
        <ele>332.75</ele>
        <time>2017-11-13T12:29:42Z</time>
      </trkpt>
      <trkpt lat="43.9405" lon="5.33841">
        <ele>329.87</ele>
        <time>2017-11-13T12:29:44Z</time>
      </trkpt>
      <trkpt lat="43.94053" lon="5.33869">
        <ele>328.43</ele>
        <time>2017-11-13T12:30:04Z</time>
      </trkpt>
      <trkpt lat="43.94054" lon="5.33874">
        <ele>326.5</ele>
        <time>2017-11-13T12:30:08Z</time>
      </trkpt>
      <trkpt lat="43.94058" lon="5.33884">
        <ele>327.47</ele>
        <time>2017-11-13T12:30:17Z</time>
      </trkpt>
      <trkpt lat="43.94059" lon="5.33887">
        <ele>328.91</ele>
        <time>2017-11-13T12:30:20Z</time>
      </trkpt>
      <trkpt lat="43.9406" lon="5.33892">
        <ele>327.95</ele>
        <time>2017-11-13T12:30:24Z</time>
      </trkpt>
      <trkpt lat="43.94067" lon="5.33907">
        <ele>326.02</ele>
        <time>2017-11-13T12:30:38Z</time>
      </trkpt>
      <trkpt lat="43.94069" lon="5.33911">
        <ele>325.06</ele>
        <time>2017-11-13T12:30:42Z</time>
      </trkpt>
      <trkpt lat="43.94079" lon="5.33927">
        <ele>324.58</ele>
        <time>2017-11-13T12:30:58Z</time>
      </trkpt>
      <trkpt lat="43.94083" lon="5.33932">
        <ele>324.58</ele>
        <time>2017-11-13T12:31:04Z</time>
      </trkpt>
      <trkpt lat="43.94089" lon="5.33939">
        <ele>323.62</ele>
        <time>2017-11-13T12:31:12Z</time>
      </trkpt>
      <trkpt lat="43.94095" lon="5.33948">
        <ele>319.78</ele>
        <time>2017-11-13T12:31:22Z</time>
      </trkpt>
      <trkpt lat="43.94098" lon="5.33955">
        <ele>318.81</ele>
        <time>2017-11-13T12:31:29Z</time>
      </trkpt>
      <trkpt lat="43.94099" lon="5.33958">
        <ele>321.7</ele>
        <time>2017-11-13T12:31:32Z</time>
      </trkpt>
      <trkpt lat="43.941" lon="5.3396">
        <ele>316.89</ele>
        <time>2017-11-13T12:31:34Z</time>
      </trkpt>
      <trkpt lat="43.94101" lon="5.3396">
        <ele>316.89</ele>
        <time>2017-11-13T12:31:35Z</time>
      </trkpt>
      <trkpt lat="43.94102" lon="5.33965">
        <ele>315.45</ele>
        <time>2017-11-13T12:31:40Z</time>
      </trkpt>
      <trkpt lat="43.94105" lon="5.33973">
        <ele>316.41</ele>
        <time>2017-11-13T12:31:47Z</time>
      </trkpt>
      <trkpt lat="43.94107" lon="5.33978">
        <ele>312.57</ele>
        <time>2017-11-13T12:31:51Z</time>
      </trkpt>
      <trkpt lat="43.94108" lon="5.33983">
        <ele>315.45</ele>
        <time>2017-11-13T12:31:55Z</time>
      </trkpt>
      <trkpt lat="43.94108" lon="5.33986">
        <ele>316.41</ele>
        <time>2017-11-13T12:31:57Z</time>
      </trkpt>
      <trkpt lat="43.94109" lon="5.3399">
        <ele>314.97</ele>
        <time>2017-11-13T12:32:00Z</time>
      </trkpt>
      <trkpt lat="43.94108" lon="5.34001">
        <ele>314.49</ele>
        <time>2017-11-13T12:32:09Z</time>
      </trkpt>
      <trkpt lat="43.94104" lon="5.34023">
        <ele>312.57</ele>
        <time>2017-11-13T12:32:26Z</time>
      </trkpt>
      <trkpt lat="43.94103" lon="5.3403">
        <ele>311.6</ele>
        <time>2017-11-13T12:32:36Z</time>
      </trkpt>
      <trkpt lat="43.94098" lon="5.34032">
        <ele>308.72</ele>
        <time>2017-11-13T12:32:46Z</time>
      </trkpt>
      <trkpt lat="43.94094" lon="5.34032">
        <ele>311.6</ele>
        <time>2017-11-13T12:32:50Z</time>
      </trkpt>
      <trkpt lat="43.94092" lon="5.34032">
        <ele>311.6</ele>
        <time>2017-11-13T12:32:52Z</time>
      </trkpt>
      <trkpt lat="43.94072" lon="5.34026">
        <ele>312.09</ele>
        <time>2017-11-13T12:33:10Z</time>
      </trkpt>
      <trkpt lat="43.9405" lon="5.34019">
        <ele>311.6</ele>
        <time>2017-11-13T12:33:30Z</time>
      </trkpt>
      <trkpt lat="43.94039" lon="5.34014">
        <ele>313.05</ele>
        <time>2017-11-13T12:33:41Z</time>
      </trkpt>
      <trkpt lat="43.94037" lon="5.34013">
        <ele>311.6</ele>
        <time>2017-11-13T12:33:43Z</time>
      </trkpt>
      <trkpt lat="43.94033" lon="5.34008">
        <ele>309.68</ele>
        <time>2017-11-13T12:33:58Z</time>
      </trkpt>
      <trkpt lat="43.94033" lon="5.34008">
        <ele>310.16</ele>
        <time>2017-11-13T12:34:14Z</time>
      </trkpt>
      <trkpt lat="43.94033" lon="5.34009">
        <ele>311.6</ele>
        <time>2017-11-13T12:34:18Z</time>
      </trkpt>
      <trkpt lat="43.9402" lon="5.3401">
        <ele>308.24</ele>
        <time>2017-11-13T12:34:32Z</time>
      </trkpt>
      <trkpt lat="43.94017" lon="5.34008">
        <ele>306.32</ele>
        <time>2017-11-13T12:34:36Z</time>
      </trkpt>
      <trkpt lat="43.94014" lon="5.34007">
        <ele>302.95</ele>
        <time>2017-11-13T12:34:39Z</time>
      </trkpt>
      <trkpt lat="43.94012" lon="5.34007">
        <ele>306.8</ele>
        <time>2017-11-13T12:34:41Z</time>
      </trkpt>
      <trkpt lat="43.94011" lon="5.34006">
        <ele>306.8</ele>
        <time>2017-11-13T12:34:42Z</time>
      </trkpt>
      <trkpt lat="43.94005" lon="5.34003">
        <ele>308.72</ele>
        <time>2017-11-13T12:34:49Z</time>
      </trkpt>
      <trkpt lat="43.93999" lon="5.34">
        <ele>310.16</ele>
        <time>2017-11-13T12:34:55Z</time>
      </trkpt>
      <trkpt lat="43.93997" lon="5.33999">
        <ele>308.72</ele>
        <time>2017-11-13T12:34:57Z</time>
      </trkpt>
      <trkpt lat="43.93986" lon="5.33993">
        <ele>310.64</ele>
        <time>2017-11-13T12:35:08Z</time>
      </trkpt>
      <trkpt lat="43.93982" lon="5.3399">
        <ele>307.28</ele>
        <time>2017-11-13T12:35:12Z</time>
      </trkpt>
      <trkpt lat="43.93981" lon="5.3399">
        <ele>307.28</ele>
        <time>2017-11-13T12:35:13Z</time>
      </trkpt>
      <trkpt lat="43.93969" lon="5.33982">
        <ele>303.91</ele>
        <time>2017-11-13T12:35:25Z</time>
      </trkpt>
      <trkpt lat="43.93968" lon="5.33982">
        <ele>303.91</ele>
        <time>2017-11-13T12:35:26Z</time>
      </trkpt>
      <trkpt lat="43.93962" lon="5.33978">
        <ele>306.8</ele>
        <time>2017-11-13T12:35:32Z</time>
      </trkpt>
      <trkpt lat="43.93953" lon="5.33971">
        <ele>306.32</ele>
        <time>2017-11-13T12:35:41Z</time>
      </trkpt>
      <trkpt lat="43.93946" lon="5.33964">
        <ele>307.76</ele>
        <time>2017-11-13T12:35:48Z</time>
      </trkpt>
      <trkpt lat="43.93933" lon="5.33951">
        <ele>311.12</ele>
        <time>2017-11-13T12:36:03Z</time>
      </trkpt>
      <trkpt lat="43.93932" lon="5.3395">
        <ele>311.12</ele>
        <time>2017-11-13T12:36:04Z</time>
      </trkpt>
      <trkpt lat="43.93925" lon="5.33944">
        <ele>309.2</ele>
        <time>2017-11-13T12:36:11Z</time>
      </trkpt>
      <trkpt lat="43.93923" lon="5.33943">
        <ele>310.16</ele>
        <time>2017-11-13T12:36:13Z</time>
      </trkpt>
      <trkpt lat="43.9392" lon="5.3394">
        <ele>306.8</ele>
        <time>2017-11-13T12:36:19Z</time>
      </trkpt>
      <trkpt lat="43.9392" lon="5.3394">
        <ele>306.8</ele>
        <time>2017-11-13T12:36:20Z</time>
      </trkpt>
      <trkpt lat="43.9392" lon="5.33939">
        <ele>308.24</ele>
        <time>2017-11-13T12:36:26Z</time>
      </trkpt>
      <trkpt lat="43.93919" lon="5.33939">
        <ele>306.32</ele>
        <time>2017-11-13T12:36:38Z</time>
      </trkpt>
      <trkpt lat="43.93919" lon="5.33939">
        <ele>307.76</ele>
        <time>2017-11-13T12:36:45Z</time>
      </trkpt>
      <trkpt lat="43.9392" lon="5.33939">
        <ele>305.84</ele>
        <time>2017-11-13T12:36:48Z</time>
      </trkpt>
      <trkpt lat="43.93919" lon="5.33939">
        <ele>307.76</ele>
        <time>2017-11-13T12:36:53Z</time>
      </trkpt>
      <trkpt lat="43.93919" lon="5.33937">
        <ele>310.64</ele>
        <time>2017-11-13T12:37:01Z</time>
      </trkpt>
      <trkpt lat="43.93914" lon="5.33932">
        <ele>310.64</ele>
        <time>2017-11-13T12:37:12Z</time>
      </trkpt>
      <trkpt lat="43.93912" lon="5.33931">
        <ele>309.2</ele>
        <time>2017-11-13T12:37:14Z</time>
      </trkpt>
      <trkpt lat="43.93898" lon="5.33916">
        <ele>305.36</ele>
        <time>2017-11-13T12:37:30Z</time>
      </trkpt>
      <trkpt lat="43.93898" lon="5.33915">
        <ele>305.36</ele>
        <time>2017-11-13T12:37:31Z</time>
      </trkpt>
      <trkpt lat="43.93895" lon="5.33912">
        <ele>306.8</ele>
        <time>2017-11-13T12:37:34Z</time>
      </trkpt>
      <trkpt lat="43.93886" lon="5.33901">
        <ele>309.2</ele>
        <time>2017-11-13T12:37:45Z</time>
      </trkpt>
      <trkpt lat="43.93865" lon="5.33901">
        <ele>306.32</ele>
        <time>2017-11-13T12:38:04Z</time>
      </trkpt>
      <trkpt lat="43.93841" lon="5.33903">
        <ele>306.8</ele>
        <time>2017-11-13T12:38:26Z</time>
      </trkpt>
      <trkpt lat="43.93821" lon="5.339">
        <ele>307.28</ele>
        <time>2017-11-13T12:38:45Z</time>
      </trkpt>
      <trkpt lat="43.93801" lon="5.33901">
        <ele>305.84</ele>
        <time>2017-11-13T12:39:02Z</time>
      </trkpt>
      <trkpt lat="43.9378" lon="5.33917">
        <ele>306.32</ele>
        <time>2017-11-13T12:39:21Z</time>
      </trkpt>
      <trkpt lat="43.93758" lon="5.33933">
        <ele>305.84</ele>
        <time>2017-11-13T12:39:43Z</time>
      </trkpt>
      <trkpt lat="43.93748" lon="5.33939">
        <ele>304.88</ele>
        <time>2017-11-13T12:39:54Z</time>
      </trkpt>
      <trkpt lat="43.93734" lon="5.3394">
        <ele>304.39</ele>
        <time>2017-11-13T12:40:08Z</time>
      </trkpt>
      <trkpt lat="43.93731" lon="5.33939">
        <ele>306.32</ele>
        <time>2017-11-13T12:40:11Z</time>
      </trkpt>
      <trkpt lat="43.93723" lon="5.33937">
        <ele>304.88</ele>
        <time>2017-11-13T12:40:19Z</time>
      </trkpt>
      <trkpt lat="43.93709" lon="5.33928">
        <ele>304.88</ele>
        <time>2017-11-13T12:40:32Z</time>
      </trkpt>
      <trkpt lat="43.93706" lon="5.33926">
        <ele>306.32</ele>
        <time>2017-11-13T12:40:35Z</time>
      </trkpt>
      <trkpt lat="43.93685" lon="5.33935">
        <ele>304.39</ele>
        <time>2017-11-13T12:40:55Z</time>
      </trkpt>
      <trkpt lat="43.9367" lon="5.33948">
        <ele>303.43</ele>
        <time>2017-11-13T12:41:11Z</time>
      </trkpt>
      <trkpt lat="43.93652" lon="5.33952">
        <ele>302.95</ele>
        <time>2017-11-13T12:41:29Z</time>
      </trkpt>
      <trkpt lat="43.93651" lon="5.33952">
        <ele>302.95</ele>
        <time>2017-11-13T12:41:30Z</time>
      </trkpt>
      <trkpt lat="43.93646" lon="5.3395">
        <ele>301.51</ele>
        <time>2017-11-13T12:41:35Z</time>
      </trkpt>
      <trkpt lat="43.93629" lon="5.3394">
        <ele>300.55</ele>
        <time>2017-11-13T12:41:52Z</time>
      </trkpt>
      <trkpt lat="43.93625" lon="5.33936">
        <ele>302.47</ele>
        <time>2017-11-13T12:41:56Z</time>
      </trkpt>
      <trkpt lat="43.93608" lon="5.33927">
        <ele>302.47</ele>
        <time>2017-11-13T12:42:10Z</time>
      </trkpt>
      <trkpt lat="43.93603" lon="5.33926">
        <ele>305.36</ele>
        <time>2017-11-13T12:42:14Z</time>
      </trkpt>
      <trkpt lat="43.93596" lon="5.33925">
        <ele>301.99</ele>
        <time>2017-11-13T12:42:19Z</time>
      </trkpt>
      <trkpt lat="43.93569" lon="5.33922">
        <ele>300.07</ele>
        <time>2017-11-13T12:42:42Z</time>
      </trkpt>
      <trkpt lat="43.9356" lon="5.33918">
        <ele>300.55</ele>
        <time>2017-11-13T12:42:50Z</time>
      </trkpt>
      <trkpt lat="43.93554" lon="5.33917">
        <ele>301.99</ele>
        <time>2017-11-13T12:42:55Z</time>
      </trkpt>
      <trkpt lat="43.93551" lon="5.33916">
        <ele>301.03</ele>
        <time>2017-11-13T12:42:57Z</time>
      </trkpt>
      <trkpt lat="43.93548" lon="5.33915">
        <ele>299.59</ele>
        <time>2017-11-13T12:43:00Z</time>
      </trkpt>
      <trkpt lat="43.9353" lon="5.33902">
        <ele>299.59</ele>
        <time>2017-11-13T12:43:18Z</time>
      </trkpt>
      <trkpt lat="43.93524" lon="5.33899">
        <ele>301.03</ele>
        <time>2017-11-13T12:43:24Z</time>
      </trkpt>
      <trkpt lat="43.93512" lon="5.33894">
        <ele>300.07</ele>
        <time>2017-11-13T12:43:35Z</time>
      </trkpt>
      <trkpt lat="43.9351" lon="5.33893">
        <ele>301.51</ele>
        <time>2017-11-13T12:43:37Z</time>
      </trkpt>
      <trkpt lat="43.935" lon="5.33884">
        <ele>298.15</ele>
        <time>2017-11-13T12:43:48Z</time>
      </trkpt>
      <trkpt lat="43.93482" lon="5.33878">
        <ele>300.07</ele>
        <time>2017-11-13T12:44:05Z</time>
      </trkpt>
      <trkpt lat="43.93479" lon="5.33879">
        <ele>302.47</ele>
        <time>2017-11-13T12:44:08Z</time>
      </trkpt>
      <trkpt lat="43.93477" lon="5.3388">
        <ele>300.07</ele>
        <time>2017-11-13T12:44:10Z</time>
      </trkpt>
      <trkpt lat="43.93473" lon="5.33881">
        <ele>301.99</ele>
        <time>2017-11-13T12:44:13Z</time>
      </trkpt>
      <trkpt lat="43.93462" lon="5.33882">
        <ele>298.63</ele>
        <time>2017-11-13T12:44:23Z</time>
      </trkpt>
      <trkpt lat="43.93459" lon="5.33883">
        <ele>301.03</ele>
        <time>2017-11-13T12:44:25Z</time>
      </trkpt>
      <trkpt lat="43.93457" lon="5.33882">
        <ele>299.11</ele>
        <time>2017-11-13T12:44:27Z</time>
      </trkpt>
      <trkpt lat="43.93448" lon="5.33882">
        <ele>301.03</ele>
        <time>2017-11-13T12:44:35Z</time>
      </trkpt>
      <trkpt lat="43.93441" lon="5.33884">
        <ele>298.15</ele>
        <time>2017-11-13T12:44:42Z</time>
      </trkpt>
      <trkpt lat="43.93438" lon="5.33885">
        <ele>299.59</ele>
        <time>2017-11-13T12:44:45Z</time>
      </trkpt>
      <trkpt lat="43.93431" lon="5.33889">
        <ele>297.67</ele>
        <time>2017-11-13T12:44:52Z</time>
      </trkpt>
      <trkpt lat="43.93428" lon="5.33892">
        <ele>299.59</ele>
        <time>2017-11-13T12:44:55Z</time>
      </trkpt>
      <trkpt lat="43.93415" lon="5.33902">
        <ele>298.63</ele>
        <time>2017-11-13T12:45:09Z</time>
      </trkpt>
      <trkpt lat="43.93411" lon="5.33904">
        <ele>296.22</ele>
        <time>2017-11-13T12:45:13Z</time>
      </trkpt>
      <trkpt lat="43.93394" lon="5.33903">
        <ele>298.15</ele>
        <time>2017-11-13T12:45:28Z</time>
      </trkpt>
      <trkpt lat="43.93391" lon="5.33903">
        <ele>298.15</ele>
        <time>2017-11-13T12:45:30Z</time>
      </trkpt>
      <trkpt lat="43.93375" lon="5.33901">
        <ele>296.7</ele>
        <time>2017-11-13T12:45:43Z</time>
      </trkpt>
      <trkpt lat="43.93373" lon="5.33901">
        <ele>298.15</ele>
        <time>2017-11-13T12:45:45Z</time>
      </trkpt>
      <trkpt lat="43.93369" lon="5.339">
        <ele>298.15</ele>
        <time>2017-11-13T12:45:49Z</time>
      </trkpt>
      <trkpt lat="43.93358" lon="5.33898">
        <ele>294.78</ele>
        <time>2017-11-13T12:45:58Z</time>
      </trkpt>
      <trkpt lat="43.93354" lon="5.33898">
        <ele>293.82</ele>
        <time>2017-11-13T12:46:02Z</time>
      </trkpt>
      <trkpt lat="43.93349" lon="5.33899">
        <ele>296.22</ele>
        <time>2017-11-13T12:46:07Z</time>
      </trkpt>
      <trkpt lat="43.93345" lon="5.33899">
        <ele>294.78</ele>
        <time>2017-11-13T12:46:10Z</time>
      </trkpt>
      <trkpt lat="43.93341" lon="5.33899">
        <ele>296.22</ele>
        <time>2017-11-13T12:46:13Z</time>
      </trkpt>
      <trkpt lat="43.93339" lon="5.33899">
        <ele>295.26</ele>
        <time>2017-11-13T12:46:15Z</time>
      </trkpt>
      <trkpt lat="43.93335" lon="5.339">
        <ele>293.34</ele>
        <time>2017-11-13T12:46:18Z</time>
      </trkpt>
      <trkpt lat="43.93333" lon="5.339">
        <ele>294.78</ele>
        <time>2017-11-13T12:46:20Z</time>
      </trkpt>
      <trkpt lat="43.93326" lon="5.33901">
        <ele>298.15</ele>
        <time>2017-11-13T12:46:26Z</time>
      </trkpt>
      <trkpt lat="43.93325" lon="5.33901">
        <ele>298.15</ele>
        <time>2017-11-13T12:46:27Z</time>
      </trkpt>
      <trkpt lat="43.93323" lon="5.33901">
        <ele>294.78</ele>
        <time>2017-11-13T12:46:29Z</time>
      </trkpt>
      <trkpt lat="43.93313" lon="5.33902">
        <ele>296.22</ele>
        <time>2017-11-13T12:46:39Z</time>
      </trkpt>
      <trkpt lat="43.93307" lon="5.33901">
        <ele>292.86</ele>
        <time>2017-11-13T12:46:44Z</time>
      </trkpt>
      <trkpt lat="43.93305" lon="5.33901">
        <ele>295.74</ele>
        <time>2017-11-13T12:46:46Z</time>
      </trkpt>
      <trkpt lat="43.93298" lon="5.33899">
        <ele>293.82</ele>
        <time>2017-11-13T12:46:52Z</time>
      </trkpt>
      <trkpt lat="43.93294" lon="5.33898">
        <ele>295.26</ele>
        <time>2017-11-13T12:46:55Z</time>
      </trkpt>
      <trkpt lat="43.93291" lon="5.33897">
        <ele>293.82</ele>
        <time>2017-11-13T12:46:57Z</time>
      </trkpt>
      <trkpt lat="43.93285" lon="5.33893">
        <ele>295.26</ele>
        <time>2017-11-13T12:47:04Z</time>
      </trkpt>
      <trkpt lat="43.93279" lon="5.33885">
        <ele>293.34</ele>
        <time>2017-11-13T12:47:11Z</time>
      </trkpt>
      <trkpt lat="43.93275" lon="5.3388">
        <ele>296.22</ele>
        <time>2017-11-13T12:47:16Z</time>
      </trkpt>
      <trkpt lat="43.9327" lon="5.33873">
        <ele>297.18</ele>
        <time>2017-11-13T12:47:22Z</time>
      </trkpt>
      <trkpt lat="43.93269" lon="5.3387">
        <ele>295.74</ele>
        <time>2017-11-13T12:47:24Z</time>
      </trkpt>
      <trkpt lat="43.93267" lon="5.33868">
        <ele>295.74</ele>
        <time>2017-11-13T12:47:26Z</time>
      </trkpt>
      <trkpt lat="43.93266" lon="5.33866">
        <ele>294.3</ele>
        <time>2017-11-13T12:47:28Z</time>
      </trkpt>
      <trkpt lat="43.93259" lon="5.33859">
        <ele>298.15</ele>
        <time>2017-11-13T12:47:35Z</time>
      </trkpt>
      <trkpt lat="43.93258" lon="5.33858">
        <ele>298.15</ele>
        <time>2017-11-13T12:47:36Z</time>
      </trkpt>
      <trkpt lat="43.93255" lon="5.33855">
        <ele>296.7</ele>
        <time>2017-11-13T12:47:40Z</time>
      </trkpt>
      <trkpt lat="43.93251" lon="5.3385">
        <ele>299.59</ele>
        <time>2017-11-13T12:47:44Z</time>
      </trkpt>
      <trkpt lat="43.9325" lon="5.33849">
        <ele>297.67</ele>
        <time>2017-11-13T12:47:46Z</time>
      </trkpt>
      <trkpt lat="43.93248" lon="5.33847">
        <ele>296.22</ele>
        <time>2017-11-13T12:47:48Z</time>
      </trkpt>
      <trkpt lat="43.93237" lon="5.33838">
        <ele>293.34</ele>
        <time>2017-11-13T12:48:00Z</time>
      </trkpt>
      <trkpt lat="43.93228" lon="5.33833">
        <ele>294.78</ele>
        <time>2017-11-13T12:48:09Z</time>
      </trkpt>
      <trkpt lat="43.93224" lon="5.33831">
        <ele>292.86</ele>
        <time>2017-11-13T12:48:13Z</time>
      </trkpt>
      <trkpt lat="43.93218" lon="5.33828">
        <ele>294.78</ele>
        <time>2017-11-13T12:48:18Z</time>
      </trkpt>
      <trkpt lat="43.93213" lon="5.33826">
        <ele>291.42</ele>
        <time>2017-11-13T12:48:22Z</time>
      </trkpt>
      <trkpt lat="43.93212" lon="5.33825">
        <ele>291.42</ele>
        <time>2017-11-13T12:48:23Z</time>
      </trkpt>
      <trkpt lat="43.93203" lon="5.3382">
        <ele>296.7</ele>
        <time>2017-11-13T12:48:32Z</time>
      </trkpt>
      <trkpt lat="43.93202" lon="5.3382">
        <ele>294.78</ele>
        <time>2017-11-13T12:48:33Z</time>
      </trkpt>
      <trkpt lat="43.93187" lon="5.33817">
        <ele>293.82</ele>
        <time>2017-11-13T12:48:47Z</time>
      </trkpt>
      <trkpt lat="43.93185" lon="5.33816">
        <ele>291.9</ele>
        <time>2017-11-13T12:48:49Z</time>
      </trkpt>
      <trkpt lat="43.93181" lon="5.33815">
        <ele>289.49</ele>
        <time>2017-11-13T12:48:53Z</time>
      </trkpt>
      <trkpt lat="43.93174" lon="5.33814">
        <ele>292.86</ele>
        <time>2017-11-13T12:48:59Z</time>
      </trkpt>
      <trkpt lat="43.93173" lon="5.33814">
        <ele>290.46</ele>
        <time>2017-11-13T12:49:00Z</time>
      </trkpt>
      <trkpt lat="43.93168" lon="5.33814">
        <ele>295.74</ele>
        <time>2017-11-13T12:49:04Z</time>
      </trkpt>
      <trkpt lat="43.93166" lon="5.33813">
        <ele>296.22</ele>
        <time>2017-11-13T12:49:06Z</time>
      </trkpt>
      <trkpt lat="43.93162" lon="5.33812">
        <ele>294.3</ele>
        <time>2017-11-13T12:49:10Z</time>
      </trkpt>
      <trkpt lat="43.93157" lon="5.33811">
        <ele>291.42</ele>
        <time>2017-11-13T12:49:14Z</time>
      </trkpt>
      <trkpt lat="43.93155" lon="5.33811">
        <ele>291.42</ele>
        <time>2017-11-13T12:49:15Z</time>
      </trkpt>
      <trkpt lat="43.93138" lon="5.33812">
        <ele>290.94</ele>
        <time>2017-11-13T12:49:31Z</time>
      </trkpt>
      <trkpt lat="43.93137" lon="5.33812">
        <ele>293.82</ele>
        <time>2017-11-13T12:49:32Z</time>
      </trkpt>
      <trkpt lat="43.93136" lon="5.33812">
        <ele>293.82</ele>
        <time>2017-11-13T12:49:33Z</time>
      </trkpt>
      <trkpt lat="43.93128" lon="5.33812">
        <ele>292.38</ele>
        <time>2017-11-13T12:49:40Z</time>
      </trkpt>
      <trkpt lat="43.93125" lon="5.33812">
        <ele>290.46</ele>
        <time>2017-11-13T12:49:43Z</time>
      </trkpt>
      <trkpt lat="43.93122" lon="5.33812">
        <ele>292.38</ele>
        <time>2017-11-13T12:49:46Z</time>
      </trkpt>
      <trkpt lat="43.93114" lon="5.33811">
        <ele>294.78</ele>
        <time>2017-11-13T12:49:54Z</time>
      </trkpt>
      <trkpt lat="43.93112" lon="5.33811">
        <ele>293.82</ele>
        <time>2017-11-13T12:49:56Z</time>
      </trkpt>
      <trkpt lat="43.9311" lon="5.33811">
        <ele>295.26</ele>
        <time>2017-11-13T12:49:58Z</time>
      </trkpt>
      <trkpt lat="43.93106" lon="5.33811">
        <ele>291.42</ele>
        <time>2017-11-13T12:50:01Z</time>
      </trkpt>
      <trkpt lat="43.93103" lon="5.3381">
        <ele>290.94</ele>
        <time>2017-11-13T12:50:03Z</time>
      </trkpt>
      <trkpt lat="43.93101" lon="5.3381">
        <ele>292.38</ele>
        <time>2017-11-13T12:50:05Z</time>
      </trkpt>
      <trkpt lat="43.93097" lon="5.3381">
        <ele>291.42</ele>
        <time>2017-11-13T12:50:08Z</time>
      </trkpt>
      <trkpt lat="43.93094" lon="5.33811">
        <ele>292.86</ele>
        <time>2017-11-13T12:50:11Z</time>
      </trkpt>
      <trkpt lat="43.93091" lon="5.33811">
        <ele>289.01</ele>
        <time>2017-11-13T12:50:13Z</time>
      </trkpt>
      <trkpt lat="43.9309" lon="5.33811">
        <ele>289.01</ele>
        <time>2017-11-13T12:50:14Z</time>
      </trkpt>
      <trkpt lat="43.93086" lon="5.33812">
        <ele>295.26</ele>
        <time>2017-11-13T12:50:18Z</time>
      </trkpt>
      <trkpt lat="43.93083" lon="5.33813">
        <ele>296.7</ele>
        <time>2017-11-13T12:50:20Z</time>
      </trkpt>
      <trkpt lat="43.93079" lon="5.33814">
        <ele>294.3</ele>
        <time>2017-11-13T12:50:24Z</time>
      </trkpt>
      <trkpt lat="43.93076" lon="5.33815">
        <ele>291.9</ele>
        <time>2017-11-13T12:50:27Z</time>
      </trkpt>
      <trkpt lat="43.93068" lon="5.33818">
        <ele>291.9</ele>
        <time>2017-11-13T12:50:35Z</time>
      </trkpt>
      <trkpt lat="43.93058" lon="5.33822">
        <ele>292.38</ele>
        <time>2017-11-13T12:50:45Z</time>
      </trkpt>
      <trkpt lat="43.93052" lon="5.33824">
        <ele>291.42</ele>
        <time>2017-11-13T12:50:52Z</time>
      </trkpt>
      <trkpt lat="43.9305" lon="5.33825">
        <ele>294.78</ele>
        <time>2017-11-13T12:50:54Z</time>
      </trkpt>
      <trkpt lat="43.93049" lon="5.33825">
        <ele>294.78</ele>
        <time>2017-11-13T12:50:55Z</time>
      </trkpt>
      <trkpt lat="43.93045" lon="5.33827">
        <ele>298.15</ele>
        <time>2017-11-13T12:50:59Z</time>
      </trkpt>
      <trkpt lat="43.93044" lon="5.33828">
        <ele>294.78</ele>
        <time>2017-11-13T12:51:00Z</time>
      </trkpt>
      <trkpt lat="43.93041" lon="5.33829">
        <ele>292.86</ele>
        <time>2017-11-13T12:51:03Z</time>
      </trkpt>
      <trkpt lat="43.93035" lon="5.33831">
        <ele>292.38</ele>
        <time>2017-11-13T12:51:08Z</time>
      </trkpt>
      <trkpt lat="43.93033" lon="5.33831">
        <ele>287.57</ele>
        <time>2017-11-13T12:51:10Z</time>
      </trkpt>
      <trkpt lat="43.9303" lon="5.33832">
        <ele>292.86</ele>
        <time>2017-11-13T12:51:12Z</time>
      </trkpt>
      <trkpt lat="43.93029" lon="5.33833">
        <ele>290.94</ele>
        <time>2017-11-13T12:51:13Z</time>
      </trkpt>
      <trkpt lat="43.93027" lon="5.33834">
        <ele>287.57</ele>
        <time>2017-11-13T12:51:15Z</time>
      </trkpt>
      <trkpt lat="43.93022" lon="5.33835">
        <ele>290.46</ele>
        <time>2017-11-13T12:51:19Z</time>
      </trkpt>
      <trkpt lat="43.93018" lon="5.33837">
        <ele>294.3</ele>
        <time>2017-11-13T12:51:23Z</time>
      </trkpt>
      <trkpt lat="43.93015" lon="5.33837">
        <ele>289.49</ele>
        <time>2017-11-13T12:51:26Z</time>
      </trkpt>
      <trkpt lat="43.93012" lon="5.33838">
        <ele>286.61</ele>
        <time>2017-11-13T12:51:29Z</time>
      </trkpt>
      <trkpt lat="43.9301" lon="5.33839">
        <ele>289.01</ele>
        <time>2017-11-13T12:51:31Z</time>
      </trkpt>
      <trkpt lat="43.93008" lon="5.33839">
        <ele>284.21</ele>
        <time>2017-11-13T12:51:33Z</time>
      </trkpt>
      <trkpt lat="43.93007" lon="5.33839">
        <ele>285.65</ele>
        <time>2017-11-13T12:51:34Z</time>
      </trkpt>
      <trkpt lat="43.93005" lon="5.33839">
        <ele>288.53</ele>
        <time>2017-11-13T12:51:36Z</time>
      </trkpt>
      <trkpt lat="43.93001" lon="5.3384">
        <ele>291.9</ele>
        <time>2017-11-13T12:51:39Z</time>
      </trkpt>
      <trkpt lat="43.93" lon="5.3384">
        <ele>291.42</ele>
        <time>2017-11-13T12:51:40Z</time>
      </trkpt>
      <trkpt lat="43.92994" lon="5.3384">
        <ele>290.46</ele>
        <time>2017-11-13T12:51:45Z</time>
      </trkpt>
      <trkpt lat="43.9299" lon="5.33841">
        <ele>288.53</ele>
        <time>2017-11-13T12:51:49Z</time>
      </trkpt>
      <trkpt lat="43.92986" lon="5.33843">
        <ele>291.9</ele>
        <time>2017-11-13T12:51:53Z</time>
      </trkpt>
      <trkpt lat="43.92979" lon="5.33849">
        <ele>287.09</ele>
        <time>2017-11-13T12:52:01Z</time>
      </trkpt>
      <trkpt lat="43.92978" lon="5.3385">
        <ele>287.09</ele>
        <time>2017-11-13T12:52:02Z</time>
      </trkpt>
      <trkpt lat="43.92977" lon="5.3385">
        <ele>290.46</ele>
        <time>2017-11-13T12:52:03Z</time>
      </trkpt>
      <trkpt lat="43.92976" lon="5.33851">
        <ele>290.46</ele>
        <time>2017-11-13T12:52:04Z</time>
      </trkpt>
      <trkpt lat="43.92973" lon="5.33852">
        <ele>288.53</ele>
        <time>2017-11-13T12:52:07Z</time>
      </trkpt>
      <trkpt lat="43.92968" lon="5.33856">
        <ele>289.49</ele>
        <time>2017-11-13T12:52:13Z</time>
      </trkpt>
      <trkpt lat="43.92964" lon="5.33858">
        <ele>287.57</ele>
        <time>2017-11-13T12:52:17Z</time>
      </trkpt>
      <trkpt lat="43.92959" lon="5.3386">
        <ele>289.49</ele>
        <time>2017-11-13T12:52:21Z</time>
      </trkpt>
      <trkpt lat="43.92957" lon="5.33862">
        <ele>290.94</ele>
        <time>2017-11-13T12:52:24Z</time>
      </trkpt>
      <trkpt lat="43.92955" lon="5.33865">
        <ele>287.57</ele>
        <time>2017-11-13T12:52:28Z</time>
      </trkpt>
      <trkpt lat="43.92957" lon="5.33877">
        <ele>289.01</ele>
        <time>2017-11-13T12:52:39Z</time>
      </trkpt>
      <trkpt lat="43.9296" lon="5.33883">
        <ele>288.05</ele>
        <time>2017-11-13T12:52:46Z</time>
      </trkpt>
      <trkpt lat="43.92962" lon="5.33886">
        <ele>289.01</ele>
        <time>2017-11-13T12:52:50Z</time>
      </trkpt>
      <trkpt lat="43.92967" lon="5.33896">
        <ele>289.01</ele>
        <time>2017-11-13T12:52:58Z</time>
      </trkpt>
      <trkpt lat="43.9297" lon="5.33899">
        <ele>290.94</ele>
        <time>2017-11-13T12:53:01Z</time>
      </trkpt>
      <trkpt lat="43.92971" lon="5.339">
        <ele>289.49</ele>
        <time>2017-11-13T12:53:02Z</time>
      </trkpt>
      <trkpt lat="43.92982" lon="5.33919">
        <ele>287.57</ele>
        <time>2017-11-13T12:53:20Z</time>
      </trkpt>
      <trkpt lat="43.92989" lon="5.33932">
        <ele>291.42</ele>
        <time>2017-11-13T12:53:31Z</time>
      </trkpt>
      <trkpt lat="43.92991" lon="5.33934">
        <ele>293.34</ele>
        <time>2017-11-13T12:53:33Z</time>
      </trkpt>
      <trkpt lat="43.92992" lon="5.33937">
        <ele>291.42</ele>
        <time>2017-11-13T12:53:35Z</time>
      </trkpt>
      <trkpt lat="43.92996" lon="5.33944">
        <ele>294.3</ele>
        <time>2017-11-13T12:53:42Z</time>
      </trkpt>
      <trkpt lat="43.92997" lon="5.33946">
        <ele>291.42</ele>
        <time>2017-11-13T12:53:44Z</time>
      </trkpt>
      <trkpt lat="43.92998" lon="5.33947">
        <ele>291.42</ele>
        <time>2017-11-13T12:53:45Z</time>
      </trkpt>
      <trkpt lat="43.93" lon="5.3395">
        <ele>292.86</ele>
        <time>2017-11-13T12:53:48Z</time>
      </trkpt>
      <trkpt lat="43.93004" lon="5.33957">
        <ele>291.9</ele>
        <time>2017-11-13T12:53:54Z</time>
      </trkpt>
      <trkpt lat="43.93007" lon="5.33963">
        <ele>291.9</ele>
        <time>2017-11-13T12:54:00Z</time>
      </trkpt>
      <trkpt lat="43.93012" lon="5.33974">
        <ele>295.74</ele>
        <time>2017-11-13T12:54:11Z</time>
      </trkpt>
      <trkpt lat="43.93012" lon="5.33977">
        <ele>291.9</ele>
        <time>2017-11-13T12:54:13Z</time>
      </trkpt>
      <trkpt lat="43.93012" lon="5.33978">
        <ele>293.34</ele>
        <time>2017-11-13T12:54:14Z</time>
      </trkpt>
      <trkpt lat="43.9301" lon="5.33991">
        <ele>294.3</ele>
        <time>2017-11-13T12:54:24Z</time>
      </trkpt>
      <trkpt lat="43.93008" lon="5.33995">
        <ele>291.9</ele>
        <time>2017-11-13T12:54:28Z</time>
      </trkpt>
      <trkpt lat="43.93008" lon="5.33998">
        <ele>293.82</ele>
        <time>2017-11-13T12:54:30Z</time>
      </trkpt>
      <trkpt lat="43.93007" lon="5.34002">
        <ele>291.42</ele>
        <time>2017-11-13T12:54:33Z</time>
      </trkpt>
      <trkpt lat="43.93008" lon="5.34006">
        <ele>289.97</ele>
        <time>2017-11-13T12:54:37Z</time>
      </trkpt>
      <trkpt lat="43.93008" lon="5.34007">
        <ele>293.34</ele>
        <time>2017-11-13T12:54:38Z</time>
      </trkpt>
      <trkpt lat="43.93008" lon="5.3401">
        <ele>294.78</ele>
        <time>2017-11-13T12:54:41Z</time>
      </trkpt>
      <trkpt lat="43.93007" lon="5.34013">
        <ele>292.86</ele>
        <time>2017-11-13T12:54:44Z</time>
      </trkpt>
      <trkpt lat="43.93007" lon="5.34016">
        <ele>294.78</ele>
        <time>2017-11-13T12:54:46Z</time>
      </trkpt>
      <trkpt lat="43.93007" lon="5.34019">
        <ele>291.9</ele>
        <time>2017-11-13T12:54:48Z</time>
      </trkpt>
      <trkpt lat="43.93007" lon="5.3402">
        <ele>291.9</ele>
        <time>2017-11-13T12:54:49Z</time>
      </trkpt>
      <trkpt lat="43.93007" lon="5.34026">
        <ele>292.86</ele>
        <time>2017-11-13T12:54:53Z</time>
      </trkpt>
      <trkpt lat="43.93003" lon="5.34044">
        <ele>293.34</ele>
        <time>2017-11-13T12:55:10Z</time>
      </trkpt>
      <trkpt lat="43.93003" lon="5.3405">
        <ele>291.42</ele>
        <time>2017-11-13T12:55:18Z</time>
      </trkpt>
      <trkpt lat="43.93001" lon="5.34053">
        <ele>295.26</ele>
        <time>2017-11-13T12:55:24Z</time>
      </trkpt>
      <trkpt lat="43.93001" lon="5.34053">
        <ele>295.26</ele>
        <time>2017-11-13T12:55:25Z</time>
      </trkpt>
      <trkpt lat="43.93" lon="5.34054">
        <ele>291.9</ele>
        <time>2017-11-13T12:55:29Z</time>
      </trkpt>
      <trkpt lat="43.93" lon="5.34054">
        <ele>291.9</ele>
        <time>2017-11-13T12:55:30Z</time>
      </trkpt>
      <trkpt lat="43.93" lon="5.34056">
        <ele>293.34</ele>
        <time>2017-11-13T12:55:33Z</time>
      </trkpt>
      <trkpt lat="43.92998" lon="5.34057">
        <ele>291.9</ele>
        <time>2017-11-13T12:55:36Z</time>
      </trkpt>
      <trkpt lat="43.92993" lon="5.34059">
        <ele>289.01</ele>
        <time>2017-11-13T12:56:03Z</time>
      </trkpt>
      <trkpt lat="43.92993" lon="5.34058">
        <ele>286.13</ele>
        <time>2017-11-13T12:56:09Z</time>
      </trkpt>
      <trkpt lat="43.92992" lon="5.34058">
        <ele>289.97</ele>
        <time>2017-11-13T12:56:11Z</time>
      </trkpt>
      <trkpt lat="43.92992" lon="5.34058">
        <ele>289.97</ele>
        <time>2017-11-13T12:56:12Z</time>
      </trkpt>
      <trkpt lat="43.92992" lon="5.34058">
        <ele>288.53</ele>
        <time>2017-11-13T12:56:14Z</time>
      </trkpt>
      <trkpt lat="43.92992" lon="5.3406">
        <ele>293.34</ele>
        <time>2017-11-13T12:56:17Z</time>
      </trkpt>
      <trkpt lat="43.92992" lon="5.34061">
        <ele>290.46</ele>
        <time>2017-11-13T12:56:18Z</time>
      </trkpt>
      <trkpt lat="43.92991" lon="5.34063">
        <ele>289.97</ele>
        <time>2017-11-13T12:56:20Z</time>
      </trkpt>
      <trkpt lat="43.92989" lon="5.34072">
        <ele>288.53</ele>
        <time>2017-11-13T12:56:31Z</time>
      </trkpt>
      <trkpt lat="43.92986" lon="5.3409">
        <ele>287.57</ele>
        <time>2017-11-13T12:56:50Z</time>
      </trkpt>
      <trkpt lat="43.92983" lon="5.34101">
        <ele>287.57</ele>
        <time>2017-11-13T12:56:59Z</time>
      </trkpt>
      <trkpt lat="43.92982" lon="5.34106">
        <ele>285.17</ele>
        <time>2017-11-13T12:57:04Z</time>
      </trkpt>
      <trkpt lat="43.9298" lon="5.34112">
        <ele>286.61</ele>
        <time>2017-11-13T12:57:10Z</time>
      </trkpt>
      <trkpt lat="43.92978" lon="5.34118">
        <ele>285.17</ele>
        <time>2017-11-13T12:57:15Z</time>
      </trkpt>
      <trkpt lat="43.92977" lon="5.34125">
        <ele>286.13</ele>
        <time>2017-11-13T12:57:21Z</time>
      </trkpt>
      <trkpt lat="43.92974" lon="5.34134">
        <ele>283.73</ele>
        <time>2017-11-13T12:57:29Z</time>
      </trkpt>
      <trkpt lat="43.92972" lon="5.3414">
        <ele>280.84</ele>
        <time>2017-11-13T12:57:34Z</time>
      </trkpt>
      <trkpt lat="43.92967" lon="5.34149">
        <ele>281.8</ele>
        <time>2017-11-13T12:57:42Z</time>
      </trkpt>
      <trkpt lat="43.92965" lon="5.34149">
        <ele>283.73</ele>
        <time>2017-11-13T12:57:47Z</time>
      </trkpt>
      <trkpt lat="43.92963" lon="5.34151">
        <ele>287.57</ele>
        <time>2017-11-13T12:57:50Z</time>
      </trkpt>
      <trkpt lat="43.92963" lon="5.34151">
        <ele>284.21</ele>
        <time>2017-11-13T12:57:51Z</time>
      </trkpt>
      <trkpt lat="43.92961" lon="5.34153">
        <ele>283.25</ele>
        <time>2017-11-13T12:57:53Z</time>
      </trkpt>
      <trkpt lat="43.9295" lon="5.34157">
        <ele>279.88</ele>
        <time>2017-11-13T12:58:07Z</time>
      </trkpt>
      <trkpt lat="43.92946" lon="5.34166">
        <ele>279.4</ele>
        <time>2017-11-13T12:58:14Z</time>
      </trkpt>
      <trkpt lat="43.92944" lon="5.34171">
        <ele>281.8</ele>
        <time>2017-11-13T12:58:18Z</time>
      </trkpt>
      <trkpt lat="43.92944" lon="5.34173">
        <ele>278.44</ele>
        <time>2017-11-13T12:58:20Z</time>
      </trkpt>
      <trkpt lat="43.92942" lon="5.34179">
        <ele>279.4</ele>
        <time>2017-11-13T12:58:24Z</time>
      </trkpt>
      <trkpt lat="43.9294" lon="5.34192">
        <ele>280.84</ele>
        <time>2017-11-13T12:58:32Z</time>
      </trkpt>
      <trkpt lat="43.92939" lon="5.34195">
        <ele>279.4</ele>
        <time>2017-11-13T12:58:34Z</time>
      </trkpt>
      <trkpt lat="43.92935" lon="5.34219">
        <ele>275.56</ele>
        <time>2017-11-13T12:58:51Z</time>
      </trkpt>
      <trkpt lat="43.92935" lon="5.34221">
        <ele>278.92</ele>
        <time>2017-11-13T12:58:53Z</time>
      </trkpt>
      <trkpt lat="43.92935" lon="5.34222">
        <ele>278.92</ele>
        <time>2017-11-13T12:58:54Z</time>
      </trkpt>
      <trkpt lat="43.92934" lon="5.34225">
        <ele>275.07</ele>
        <time>2017-11-13T12:58:56Z</time>
      </trkpt>
      <trkpt lat="43.92934" lon="5.34227">
        <ele>273.15</ele>
        <time>2017-11-13T12:58:58Z</time>
      </trkpt>
      <trkpt lat="43.92932" lon="5.34234">
        <ele>277.48</ele>
        <time>2017-11-13T12:59:03Z</time>
      </trkpt>
      <trkpt lat="43.92932" lon="5.34237">
        <ele>278.44</ele>
        <time>2017-11-13T12:59:05Z</time>
      </trkpt>
      <trkpt lat="43.92931" lon="5.3424">
        <ele>275.56</ele>
        <time>2017-11-13T12:59:07Z</time>
      </trkpt>
      <trkpt lat="43.92928" lon="5.34252">
        <ele>277.96</ele>
        <time>2017-11-13T12:59:16Z</time>
      </trkpt>
      <trkpt lat="43.92927" lon="5.34258">
        <ele>276.04</ele>
        <time>2017-11-13T12:59:20Z</time>
      </trkpt>
      <trkpt lat="43.92925" lon="5.34264">
        <ele>273.15</ele>
        <time>2017-11-13T12:59:25Z</time>
      </trkpt>
      <trkpt lat="43.92924" lon="5.34266">
        <ele>274.59</ele>
        <time>2017-11-13T12:59:27Z</time>
      </trkpt>
      <trkpt lat="43.92917" lon="5.34281">
        <ele>278.44</ele>
        <time>2017-11-13T12:59:40Z</time>
      </trkpt>
      <trkpt lat="43.92916" lon="5.34286">
        <ele>277.96</ele>
        <time>2017-11-13T12:59:44Z</time>
      </trkpt>
      <trkpt lat="43.92915" lon="5.34289">
        <ele>279.88</ele>
        <time>2017-11-13T12:59:46Z</time>
      </trkpt>
      <trkpt lat="43.92914" lon="5.34293">
        <ele>277.48</ele>
        <time>2017-11-13T12:59:49Z</time>
      </trkpt>
      <trkpt lat="43.92911" lon="5.34301">
        <ele>275.56</ele>
        <time>2017-11-13T12:59:55Z</time>
      </trkpt>
      <trkpt lat="43.92908" lon="5.34313">
        <ele>273.15</ele>
        <time>2017-11-13T13:00:04Z</time>
      </trkpt>
      <trkpt lat="43.92907" lon="5.34316">
        <ele>275.07</ele>
        <time>2017-11-13T13:00:06Z</time>
      </trkpt>
      <trkpt lat="43.92905" lon="5.34321">
        <ele>273.15</ele>
        <time>2017-11-13T13:00:10Z</time>
      </trkpt>
      <trkpt lat="43.92899" lon="5.3433">
        <ele>270.27</ele>
        <time>2017-11-13T13:00:28Z</time>
      </trkpt>
      <trkpt lat="43.92899" lon="5.3433">
        <ele>269.79</ele>
        <time>2017-11-13T13:00:29Z</time>
      </trkpt>
      <trkpt lat="43.92899" lon="5.3433">
        <ele>275.56</ele>
        <time>2017-11-13T13:00:30Z</time>
      </trkpt>
      <trkpt lat="43.92899" lon="5.34329">
        <ele>275.56</ele>
        <time>2017-11-13T13:00:31Z</time>
      </trkpt>
      <trkpt lat="43.92899" lon="5.34329">
        <ele>274.59</ele>
        <time>2017-11-13T13:00:33Z</time>
      </trkpt>
      <trkpt lat="43.92899" lon="5.34329">
        <ele>273.15</ele>
        <time>2017-11-13T13:00:36Z</time>
      </trkpt>
      <trkpt lat="43.929" lon="5.34328">
        <ele>273.63</ele>
        <time>2017-11-13T13:00:44Z</time>
      </trkpt>
      <trkpt lat="43.929" lon="5.34329">
        <ele>273.63</ele>
        <time>2017-11-13T13:00:52Z</time>
      </trkpt>
    </trkseg>
  </trk>
</gpx>